GFSCGP_925_spd_000.txt.gz
Wind_Speed
11 5 10 10 10 5 4 3 4 8 9 8 8 6 11 3 5 8 6 6 6 5 1 12 17 18 19 19 14 11 14 5 22 26 27 28 30 32 32 33 31 31 31 31
7 17 13 9 6 5 5 6 9 9 4 1 1 8 7 3 4 5 8 6 5 4 6 10 17 20 24 24 23 19 14 17 7 18 24 19 18 22 30 29 28 28 29 30
8 10 12 9 5 8 6 8 5 6 6 4 0 6 2 2 3 4 3 4 4 6 7 8 12 19 22 25 25 24 22 20 18 8 9 13 11 9 11 13 17 19 21 24
5 4 16 11 11 8 8 8 8 3 2 3 2 4 3 4 5 3 5 6 6 7 6 6 9 17 20 22 24 26 27 27 25 22 19 16 12 9 10 12 12 13 13 15
8 13 16 13 10 9 10 6 3 0 1 3 2 1 6 6 6 7 7 7 6 6 7 6 7 13 17 20 23 24 26 28 27 27 25 23 21 18 17 18 19 20 19 19
2 7 9 9 5 7 6 4 7 4 2 2 7 7 5 8 11 6 4 6 8 7 6 5 8 13 16 18 20 21 24 25 25 25 25 25 23 22 22 22 22 22 23 23
5 2 2 5 5 3 5 6 1 1 1 6 1 3 8 8 8 15 11 9 8 7 7 6 6 8 11 15 16 17 20 23 23 24 26 24 23 22 22 21 22 23 25 25
7 9 8 5 6 7 6 7 5 6 4 4 1 6 6 5 3 9 9 9 8 7 6 6 6 7 9 11 14 17 21 23 23 22 22 21 20 21 21 22 23 23 24 25
6 3 2 2 3 6 5 4 4 2 2 2 3 6 2 7 8 10 10 8 8 7 6 7 6 8 9 14 16 18 19 21 23 23 22 23 22 23 23 23 23 25 26 28
5 5 1 2 3 2 4 4 2 2 3 4 4 4 4 2 7 8 8 9 7 6 6 5 4 6 11 17 17 19 19 20 20 20 20 20 21 22 23 24 26 28 30 31
6 4 1 3 4 7 2 1 2 3 4 4 1 5 5 8 8 11 9 8 9 8 7 5 4 11 17 16 18 17 18 19 19 19 19 19 20 22 24 27 28 29 29 29
2 5 4 3 1 1 3 6 5 4 3 1 3 5 3 1 7 8 10 8 4 6 7 5 9 17 16 15 15 16 16 17 16 17 18 20 21 24 27 30 30 31 30 31
5 2 4 3 4 2 4 4 4 4 3 5 5 5 4 5 6 2 6 5 7 7 7 7 8 10 12 12 12 13 14 15 16 17 20 20 22 26 27 28 29 30 31 31
3 3 5 7 4 5 5 5 5 5 4 4 5 2 1 4 5 4 5 8 7 7 8 7 6 8 10 10 10 12 12 14 16 17 18 19 23 26 27 29 30 31 31 30
3 4 2 2 3 3 4 6 8 7 4 6 1 5 4 6 7 7 7 6 9 8 7 7 6 5 7 9 9 9 12 15 16 16 15 20 23 25 27 30 30 31 30 30
3 2 2 2 4 3 3 4 6 5 4 6 2 10 4 6 3 1 2 8 9 9 7 7 6 7 7 6 6 8 9 11 12 13 17 22 26 29 30 31 31 32 32 33
3 3 2 2 3 5 5 5 5 4 4 5 4 5 4 5 5 4 4 7 9 7 8 7 6 7 6 4 5 7 9 10 13 14 19 24 27 28 28 29 30 29 30 31
5 4 2 2 2 1 0 4 6 5 3 2 4 6 3 3 3 3 3 8 8 8 6 5 6 5 4 3 4 6 9 12 16 18 23 26 27 27 28 27 27 30 28 29
3 4 3 3 2 5 2 2 3 3 2 2 4 2 1 2 3 3 3 2 4 6 7 7 6 3 3 3 5 9 12 17 22 22 23 25 26 28 28 28 30 30 29 29
5 6 4 2 3 5 2 2 2 1 2 4 2 4 3 2 4 4 3 4 8 12 10 6 4 3 3 7 10 13 16 18 20 21 22 24 25 27 29 28 29 28 28 29
3 3 5 3 2 6 5 6 0 4 3 3 3 4 6 2 3 1 7 6 10 11 10 7 4 4 7 8 11 13 15 17 18 19 22 24 25 27 25 27 28 29 30 28
6 6 4 3 2 7 2 2 3 3 2 3 4 3 3 3 4 4 6 10 10 8 7 5 3 5 5 7 10 12 14 18 19 21 24 26 27 27 26 28 30 27 27 26
3 5 5 7 5 2 3 5 3 4 4 3 2 3 1 6 6 7 4 3 3 5 6 4 3 2 5 7 9 13 18 19 21 23 26 27 28 27 25 25 26 25 23 23
2 2 2 1 1 6 4 2 2 4 5 6 5 3 1 4 4 7 6 5 4 6 5 3 1 4 7 9 12 15 18 20 22 24 27 27 24 23 23 23 22 23 23 23
5 2 2 3 5 3 4 4 6 6 5 3 3 4 6 4 1 2 3 4 7 9 4 2 3 6 9 12 16 18 20 21 23 25 24 22 21 22 23 24 25 25 25 23
4 6 4 4 4 3 3 0 3 3 3 6 7 4 2 2 2 3 3 6 6 4 2 3 6 8 12 14 18 21 21 21 23 23 21 22 22 22 24 25 29 27 26 28

GFSCGP_925_spd_003.txt.gz
Wind_Speed
10 7 15 12 11 3 4 4 3 5 6 5 8 10 15 6 3 5 7 6 6 6 4 14 21 24 25 25 20 18 17 12 8 17 19 20 24 26 27 27 28 28 28 28
7 16 15 7 4 5 3 2 5 8 4 4 3 9 10 4 4 5 8 6 5 5 6 10 19 24 26 25 24 23 23 22 14 4 10 7 5 6 8 11 13 15 18 20
13 10 9 14 7 7 4 4 4 6 8 4 5 7 5 2 2 3 3 4 5 6 6 6 11 20 23 25 25 26 26 27 24 16 4 4 6 10 15 17 16 16 15 15
10 8 12 10 9 10 11 8 3 6 4 3 3 5 5 4 4 4 5 5 6 6 4 5 8 15 20 22 24 27 29 30 29 27 26 25 22 17 16 17 18 19 19 19
6 9 14 13 7 8 8 6 6 5 4 3 2 2 6 3 7 8 7 6 6 6 6 6 7 14 16 19 23 25 28 29 27 27 25 24 23 20 20 20 19 19 18 20
5 6 12 14 5 10 3 4 5 3 2 2 7 7 5 5 11 5 4 6 7 7 6 6 9 13 16 19 22 24 27 27 26 26 26 25 23 22 22 22 23 23 23 23
3 6 5 6 6 4 5 5 1 2 1 5 1 3 9 4 7 11 11 9 8 7 6 6 6 10 16 19 20 22 24 25 23 23 23 22 21 21 21 21 22 23 25 27
5 7 10 5 8 8 8 8 5 6 4 4 4 6 5 6 7 8 10 9 7 7 5 6 6 11 14 16 19 20 21 21 20 20 20 19 19 20 20 21 22 22 24 25
5 3 3 2 4 9 5 4 5 3 1 1 4 7 3 6 5 9 11 9 8 7 6 7 7 12 15 18 17 17 18 19 19 18 17 18 19 20 20 21 22 24 25 25
6 5 2 2 4 4 6 7 3 2 3 4 4 5 5 2 3 5 9 10 8 6 7 6 7 13 15 16 16 16 16 16 16 15 16 18 19 20 21 23 25 27 27 28
5 4 1 4 4 7 3 2 5 4 4 3 2 6 5 5 8 12 9 9 7 7 7 6 8 14 16 14 13 14 14 14 15 16 16 17 20 22 24 26 27 28 29 30
2 5 5 2 0 3 2 7 6 4 4 2 3 5 4 4 8 7 7 4 5 6 7 7 10 14 13 12 11 12 12 14 14 14 15 17 21 24 26 27 28 29 29 30
6 1 4 3 4 3 4 5 4 4 3 5 5 5 3 4 7 3 5 8 8 8 7 7 8 9 11 9 8 10 12 12 12 13 15 19 23 24 25 27 27 28 29 29
6 3 6 8 5 5 5 5 5 6 4 4 6 4 2 6 5 1 2 2 6 7 9 6 6 7 9 8 8 9 10 11 14 15 17 19 21 23 23 25 26 27 28 29
3 4 3 3 4 4 4 6 9 7 5 6 3 6 2 1 5 5 6 4 8 8 7 7 6 5 7 6 6 9 12 13 13 13 16 19 20 22 23 25 27 28 29 30
3 2 2 1 4 4 1 2 6 3 3 3 3 4 3 3 1 2 3 4 6 6 7 7 6 7 6 6 7 7 9 10 13 15 17 19 22 23 25 27 29 30 31 32
3 5 3 2 2 3 4 8 7 4 4 6 5 3 2 3 4 1 2 6 7 7 8 8 6 7 6 6 6 8 8 10 13 13 16 20 22 25 26 28 28 30 30 30
4 4 3 3 2 2 2 3 4 6 4 4 6 4 3 3 2 3 3 6 8 9 8 7 9 9 6 4 6 5 7 10 12 14 17 20 22 24 26 27 28 29 28 27
4 4 3 4 3 2 1 3 6 5 1 3 3 2 3 1 2 4 3 4 1 6 8 10 10 8 6 3 3 3 6 10 13 16 18 20 22 25 27 27 29 29 28 28
5 5 3 2 3 6 2 1 2 4 1 2 3 3 2 2 2 4 1 3 6 13 16 14 9 7 3 2 2 4 7 11 15 17 18 20 21 23 25 25 27 28 27 27
2 2 4 2 2 5 4 2 2 4 4 3 4 3 2 3 4 2 5 4 8 12 12 10 7 6 4 2 2 4 8 13 15 17 18 20 21 23 23 25 27 29 28 26
6 6 4 3 2 6 0 2 5 4 3 5 5 4 2 2 1 2 3 5 6 9 9 6 5 5 3 0 4 8 12 14 16 18 20 22 23 23 24 24 28 27 26 24
3 5 5 6 4 2 2 4 4 5 6 4 2 3 4 4 4 4 5 6 6 10 9 5 4 4 2 3 7 11 14 15 17 19 22 25 25 25 22 26 27 25 22 22
1 2 3 3 2 3 4 3 3 2 3 3 2 2 2 2 2 3 3 5 5 8 7 5 3 0 3 6 9 10 13 16 18 21 24 26 25 24 26 25 21 21 21 22
3 4 4 1 1 3 2 1 3 4 1 1 2 1 2 1 1 1 3 4 6 8 5 3 1 3 5 9 11 13 16 17 20 23 25 26 26 24 26 23 23 23 23 22
4 6 4 5 5 4 4 4 3 4 2 1 2 3 2 1 2 4 4 6 8 7 5 3 3 5 8 11 15 16 17 17 19 23 21 23 22 23 23 24 28 23 22 26

GFSCGP_925_spd_006.txt.gz
Wind_Speed
13 9 12 13 13 3 6 4 6 4 4 2 7 8 15 8 5 4 5 4 4 7 3 14 20 22 23 22 23 24 25 20 9 3 4 6 8 10 9 9 9 10 10 11
8 16 14 7 8 5 3 3 5 6 1 3 7 10 12 7 6 4 8 6 4 5 6 9 18 23 24 25 28 29 28 25 20 13 9 6 9 15 17 16 16 17 17 16
10 7 14 12 6 10 3 5 4 5 7 3 6 8 6 2 1 6 5 4 4 6 7 5 11 19 23 27 28 29 29 28 26 20 14 16 16 20 22 23 22 20 19 19
6 5 15 15 10 7 9 6 3 3 4 3 5 6 6 5 4 5 7 6 6 6 3 5 7 15 21 22 25 27 27 28 26 25 27 27 24 22 17 17 17 18 18 20
6 14 11 15 16 10 4 6 6 3 3 2 1 2 7 1 5 6 7 7 6 6 6 6 8 16 17 20 23 26 28 28 27 27 26 25 23 18 18 19 20 21 21 22
4 5 9 7 4 11 6 5 2 3 2 2 6 7 5 4 6 4 4 6 7 7 6 5 12 17 18 20 22 24 26 26 24 24 24 24 23 22 23 24 26 25 26 26
1 3 3 7 6 3 5 7 2 1 1 6 1 2 8 4 5 8 12 10 8 7 7 6 7 11 17 18 19 21 23 23 22 23 23 22 22 22 23 24 25 27 28 29
7 6 8 5 6 6 7 8 5 6 4 4 3 6 5 2 6 7 9 10 8 7 6 7 7 12 18 18 18 19 20 21 19 20 20 20 20 20 20 20 20 21 21 22
9 5 2 4 5 12 6 9 4 5 2 1 3 7 8 4 6 3 10 11 9 8 7 7 8 14 16 17 16 16 18 18 18 17 17 18 19 19 18 19 20 22 23 23
7 5 1 2 6 3 7 8 2 2 3 4 4 5 5 5 2 3 8 10 8 6 7 7 8 14 16 15 15 16 16 17 16 15 16 16 17 18 20 21 22 23 23 24
6 4 2 6 5 8 2 4 4 4 3 4 1 5 5 5 4 8 7 6 8 8 7 7 8 14 15 14 13 15 15 15 15 14 15 18 20 19 20 21 21 22 22 24
3 6 6 2 1 4 4 7 6 5 4 1 3 6 2 6 5 7 7 6 7 7 7 7 11 15 13 13 13 14 14 14 14 13 14 16 18 20 21 21 22 23 25 26
7 2 5 2 1 2 4 4 4 5 3 6 5 5 3 6 6 6 8 8 8 6 7 6 8 9 11 11 12 12 12 12 11 11 14 16 18 20 21 22 22 23 25 26
7 3 6 9 4 6 5 5 5 6 4 5 6 4 3 3 5 4 4 4 7 7 8 6 6 8 11 10 10 10 10 10 10 13 14 16 18 18 19 20 23 24 25 26
4 4 3 3 4 4 7 9 10 9 7 7 5 8 3 4 4 3 2 2 5 6 7 8 7 6 10 10 8 7 8 8 10 11 13 15 17 18 20 22 24 25 27 28
3 2 3 2 3 2 2 4 8 4 4 2 5 4 3 2 3 2 2 2 4 6 7 7 7 9 10 9 7 4 5 6 8 9 12 16 18 20 21 24 26 28 28 30
5 5 3 3 1 2 4 8 8 5 4 7 7 7 4 3 5 3 3 2 3 5 7 8 7 10 11 9 5 3 3 4 6 10 14 16 18 21 23 25 26 28 30 32
5 4 3 3 2 1 3 1 6 6 2 4 6 5 4 5 3 2 3 3 6 2 6 7 11 13 11 7 4 2 1 4 10 12 13 14 18 21 23 25 26 28 30 30
3 5 3 5 4 4 0 4 7 6 3 2 7 5 4 3 3 3 3 3 4 5 8 14 17 14 10 6 3 1 3 8 9 11 14 16 18 21 23 26 28 28 30 31
5 6 4 2 4 7 1 2 4 4 2 6 6 6 5 3 2 3 4 3 3 7 15 17 14 12 9 5 2 1 5 7 10 13 15 17 18 21 25 24 25 28 30 28
3 3 4 2 2 5 3 3 2 5 3 4 6 5 5 4 4 1 3 2 6 9 13 13 11 9 6 3 1 4 6 8 11 13 16 18 21 23 22 24 25 29 30 27
6 6 4 3 2 6 2 4 6 3 3 6 5 4 4 4 2 4 5 6 7 9 11 9 9 6 4 2 2 3 7 9 12 15 18 20 22 23 24 23 27 29 27 26
1 4 4 6 4 0 1 2 4 4 6 5 4 5 4 3 1 2 3 6 7 9 8 6 6 6 3 1 2 6 9 12 14 17 20 23 25 24 22 23 26 24 23 23
1 2 2 3 2 2 4 4 4 4 5 4 3 3 3 2 3 1 3 5 5 8 8 6 6 5 3 2 4 7 11 14 16 19 22 25 24 25 25 24 24 23 22 22
3 4 4 1 2 2 1 2 5 5 5 5 4 3 3 2 0 1 3 5 8 10 9 7 5 3 3 5 8 10 12 14 17 20 23 24 25 25 27 24 22 23 22 22
4 6 5 5 6 4 4 5 4 6 5 5 3 2 2 1 2 3 3 6 10 10 9 7 4 2 5 9 11 12 14 15 17 21 20 23 21 24 24 24 24 19 21 24

GFSCGP_925_spd_009.txt.gz
Wind_Speed
15 10 11 15 14 4 6 6 9 2 2 1 4 6 14 6 4 5 4 7 7 6 3 7 14 17 20 23 24 25 24 19 16 16 15 18 18 18 20 20 19 19 18 17
9 17 15 11 10 6 5 4 4 3 1 2 6 14 13 4 4 4 10 9 9 7 5 8 12 19 23 23 26 29 28 23 23 22 18 18 19 24 24 23 22 21 20 19
19 7 14 13 9 9 4 5 4 4 3 1 5 6 5 2 1 4 5 8 8 10 9 6 12 15 19 22 26 28 30 30 26 24 23 25 24 21 20 21 21 20 19 19
11 11 16 15 15 10 10 4 3 3 4 2 4 6 5 5 2 4 6 8 10 10 7 6 11 13 15 21 26 29 30 31 29 26 26 26 21 16 14 16 17 18 19 20
6 11 21 17 14 10 4 6 3 1 3 1 1 2 6 2 3 6 8 7 8 9 9 8 9 12 16 20 24 27 28 28 26 25 24 24 21 17 16 17 18 19 20 20
1 4 12 8 9 9 9 7 5 4 2 3 5 6 5 3 4 5 4 7 9 10 9 7 10 13 16 19 22 24 26 25 24 23 22 22 20 17 17 19 19 18 18 18
3 5 4 5 10 2 4 6 2 1 4 5 2 1 8 3 4 7 14 13 12 11 11 9 9 11 14 17 18 20 22 22 21 22 22 20 19 19 19 18 18 19 19 19
5 5 8 9 6 7 6 6 4 5 4 2 3 5 5 2 3 4 6 11 11 11 10 10 10 12 14 16 17 19 19 19 19 20 19 18 18 18 17 16 16 15 16 16
10 3 2 6 5 10 4 5 3 4 2 1 3 5 7 1 3 2 10 13 13 11 10 10 11 13 13 14 15 17 17 18 17 17 16 17 16 17 16 16 16 16 16 16
6 5 2 3 6 4 7 8 3 1 4 3 3 4 4 4 4 3 7 13 10 9 10 9 11 13 13 14 16 15 15 17 16 15 14 15 15 15 15 15 17 18 18 18
6 4 0 6 5 9 4 2 2 3 2 3 1 4 4 5 3 6 10 9 11 11 11 10 12 13 14 15 14 14 14 14 14 13 13 13 14 14 15 16 17 16 16 17
7 5 4 3 0 3 5 8 9 4 3 1 2 5 1 5 6 7 9 9 8 8 9 10 14 14 13 13 12 13 12 12 11 10 10 12 13 15 16 15 15 16 17 18
6 1 5 4 1 4 4 4 5 4 3 6 5 4 2 2 3 3 11 8 8 7 10 10 12 13 12 12 12 11 10 9 8 8 9 12 13 14 14 14 15 17 19 20
4 3 5 7 4 6 5 4 4 7 4 5 6 4 3 1 5 5 5 6 8 8 10 10 10 12 11 12 11 10 9 6 6 7 9 10 11 11 12 14 17 18 20 21
2 3 3 2 2 6 7 9 11 9 10 9 7 8 7 6 6 6 5 5 6 7 10 11 11 10 12 12 11 9 7 5 5 7 8 10 10 11 13 16 18 20 22 22
3 3 3 2 2 4 4 6 13 10 4 6 5 7 5 3 5 4 5 5 5 6 9 11 11 14 13 12 11 8 5 5 6 6 8 8 11 13 15 18 21 22 23 25
3 4 2 3 1 4 3 10 10 7 5 12 12 10 7 4 6 5 5 5 5 5 9 11 12 13 14 14 10 7 4 4 4 6 7 10 12 15 18 21 23 24 24 26
5 5 2 3 2 1 4 1 6 7 4 5 3 5 6 7 5 5 2 3 4 4 6 8 12 15 15 12 9 6 3 2 3 5 9 11 13 17 20 23 24 25 23 22
4 5 3 4 4 4 1 4 6 8 6 6 8 6 6 5 4 3 3 3 2 1 4 11 19 19 15 11 8 5 1 1 5 8 10 12 15 19 22 23 24 24 23 25
4 4 4 1 4 6 1 2 4 4 4 8 7 7 7 5 3 2 2 2 5 7 11 17 17 16 13 9 6 3 1 3 6 9 11 14 16 19 21 22 24 25 27 24
4 3 6 4 2 6 4 4 4 4 3 5 6 6 6 4 2 3 3 4 7 9 13 15 15 13 10 8 5 2 1 4 7 10 13 15 17 20 21 24 25 28 27 23
6 6 4 3 2 7 5 4 7 3 4 6 5 4 5 6 5 4 4 5 6 9 12 13 13 11 8 6 3 1 3 6 9 12 13 16 20 22 23 24 27 25 23 23
2 4 4 6 4 1 2 2 3 4 6 4 6 4 6 6 4 5 4 5 6 11 12 11 11 10 7 5 2 2 5 8 10 13 16 19 22 23 23 25 22 22 21 21
2 2 3 3 1 2 3 4 4 4 5 6 5 6 4 5 5 5 5 5 7 13 13 12 12 9 6 4 1 4 6 8 11 15 18 22 23 23 24 25 22 20 21 21
3 5 5 2 2 4 2 2 6 7 7 8 6 4 5 5 3 3 4 5 9 13 13 12 9 7 5 3 3 4 6 10 13 16 20 22 25 25 24 21 19 19 19 20
4 6 5 5 8 4 6 7 6 7 6 5 5 4 3 2 3 3 3 6 10 11 11 10 8 6 4 3 3 5 7 10 13 17 16 21 18 20 19 19 21 17 19 22

GFSCGP_925_spd_012.txt.gz
Wind_Speed
20 11 20 24 21 16 19 18 15 13 6 6 13 16 14 16 10 11 8 9 8 8 7 8 9 10 12 14 16 16 16 14 13 14 15 14 15 15 16 16 16 16 15 15
17 21 24 17 22 20 17 15 15 10 5 6 13 17 17 17 11 8 10 12 12 11 9 10 11 13 15 16 18 18 18 18 15 14 14 14 15 16 15 15 15 15 15 15
21 20 26 13 25 21 15 15 14 9 4 7 9 18 11 5 5 3 7 11 13 14 12 11 12 13 14 16 16 20 20 19 18 17 16 15 15 14 12 12 12 14 13 14
20 17 20 18 19 22 16 11 7 7 2 5 3 5 9 8 6 7 11 13 13 14 12 11 13 14 15 15 16 19 19 19 18 16 16 15 14 13 11 11 10 10 12 13
13 26 16 19 17 23 15 11 10 4 6 4 9 6 5 3 7 9 13 15 14 13 13 12 12 14 14 13 15 17 19 20 18 17 15 15 14 11 9 8 9 9 10 11
12 3 17 15 16 20 13 12 7 3 1 7 11 9 5 4 2 9 14 15 15 14 13 12 14 15 14 13 14 15 17 17 16 17 16 16 13 11 8 9 9 10 10 11
13 12 9 14 14 4 15 15 3 5 4 6 3 7 11 4 2 9 17 17 16 15 14 13 13 14 14 13 13 14 15 16 14 15 14 13 12 10 9 9 10 11 12 12
7 6 14 13 17 7 12 16 4 5 6 5 3 6 1 5 2 5 13 17 16 16 14 14 14 15 13 12 12 13 13 14 12 12 12 11 10 9 9 9 10 10 10 11
5 1 3 13 6 15 5 6 2 2 1 3 5 4 4 2 2 5 12 17 17 16 15 14 15 15 14 13 12 12 13 12 10 10 9 10 9 9 8 8 8 8 9 10
12 3 5 6 8 5 8 12 5 3 5 5 4 4 2 2 0 5 14 19 18 16 15 13 13 15 13 13 12 11 11 11 9 8 8 8 8 8 7 7 8 8 9 10
7 6 2 12 6 14 10 7 4 3 3 3 3 3 3 4 5 5 12 18 17 17 15 13 14 14 13 13 11 11 10 10 8 7 6 6 6 6 6 7 8 9 10 11
7 3 8 5 3 7 12 10 11 6 5 1 4 2 3 4 5 5 10 16 16 16 14 13 15 16 14 13 12 10 10 9 7 6 5 6 5 5 6 7 9 10 11 12
10 6 8 5 3 2 9 11 16 10 2 11 8 3 1 2 2 4 11 15 15 15 15 13 14 15 15 14 12 10 9 8 6 5 4 4 5 6 7 8 9 10 12 12
5 5 12 11 6 11 14 20 19 18 11 9 11 7 6 4 4 7 11 14 14 14 15 14 13 15 15 14 13 11 9 6 5 4 3 3 5 6 7 8 10 10 11 13
4 3 6 3 2 15 18 19 20 20 21 13 15 18 16 9 9 10 12 13 14 13 14 14 14 12 16 15 12 10 8 6 4 2 2 3 5 6 8 9 11 12 13 14
5 4 3 3 3 10 14 20 22 23 21 23 18 18 5 3 9 10 11 12 13 13 14 14 14 16 17 15 13 10 8 5 3 2 2 4 6 7 9 10 12 13 14 15
13 4 3 3 3 5 8 19 20 19 21 22 19 21 10 8 10 11 10 9 9 9 11 14 14 15 16 15 13 11 8 5 3 1 3 4 6 8 10 12 13 14 16 17
9 5 1 3 4 5 1 3 17 22 18 20 18 5 12 11 10 9 6 8 7 5 8 10 13 15 15 14 12 10 7 4 2 1 2 5 7 9 11 13 14 16 17 19
3 4 3 3 8 6 3 5 7 12 15 16 17 8 11 14 12 7 5 5 5 3 4 10 14 16 16 14 11 8 5 3 1 1 4 5 8 11 13 15 17 19 19 20
3 6 4 4 3 4 3 3 6 6 8 12 14 15 17 14 10 6 6 5 7 7 9 13 15 16 14 12 9 7 4 2 1 3 5 7 9 12 15 16 19 19 20 22
4 4 11 8 2 7 2 6 5 6 1 9 12 14 14 9 4 11 8 8 8 10 13 14 14 14 12 10 7 5 3 1 2 4 6 9 10 13 15 17 19 20 22 23
10 8 5 6 5 9 6 5 6 4 8 12 13 12 11 12 9 9 8 9 9 11 13 13 13 12 10 8 6 4 1 1 4 5 8 10 13 14 16 17 19 20 21 22
6 3 3 7 4 2 0 2 2 8 13 9 12 10 12 10 6 8 7 8 8 11 11 10 10 10 8 6 4 2 1 3 5 7 10 12 14 15 16 17 19 20 20 20
2 2 2 4 2 1 1 5 5 10 11 10 12 10 9 9 8 6 5 6 6 9 9 10 10 8 7 6 4 3 3 4 6 9 12 14 15 17 16 17 17 18 19 20
1 8 6 1 1 5 3 5 10 11 12 12 9 7 8 9 7 5 4 5 6 9 9 9 8 8 7 7 5 3 2 5 8 11 13 14 15 17 18 18 18 18 18 18
6 6 5 3 12 2 13 11 12 14 11 10 12 7 5 5 5 3 3 4 7 9 11 10 8 7 8 6 4 2 4 6 8 12 12 14 16 17 18 20 22 17 18 20

GFSCGP_925_spd_015.txt.gz
Wind_Speed
21 12 18 27 25 23 22 20 22 21 20 17 17 21 20 18 17 15 11 10 10 9 7 7 8 10 12 13 15 15 15 14 15 15 15 14 15 14 15 15 13 13 12 12
18 19 26 28 22 22 23 22 22 14 15 11 14 17 19 17 18 18 13 13 13 11 10 10 11 12 14 16 16 17 16 15 15 14 15 16 15 15 14 13 12 12 12 13
24 22 28 28 24 22 26 24 19 16 13 11 13 18 21 19 22 9 11 12 14 14 13 12 13 14 15 16 16 17 17 18 18 18 19 18 16 14 12 10 10 12 12 13
18 26 19 27 27 24 19 17 16 15 8 8 9 7 12 14 13 12 12 14 15 14 14 12 13 15 15 15 16 17 17 17 15 14 15 14 13 13 10 8 8 8 11 11
11 9 22 26 25 27 12 22 16 12 8 4 12 6 14 11 15 13 14 15 16 15 14 14 12 16 15 14 15 16 17 17 15 15 15 15 14 11 9 7 7 8 8 10
19 12 21 22 23 21 9 19 13 7 3 7 13 13 11 12 14 16 14 16 16 16 15 13 15 16 15 13 14 14 16 16 15 16 15 15 13 11 9 9 8 7 8 9
9 14 18 13 14 19 13 17 6 5 4 6 5 11 13 10 6 7 16 17 18 16 15 14 14 14 15 14 14 14 14 15 14 14 14 13 12 10 10 8 7 8 9 9
9 9 14 17 7 10 12 17 8 7 9 12 7 7 4 8 4 9 14 17 18 17 15 14 14 15 15 14 13 14 14 14 12 12 12 11 9 8 8 8 8 8 8 9
8 8 12 13 10 14 7 10 2 3 7 8 8 10 7 5 6 8 15 18 19 18 16 16 14 16 15 14 13 13 13 12 11 10 9 9 9 9 7 7 7 7 8 9
4 2 6 3 11 6 8 8 7 3 7 5 8 6 6 10 8 10 14 19 18 17 16 15 13 16 15 14 13 12 11 11 10 9 8 7 7 7 6 6 7 7 8 9
2 2 3 5 5 13 6 3 5 3 2 3 6 4 11 5 3 8 13 18 19 18 16 15 13 16 15 14 13 12 11 10 8 7 7 6 6 6 6 6 7 7 8 9
11 6 4 5 6 13 10 9 13 6 5 5 4 5 5 4 2 5 12 16 18 17 16 15 14 17 16 15 13 12 10 9 7 6 5 5 5 5 6 6 7 8 9 10
9 2 3 6 7 3 5 11 16 13 6 11 7 5 4 5 6 6 11 16 16 17 16 15 14 14 16 15 13 12 10 9 7 6 4 4 4 5 5 6 7 9 10 11
6 8 7 6 7 12 9 15 16 15 10 11 11 4 10 6 6 8 11 14 16 16 16 15 13 12 16 15 13 12 11 9 7 5 3 3 4 5 6 6 8 9 11 13
5 9 4 3 3 16 17 19 20 19 18 12 12 15 10 6 8 9 13 15 16 16 16 15 14 12 15 15 14 12 11 9 6 4 3 3 3 4 5 7 9 11 12 14
12 4 2 3 2 6 13 18 20 22 23 21 19 16 6 2 4 9 12 15 16 15 15 14 13 13 15 16 14 13 11 9 6 4 2 1 3 5 6 8 10 13 15 17
7 4 3 3 5 5 9 19 19 19 21 20 21 18 15 6 8 10 10 13 13 13 13 13 13 12 15 15 14 13 11 8 6 3 1 2 4 6 7 10 12 14 17 19
13 9 3 2 5 6 1 2 17 21 19 20 20 15 5 8 7 5 4 8 8 7 8 9 10 13 14 14 14 12 10 8 5 2 1 3 5 7 9 11 14 16 19 20
8 7 4 3 6 9 12 3 5 16 19 19 18 16 6 11 14 8 6 8 8 8 8 10 12 14 15 15 14 12 9 7 4 1 2 4 5 8 10 13 16 18 20 22
2 8 3 1 3 4 5 2 0 6 9 5 16 13 15 15 8 6 9 9 9 10 11 13 15 16 16 15 13 11 8 5 2 0 3 4 6 9 12 15 17 19 20 22
2 2 4 2 4 7 5 5 4 5 3 3 4 11 15 12 4 16 13 10 11 12 15 15 15 15 14 13 11 8 6 4 2 2 3 6 8 11 13 16 18 20 22 23
9 7 4 6 3 7 7 5 4 3 5 6 9 11 12 14 13 13 12 11 10 11 14 14 14 13 12 10 9 7 5 3 1 2 5 8 10 12 15 17 19 20 22 23
8 8 8 7 4 3 2 3 2 5 9 9 12 12 14 14 12 11 10 10 9 12 12 12 13 13 10 8 7 6 4 2 2 5 7 10 12 14 15 18 19 21 21 21
3 1 2 3 3 2 5 2 2 8 9 11 12 13 12 13 11 11 10 9 8 11 11 11 12 11 10 8 6 4 3 1 3 6 9 11 13 15 17 18 19 19 20 20
1 8 6 1 2 3 4 4 8 10 12 13 11 10 11 11 10 9 7 7 8 10 10 11 10 10 9 8 5 3 1 2 5 8 10 12 14 16 19 19 19 20 20 20
6 5 5 3 10 3 8 13 13 13 13 12 13 11 8 9 8 6 5 5 7 9 10 9 9 9 8 6 4 2 2 3 6 8 10 13 15 17 18 19 21 19 21 22

GFSCGP_925_spd_018.txt.gz
Wind_Speed
12 10 16 22 22 19 16 18 15 17 15 21 21 22 12 11 13 10 9 7 9 10 10 8 10 10 11 13 15 17 19 19 20 21 23 22 22 20 19 17 14 13 13 13
13 21 25 14 15 18 20 22 21 11 20 19 21 19 13 11 16 13 11 9 9 12 9 7 11 14 15 14 16 17 19 21 22 23 23 23 22 18 17 16 15 12 14 13
18 19 17 17 19 20 24 20 17 15 20 7 7 10 11 11 13 12 9 8 12 16 11 8 9 15 16 16 18 18 20 21 22 24 24 23 22 18 15 13 13 12 13 14
15 19 19 17 24 20 23 23 22 20 16 9 10 4 16 23 17 13 9 7 14 14 12 8 9 15 17 17 18 19 19 20 20 19 21 18 18 17 14 13 11 11 12 13
9 10 14 18 22 16 20 14 23 24 15 6 6 4 9 12 18 14 9 9 14 14 13 10 9 18 17 16 18 18 20 21 20 20 20 20 19 15 13 11 11 9 8 9
12 7 12 20 19 22 17 15 21 23 6 5 11 7 6 7 12 12 9 10 14 14 12 11 20 20 17 17 18 19 20 20 20 20 20 19 17 14 13 11 9 9 8 8
14 18 10 14 11 16 25 16 7 6 3 4 16 7 9 4 7 15 14 13 14 13 12 12 10 13 17 17 18 18 20 20 20 20 18 17 15 13 12 10 9 8 7 8
8 10 15 19 17 10 24 8 4 5 8 5 8 7 4 6 8 11 12 14 14 13 12 12 9 16 19 19 16 18 19 20 18 18 16 15 13 12 11 10 8 8 8 9
3 8 6 12 10 12 7 12 20 8 7 6 5 3 4 8 6 10 13 15 15 13 13 12 11 19 20 19 18 19 19 18 17 16 15 13 12 11 10 8 8 8 8 8
3 7 2 9 15 14 8 7 9 4 7 7 6 8 5 9 8 7 13 15 13 12 14 11 10 18 21 20 20 18 17 18 16 15 13 12 11 9 8 7 8 7 8 9
6 4 4 6 9 12 7 3 11 4 2 4 5 2 9 9 11 11 11 16 15 13 14 12 9 21 22 21 19 19 18 17 15 14 12 10 10 8 6 6 6 8 8 10
9 3 4 1 6 14 11 4 5 1 2 1 3 2 6 8 7 9 9 15 14 12 12 11 11 19 22 20 19 19 17 16 14 13 11 10 8 5 5 5 7 7 9 10
11 6 2 4 4 4 9 9 4 8 3 3 3 3 6 7 7 4 9 12 13 12 11 10 11 11 18 21 20 19 17 16 14 12 11 9 6 5 4 5 6 8 10 13
10 4 2 2 5 8 7 8 6 8 2 2 2 7 6 7 9 7 9 10 13 13 13 10 11 8 18 21 21 19 18 16 13 12 10 8 4 3 3 5 7 10 12 14
3 3 10 20 13 17 16 16 15 10 8 1 4 6 9 10 11 9 7 10 13 13 13 12 11 9 16 21 20 19 18 15 13 11 9 6 3 3 4 6 8 11 13 16
10 5 15 9 8 12 11 13 14 11 7 8 9 7 4 6 9 10 10 10 13 13 13 11 11 9 15 21 22 21 19 15 12 10 7 4 2 2 4 7 10 13 15 18
5 5 5 3 3 5 1 12 13 11 10 8 12 8 3 6 8 9 10 10 9 9 11 10 9 9 18 23 24 22 18 15 12 10 6 3 1 3 5 9 11 14 17 20
8 3 3 1 1 1 2 2 8 11 7 10 9 6 2 7 9 12 6 8 9 10 11 9 8 16 22 24 23 20 18 14 11 8 5 2 1 4 7 10 13 16 19 21
7 4 3 1 2 5 1 2 1 5 10 7 7 9 11 10 7 8 10 10 9 9 7 10 19 25 26 24 24 22 17 13 10 7 4 1 3 5 8 12 15 18 21 23
2 5 1 3 1 2 2 2 6 2 2 7 5 8 14 7 5 4 7 9 10 11 17 18 25 25 25 23 21 19 15 11 9 5 2 1 4 7 10 13 17 20 22 23
3 2 4 3 2 5 2 1 5 4 3 7 6 10 11 5 1 12 11 10 11 14 19 24 23 21 22 20 19 18 13 10 7 3 1 2 5 8 11 15 19 21 21 23
4 6 4 3 1 6 4 3 2 2 3 4 8 9 17 15 14 13 12 10 10 9 16 20 20 21 18 16 17 14 12 8 5 2 1 4 7 11 14 15 19 19 21 23
6 5 6 7 6 2 4 3 0 2 4 6 10 11 16 14 13 11 10 10 8 11 15 19 19 20 15 13 12 13 10 6 3 1 3 7 10 14 14 17 18 21 21 22
3 1 2 4 3 4 5 3 1 5 8 8 9 11 12 14 11 11 9 8 7 11 13 20 20 17 15 12 11 12 8 5 2 3 6 10 12 13 16 19 19 21 23 22
2 6 6 2 3 3 2 4 7 10 10 10 9 10 11 12 9 9 8 7 7 12 13 17 16 17 15 12 10 8 6 3 4 6 8 10 11 15 18 20 20 22 23 21
4 5 4 4 8 4 5 8 10 13 10 9 14 10 9 9 9 8 7 9 13 14 14 12 15 19 16 13 10 6 4 3 5 6 8 11 13 18 20 21 25 20 19 22

GFSCGP_925_spd_021.txt.gz
Wind_Speed
6 7 9 12 14 8 5 8 11 6 9 10 18 18 20 15 15 10 9 8 7 8 8 15 13 10 12 11 13 17 26 30 30 31 29 27 25 22 19 17 13 12 12 11
6 18 12 8 10 10 13 14 20 15 14 11 14 19 23 17 13 12 10 9 11 8 8 9 15 14 15 14 15 19 22 24 26 27 24 26 25 20 19 17 15 13 12 11
17 3 20 14 12 13 15 16 16 15 14 16 10 16 23 15 19 14 11 8 17 18 14 9 11 18 19 20 22 24 25 28 27 26 26 26 25 22 19 15 14 12 12 12
14 20 13 15 18 12 16 13 15 17 11 10 3 8 16 17 14 9 12 9 17 12 11 10 12 16 20 19 21 23 26 29 28 26 29 29 26 21 16 14 12 10 10 12
8 10 19 20 20 12 18 5 11 12 14 14 19 8 7 8 20 19 17 11 17 17 18 15 14 21 20 20 22 23 23 24 26 26 25 25 22 19 18 15 13 9 8 10
15 2 5 14 14 11 2 1 12 8 9 12 20 14 6 8 20 20 13 16 17 15 14 14 20 27 23 23 24 26 28 26 26 26 25 24 23 21 18 14 12 8 6 8
6 15 2 3 3 2 5 4 3 6 6 13 10 13 15 5 11 13 16 20 18 17 17 17 16 16 22 24 25 26 27 26 26 25 24 21 19 17 15 11 9 6 5 8
4 5 13 12 19 9 13 15 7 7 8 8 10 8 7 19 8 11 19 23 20 18 16 16 15 18 22 25 24 26 26 25 23 22 21 19 17 16 13 10 8 7 7 7
5 6 2 8 13 20 10 13 25 6 5 5 5 8 4 2 8 17 18 20 19 17 16 16 15 21 25 25 27 27 26 24 22 20 19 18 15 13 12 9 7 7 6 6
2 7 7 14 13 16 13 15 10 5 5 5 9 5 5 6 10 15 18 19 16 16 16 15 14 20 25 27 27 26 24 24 21 19 18 17 15 12 10 7 7 6 5 7
8 6 4 1 7 15 9 4 8 3 7 4 5 5 5 12 15 17 17 17 18 18 16 15 14 21 26 29 29 27 25 24 21 19 17 16 14 10 7 6 5 5 5 8
10 3 5 9 8 12 10 12 13 7 10 5 4 3 3 9 9 13 14 15 15 16 14 14 14 20 23 26 28 28 25 22 21 18 16 15 12 8 6 4 4 5 7 9
9 4 3 4 3 9 10 12 8 9 13 3 5 4 2 7 8 8 14 14 14 15 15 15 13 13 20 23 28 27 25 22 21 18 16 13 10 7 4 3 4 6 9 11
12 5 7 4 3 6 7 14 14 13 3 1 1 6 2 5 8 9 14 16 16 17 17 15 13 12 19 23 26 26 25 22 20 18 15 12 8 5 3 3 5 7 10 13
7 5 8 13 16 8 8 12 19 15 6 4 4 5 8 10 10 10 13 14 15 16 16 17 16 13 17 22 26 27 25 22 20 17 13 9 6 3 2 3 6 9 11 14
9 5 10 10 7 14 9 14 9 6 4 2 3 3 2 4 7 7 14 17 17 15 15 14 15 14 17 22 24 28 26 21 18 15 12 8 5 2 2 5 7 10 14 16
8 4 5 3 5 7 2 10 5 4 2 5 2 5 5 6 8 9 10 15 15 14 14 16 16 15 20 24 30 29 26 22 17 14 10 7 4 2 3 6 9 12 15 18
5 1 2 3 3 1 5 3 8 13 5 7 3 3 3 8 5 6 2 11 14 15 15 14 12 17 23 28 30 30 25 21 17 13 9 5 2 1 4 8 10 13 17 19
5 4 1 2 3 5 4 4 2 7 7 3 10 6 10 8 6 8 8 5 6 8 9 11 19 25 28 30 32 28 23 19 15 11 8 4 0 3 6 9 12 15 18 21
6 2 2 2 1 2 3 4 2 0 2 4 1 8 14 7 5 3 4 9 13 12 17 21 25 28 32 29 31 27 22 17 14 10 6 2 1 4 8 11 14 16 19 22
4 2 5 2 1 7 4 4 4 3 3 5 3 8 8 5 2 9 8 11 12 17 21 25 24 24 28 29 27 23 19 15 11 7 4 1 2 6 9 13 14 19 21 23
6 5 3 3 1 6 2 2 2 3 3 4 6 9 15 15 15 12 11 11 13 13 18 23 23 23 25 23 23 20 16 13 9 6 3 1 4 7 9 12 18 21 21 21
4 6 5 7 6 1 3 3 2 3 4 3 9 8 17 15 13 12 10 11 10 14 17 20 22 22 19 21 19 19 14 11 7 5 2 2 5 8 10 16 18 19 20 23
3 4 4 3 4 3 3 2 3 4 7 8 10 11 13 16 12 12 11 9 9 13 15 21 23 20 19 17 15 15 12 9 6 4 1 3 7 10 14 16 17 18 22 24
4 6 5 1 1 3 1 2 6 9 10 12 9 11 13 16 11 12 10 8 8 13 17 21 19 19 19 18 16 12 10 7 5 2 2 6 10 12 15 16 17 19 18 19
4 6 5 5 8 4 3 8 9 12 10 11 15 10 7 10 11 10 9 9 13 15 19 19 19 20 18 16 13 10 8 5 3 3 6 9 11 14 14 19 23 20 16 19

GFSCGP_925_spd_024.txt.gz
Wind_Speed
2 4 10 15 9 6 7 5 7 3 8 7 11 16 17 14 13 11 11 10 8 9 5 12 13 12 12 12 12 15 20 25 32 33 30 29 26 23 20 18 14 12 10 9
4 11 10 7 8 9 11 13 15 8 9 9 11 16 13 16 15 15 18 11 9 6 7 7 12 13 14 14 15 21 27 30 32 32 28 29 28 22 21 19 16 13 11 10
12 6 14 12 12 11 14 17 11 12 11 15 12 22 14 15 13 15 17 13 9 16 13 8 8 15 17 18 21 25 28 29 31 30 31 29 26 25 23 19 17 13 11 10
12 15 9 16 14 11 15 11 11 9 7 5 4 10 10 6 16 15 20 11 12 15 8 6 7 12 22 22 23 26 29 29 29 30 31 31 28 25 20 18 16 13 10 9
8 8 19 20 15 13 9 5 5 3 8 8 16 8 6 9 11 16 20 15 15 18 17 15 12 18 24 26 27 29 31 31 29 27 28 28 26 24 21 18 15 11 9 8
8 1 7 12 14 13 3 4 3 2 1 9 22 11 11 10 16 16 18 13 15 17 13 10 14 20 24 27 29 29 30 27 27 27 27 28 28 26 23 18 14 9 7 6
6 15 4 3 6 8 11 6 3 4 6 12 10 11 22 8 13 13 16 12 15 17 17 15 15 14 20 27 31 29 31 28 28 28 27 26 25 23 20 16 12 8 5 5
6 4 16 9 15 5 13 15 4 7 4 6 6 10 10 14 25 19 9 15 18 18 17 17 15 18 20 27 31 31 32 30 30 29 26 24 22 20 17 13 10 7 5 4
5 5 3 6 7 12 6 10 22 5 4 4 5 6 10 9 9 7 10 17 20 19 19 17 14 20 22 26 31 34 33 31 30 29 26 23 20 18 16 12 9 6 4 3
5 2 6 5 4 9 14 7 5 5 6 10 7 5 10 13 13 6 15 19 17 16 16 15 14 18 20 27 31 31 31 30 28 27 24 22 19 16 13 10 7 5 3 3
5 4 2 5 10 14 9 11 10 6 6 5 4 7 10 15 12 13 13 17 20 19 17 15 12 18 22 29 31 30 29 29 26 25 23 21 18 15 11 8 6 4 2 4
10 4 8 20 11 11 15 17 19 7 13 4 2 8 1 8 15 17 16 14 14 16 16 14 14 19 21 25 29 30 29 28 25 23 22 19 16 13 9 7 4 3 3 5
8 5 4 7 7 11 10 17 12 12 2 18 3 7 5 8 8 8 15 13 14 15 15 13 13 13 19 21 26 29 28 27 25 23 21 18 14 11 8 5 3 3 5 7
13 4 7 6 4 5 10 21 20 12 7 14 15 20 2 7 10 9 10 14 15 16 16 14 13 12 18 21 25 29 27 27 25 22 19 16 12 9 6 3 2 3 6 9
9 5 9 17 23 17 15 19 22 15 12 9 7 8 4 9 12 13 13 13 15 15 15 15 14 12 16 20 25 28 28 27 24 21 17 14 10 7 4 2 2 4 7 10
6 4 3 13 21 18 14 17 21 18 15 16 22 6 4 4 7 8 13 16 16 16 16 15 14 14 16 22 24 28 29 26 23 20 16 12 9 6 3 1 3 7 10 13
5 3 3 6 9 11 8 14 21 15 16 21 9 4 3 4 7 7 11 15 17 17 17 16 16 15 20 22 30 30 30 26 22 18 14 11 7 4 1 2 5 8 12 15
5 9 5 2 1 2 3 3 16 20 10 6 4 5 2 4 5 7 2 9 13 15 15 14 12 16 21 26 28 32 29 25 21 17 13 9 6 3 2 4 7 10 14 16
8 1 3 2 3 5 4 5 1 4 3 1 4 4 5 7 4 5 5 2 5 8 10 13 20 23 27 30 33 32 27 23 20 16 12 8 4 1 2 6 9 12 15 17
7 4 1 4 2 2 3 4 2 1 2 2 1 8 9 6 4 3 3 3 10 10 16 20 24 27 29 28 34 31 26 22 18 14 10 6 3 1 4 8 11 13 15 17
3 2 5 2 2 7 5 3 1 2 4 2 2 6 7 5 1 8 7 10 10 14 20 24 24 24 27 33 32 26 23 19 15 12 8 5 2 3 6 9 11 14 16 18
5 4 3 2 1 5 2 4 1 3 3 3 2 3 10 12 12 11 11 12 13 15 19 22 24 23 28 29 27 25 20 16 13 10 7 4 2 4 6 9 12 14 15 19
4 6 4 6 5 2 2 2 1 2 3 3 6 9 17 15 11 11 10 11 11 14 18 21 26 26 24 23 24 23 18 15 11 9 6 3 3 4 7 10 13 16 19 20
3 3 2 2 2 1 1 2 3 3 5 7 8 11 12 17 11 11 11 10 10 14 17 22 24 20 20 19 19 19 16 12 10 7 4 3 4 6 9 10 13 15 17 18
4 5 5 4 3 1 3 1 6 8 10 11 9 9 13 16 11 12 10 9 9 15 18 22 21 21 20 20 19 15 12 10 9 6 3 3 5 8 10 12 14 15 15 16
5 6 5 5 7 4 2 7 8 11 10 9 14 11 8 10 12 10 9 11 15 15 20 20 22 23 21 19 16 13 10 7 6 4 3 4 7 9 11 14 18 18 13 16

GFSCGP_925_spd_027.txt.gz
Wind_Speed
2 3 10 12 8 4 5 4 4 4 6 5 9 15 12 8 10 17 11 11 13 10 7 10 13 13 12 13 16 17 20 27 32 32 31 31 30 25 21 18 16 13 11 10
2 13 8 7 7 10 8 12 16 6 7 6 10 21 17 15 16 13 13 14 15 6 6 7 12 13 14 16 16 18 22 29 33 34 31 32 33 25 22 20 17 15 13 10
12 4 12 6 8 9 11 16 16 16 11 10 11 24 18 14 19 16 16 15 13 12 11 8 9 17 16 18 18 22 26 30 31 34 32 32 27 27 24 20 19 16 12 10
10 11 14 8 11 11 16 8 11 10 5 7 3 9 7 5 15 19 18 17 14 10 9 9 7 11 20 19 20 24 27 30 32 33 36 36 31 24 20 21 19 16 11 10
6 4 10 17 13 10 7 5 8 7 5 6 14 6 6 8 16 15 8 14 12 11 13 12 13 17 24 24 25 27 29 31 32 33 34 31 30 27 26 22 19 15 12 9
9 4 5 8 16 10 2 5 7 3 3 10 9 10 11 10 13 8 9 11 11 11 13 9 11 18 22 24 28 29 32 31 30 29 28 29 31 32 28 22 18 14 11 8
4 12 2 4 8 8 13 6 3 5 6 8 6 10 23 9 6 5 10 11 11 9 13 15 15 12 20 27 30 31 32 28 26 26 26 29 30 29 26 21 17 14 10 7
7 6 16 7 10 7 16 13 4 6 5 4 11 11 13 14 23 24 24 16 8 12 14 17 18 16 20 26 31 30 32 30 28 27 27 26 26 24 21 17 14 11 9 6
4 6 4 8 10 11 6 11 17 5 3 3 5 8 8 13 13 10 11 9 11 14 15 17 16 17 21 25 29 33 33 31 30 29 28 26 24 22 20 16 13 10 8 6
3 4 6 6 11 10 9 6 4 5 5 6 9 8 11 5 17 23 12 12 10 13 15 14 13 18 20 26 30 30 32 33 31 30 28 26 23 19 17 14 12 9 7 4
7 5 2 7 12 14 9 7 5 2 4 4 5 8 9 15 18 17 10 9 15 16 17 15 13 17 22 28 30 31 32 33 31 29 27 25 22 18 15 12 10 7 5 3
12 4 6 17 4 15 16 17 16 7 7 9 8 16 5 8 12 9 9 12 11 12 13 14 14 18 21 23 27 30 32 32 30 28 26 24 20 16 13 10 8 6 4 4
10 4 4 2 7 10 8 10 16 17 7 10 6 13 8 10 11 4 13 13 14 14 14 13 13 12 17 21 25 29 30 30 28 27 25 21 18 14 11 9 7 5 4 4
11 5 8 7 5 3 6 13 18 20 12 14 19 26 22 21 13 5 8 13 15 14 15 14 12 11 16 20 24 28 29 29 28 25 22 19 16 12 10 8 5 4 4 6
8 6 10 17 22 16 8 9 20 20 18 15 13 15 22 17 18 6 6 14 16 14 14 13 13 11 15 19 23 27 29 29 27 24 21 17 14 11 9 6 4 4 5 8
6 4 2 11 18 23 16 14 18 23 21 21 14 18 19 16 7 8 12 15 15 14 14 13 13 13 14 21 23 27 30 29 26 23 19 16 13 10 7 5 3 4 6 8
4 3 3 8 7 8 5 17 16 19 17 13 11 16 15 12 8 13 14 14 16 16 15 15 15 14 19 22 28 29 32 29 25 22 18 15 12 10 6 4 3 4 6 10
5 3 3 5 3 2 4 9 13 17 11 11 14 19 16 14 2 5 3 8 11 13 13 12 11 16 21 26 28 32 31 28 24 20 17 14 11 8 5 3 3 5 8 12
9 2 4 4 3 3 1 6 7 10 12 22 23 18 8 6 3 5 4 4 6 10 11 12 20 22 27 29 32 33 29 26 23 19 16 12 9 7 4 2 4 7 10 12
8 6 3 4 4 3 1 1 2 10 3 8 20 16 8 6 3 3 2 4 8 11 16 20 24 26 28 28 34 32 28 25 21 18 14 10 7 6 3 4 5 8 10 13
3 3 5 3 3 7 4 6 2 4 3 3 5 7 5 4 1 5 6 9 7 12 19 25 23 23 26 31 33 28 26 21 18 16 12 10 7 4 4 4 6 9 11 14
4 4 3 2 2 4 6 6 4 2 3 3 1 3 10 10 8 9 10 11 12 14 17 21 23 22 26 31 32 26 23 19 17 15 12 9 6 4 3 6 8 10 13 15
3 4 3 6 5 3 2 1 2 1 2 3 3 7 15 13 10 10 11 12 11 12 18 20 25 25 26 27 28 26 21 19 16 13 11 8 5 3 5 8 11 14 14 15
3 3 2 2 2 3 2 1 3 5 4 6 7 7 10 17 12 12 12 11 11 14 18 23 25 22 22 21 22 24 20 16 14 12 9 6 4 4 6 7 10 12 14 16
4 4 4 4 5 3 2 1 5 7 8 12 9 8 12 16 11 11 10 11 10 16 18 21 22 21 22 23 22 19 16 14 13 10 7 4 4 6 8 9 10 12 13 14
5 6 4 5 3 2 1 6 6 8 8 9 13 11 9 11 14 12 10 11 14 16 20 21 23 26 24 23 20 16 13 11 10 8 5 5 6 8 9 11 14 13 10 14

GFSCGP_925_spd_030.txt.gz
Wind_Speed
2 3 7 10 8 10 4 3 9 4 7 7 12 17 18 14 12 13 13 12 11 11 12 18 18 13 13 15 13 13 19 25 32 33 33 29 31 28 26 23 19 16 15 13
1 10 8 5 4 5 8 13 19 13 12 10 13 24 20 17 20 18 15 16 12 10 7 7 11 13 17 17 17 16 21 28 32 34 32 33 34 27 27 22 19 16 16 15
7 3 7 9 6 5 6 11 8 14 9 12 12 25 17 18 21 23 20 19 16 12 12 8 8 19 18 19 20 21 23 30 32 33 33 34 28 28 26 23 21 18 16 15
8 9 10 5 5 8 13 8 14 13 6 7 3 10 5 4 10 11 15 13 14 14 9 8 8 11 22 22 19 21 25 29 30 34 38 43 31 26 21 27 24 20 15 14
5 4 7 14 12 7 4 6 8 10 8 6 8 6 5 5 8 9 9 11 14 16 15 13 12 21 26 22 22 22 25 28 31 35 39 37 30 21 31 28 24 20 17 13
11 3 3 6 7 14 3 4 4 3 4 11 11 9 13 7 9 8 9 11 14 12 10 12 12 18 22 21 23 25 28 28 31 33 35 35 35 35 33 28 24 20 16 13
4 12 6 4 4 7 9 3 3 5 6 7 7 11 22 6 8 8 10 11 10 9 8 9 11 11 20 25 28 28 30 30 30 31 31 29 31 34 33 28 24 20 16 13
3 5 12 12 16 7 17 10 5 5 4 4 5 8 9 9 16 18 16 14 6 6 7 10 12 12 22 25 31 28 31 32 29 28 27 28 30 31 28 24 20 16 14 12
4 6 2 5 6 9 5 11 14 5 3 3 5 8 10 9 10 12 8 11 13 8 9 11 11 16 21 25 29 34 33 31 29 27 28 29 30 28 26 21 18 16 13 11
1 6 3 3 3 10 8 1 4 6 5 5 6 7 12 9 17 14 11 12 10 7 8 9 10 12 18 21 28 32 34 33 31 30 31 30 29 26 23 20 18 15 13 10
6 4 1 5 9 11 8 9 6 3 4 4 4 6 6 11 7 9 16 12 9 12 14 12 10 15 22 23 27 32 33 35 33 32 32 30 27 25 22 19 16 13 11 8
9 3 6 15 10 16 18 13 17 7 6 4 3 17 6 5 6 7 13 10 4 8 9 11 11 15 20 23 25 29 32 36 34 33 31 29 27 24 21 18 15 12 10 7
9 5 4 4 3 8 9 18 20 19 8 14 4 14 8 12 10 5 5 4 4 6 9 11 13 13 15 19 24 27 31 35 34 33 31 28 25 22 19 17 14 11 8 6
12 5 8 12 10 3 6 16 18 17 10 14 16 23 19 15 16 7 3 5 6 7 11 9 11 12 16 20 24 27 30 34 34 31 29 26 22 20 17 15 12 9 7 4
7 7 12 21 23 18 12 12 20 19 23 12 11 18 25 18 11 6 6 7 9 11 11 10 11 12 15 20 23 27 32 33 32 30 27 24 21 18 16 13 11 8 5 4
5 5 3 17 19 18 24 24 18 21 21 21 19 22 13 9 11 12 7 10 12 12 11 11 12 12 13 20 22 27 31 32 30 28 25 23 20 17 14 12 9 7 5 4
3 3 3 9 6 12 5 10 18 14 11 17 15 23 10 13 14 12 9 12 13 13 15 13 13 13 18 22 28 28 33 31 28 26 24 21 19 16 13 10 8 5 4 5
5 3 3 6 9 4 4 4 5 13 9 16 15 16 11 11 12 8 6 11 10 12 13 12 11 15 20 26 28 33 32 29 27 25 22 19 17 14 11 8 6 4 4 8
14 3 3 4 6 6 4 1 3 5 6 12 18 14 12 3 4 3 3 4 8 11 11 11 19 22 26 29 33 33 30 28 25 23 20 17 15 13 10 7 4 4 6 8
9 10 2 3 4 4 5 5 2 3 6 11 14 14 4 4 5 1 1 4 10 12 16 19 23 25 27 28 33 32 28 26 24 21 19 15 13 11 8 5 4 5 7 9
2 3 4 4 3 7 5 8 4 4 4 3 10 11 6 4 2 6 4 9 7 11 18 23 22 21 25 31 32 27 28 24 22 20 18 15 12 9 7 5 4 6 8 11
6 3 3 2 2 4 4 4 2 3 3 3 2 2 5 7 7 3 7 9 11 13 15 20 22 21 25 30 33 27 25 23 22 20 17 14 10 8 5 4 5 7 10 12
3 5 3 6 5 4 3 3 2 2 1 3 2 4 10 11 5 6 9 10 10 11 16 20 24 25 25 27 32 29 25 24 22 19 15 12 10 6 4 5 7 9 11 13
3 3 2 3 3 4 4 1 3 4 3 3 7 8 8 13 9 11 10 10 10 12 16 22 24 22 21 25 27 29 26 22 20 17 14 11 7 5 4 5 8 10 13 15
4 3 3 4 7 5 4 2 4 6 7 10 10 9 11 13 11 10 10 11 10 15 18 21 23 23 24 29 28 24 22 19 18 15 12 8 5 4 5 7 9 12 13 12
5 6 4 4 4 2 0 5 6 6 6 8 13 12 10 10 14 12 11 11 15 17 21 23 24 28 28 29 25 20 17 14 15 13 9 6 4 5 8 11 13 11 11 14

GFSCGP_925_spd_033.txt.gz
Wind_Speed
2 4 9 13 7 4 1 3 10 7 6 11 16 22 19 18 18 18 17 17 16 15 15 20 24 22 18 19 18 18 20 25 28 31 32 27 28 26 26 27 27 24 21 18
2 9 8 3 4 6 9 14 16 15 14 11 17 27 18 18 21 20 21 19 18 18 14 12 18 19 20 21 19 18 20 25 28 30 25 23 31 26 28 28 25 23 20 16
6 3 5 9 4 6 7 11 10 13 10 13 17 25 17 15 18 19 21 21 21 20 17 16 13 18 21 21 24 21 22 26 29 32 32 30 28 29 25 25 24 21 20 18
5 5 4 4 4 9 13 8 12 12 7 6 3 11 9 6 12 11 13 15 18 20 18 19 14 15 22 28 25 22 23 28 30 33 36 43 30 26 21 30 27 24 20 18
4 4 4 11 13 9 6 5 8 8 8 11 13 7 8 2 5 8 10 14 15 17 17 19 16 22 27 27 27 25 25 28 31 34 37 33 28 23 32 31 28 25 22 18
6 2 5 7 7 13 2 3 6 4 7 9 11 11 19 7 7 5 11 10 10 13 14 14 13 17 16 25 25 25 28 28 31 34 35 36 39 37 36 33 30 26 23 19
5 16 8 4 3 4 11 4 2 4 6 8 5 11 21 8 18 16 12 12 13 9 9 9 10 11 16 23 27 27 28 28 30 32 33 34 35 39 41 36 34 30 24 20
4 5 11 10 15 5 13 11 5 6 5 5 2 9 10 13 16 15 10 9 10 7 7 9 12 11 19 23 27 26 29 29 29 30 31 31 34 35 35 34 32 26 23 20
5 5 1 4 4 10 5 10 8 8 13 10 8 13 11 14 11 10 7 7 12 13 10 11 11 14 19 22 27 31 32 30 31 31 32 31 32 33 35 32 27 25 22 19
1 4 4 2 3 9 8 2 4 5 5 9 5 7 11 7 10 10 4 7 9 10 9 9 11 14 19 20 21 25 30 33 32 32 32 33 35 35 33 30 27 24 21 17
4 3 1 4 10 11 8 8 7 3 5 6 9 10 7 10 10 6 4 6 8 10 10 9 10 13 17 20 23 24 30 34 32 34 35 38 37 33 30 28 24 22 19 15
8 3 5 12 9 15 16 12 17 8 10 6 5 20 3 6 5 3 7 6 7 7 3 7 10 14 20 21 22 24 27 30 33 37 40 38 36 32 29 26 22 19 17 14
7 4 4 8 2 3 10 19 20 17 9 16 5 11 2 5 4 4 7 6 4 1 6 9 12 12 16 21 23 25 28 31 36 38 39 36 34 31 27 24 21 17 15 12
10 5 7 10 14 1 7 18 19 20 10 15 19 28 20 14 13 14 10 6 5 5 7 9 10 12 17 22 24 25 28 33 37 38 37 35 31 29 26 22 19 16 13 10
8 6 11 22 24 24 26 27 21 22 28 14 16 19 27 16 16 9 6 5 5 7 8 9 11 12 16 21 23 26 30 35 37 36 34 31 29 26 24 21 18 15 11 8
4 4 4 20 22 22 21 25 21 20 23 19 19 22 20 16 7 5 10 8 8 9 9 11 12 14 15 22 24 27 29 32 36 34 33 30 28 25 22 19 16 12 9 6
4 3 3 11 11 20 6 8 7 7 13 15 14 17 8 11 7 10 14 8 10 11 12 13 14 13 17 22 27 27 30 35 34 33 30 28 26 23 19 16 13 10 7 4
6 2 3 7 9 4 5 4 8 3 12 15 13 13 8 8 9 11 8 8 9 11 12 13 12 16 20 24 25 32 33 32 32 30 28 26 23 21 17 14 11 8 5 3
14 7 4 4 6 10 2 3 5 2 3 15 18 14 10 4 5 2 5 3 8 10 11 12 18 21 24 26 30 32 29 30 30 28 26 23 21 19 16 12 9 6 4 4
9 11 3 3 4 4 4 7 4 4 8 2 10 9 3 2 3 3 7 3 10 12 17 20 23 23 24 24 31 30 25 26 25 26 24 21 18 16 13 10 7 4 4 5
3 3 7 6 4 7 4 9 1 5 3 4 2 4 3 1 2 2 5 10 8 12 20 23 23 22 23 28 31 25 24 21 26 26 23 20 16 14 11 8 5 3 4 7
5 4 3 2 2 6 2 4 4 3 5 3 2 2 4 7 8 8 9 9 11 13 17 21 22 21 22 28 31 24 24 27 27 25 22 18 15 12 9 6 4 4 7 9
2 5 3 6 5 4 3 4 2 2 4 3 2 0 4 7 6 9 9 10 9 11 16 19 24 24 22 24 31 29 28 29 27 23 20 17 13 9 6 4 4 6 8 10
3 3 2 2 4 5 4 1 3 4 3 4 5 6 5 9 9 12 11 9 9 13 16 22 25 22 21 26 29 33 30 27 24 22 18 14 10 7 5 4 5 7 9 10
4 3 3 5 7 6 3 3 3 4 5 9 10 9 11 13 11 10 10 10 10 16 19 21 23 23 23 31 32 29 26 23 22 19 15 11 8 5 4 5 6 8 10 10
5 6 4 4 2 2 1 4 4 3 5 8 13 12 11 12 13 12 11 12 16 19 22 24 24 27 26 31 28 23 20 19 20 17 12 8 6 4 5 7 9 9 9 11

GFSCGP_925_spd_036.txt.gz
Wind_Speed
6 7 11 14 14 12 5 7 11 10 9 17 19 22 21 21 24 24 23 22 23 23 20 24 23 21 19 20 20 19 16 15 18 21 24 25 24 18 18 18 22 27 26 23
6 12 12 8 11 13 14 16 17 15 13 14 19 33 24 25 29 26 25 25 25 25 24 23 26 27 23 21 20 19 18 18 21 20 22 21 19 14 22 23 23 25 25 22
8 3 3 14 11 13 16 16 15 17 16 18 21 27 15 8 14 17 22 25 25 25 24 23 24 28 26 23 21 19 18 19 21 21 20 18 17 19 16 20 24 22 24 22
9 11 7 9 12 13 14 8 12 13 8 6 3 12 18 16 15 14 15 16 18 19 20 22 22 25 29 26 21 19 19 21 22 25 23 25 22 22 19 21 23 25 22 20
4 6 10 14 15 10 7 5 7 8 11 14 15 7 14 5 13 12 16 17 14 14 16 19 20 26 26 25 22 21 21 22 23 25 23 24 21 20 23 20 25 26 24 21
10 2 5 10 9 13 2 6 9 10 6 8 17 16 20 14 12 10 9 9 10 10 12 15 19 20 23 23 20 22 24 24 23 25 24 27 28 29 28 25 30 29 23 18
8 17 8 8 7 8 10 3 3 4 6 8 2 10 22 10 5 13 20 19 13 14 13 13 13 14 19 21 21 23 24 24 25 25 26 26 27 28 31 32 35 24 25 17
5 4 14 11 15 5 15 9 5 6 6 8 4 11 10 11 10 16 17 12 11 12 12 13 13 12 18 23 25 25 26 24 25 25 26 24 27 27 31 30 31 23 19 17
5 4 2 9 4 11 5 9 12 14 20 15 11 22 24 25 22 20 20 17 10 10 13 11 13 11 16 20 25 27 27 25 26 26 26 25 29 31 27 33 29 23 17 17
2 4 5 3 5 11 12 3 4 6 5 10 13 20 14 14 9 7 9 9 8 11 14 12 10 10 15 19 23 23 23 24 26 27 26 25 28 30 34 33 28 21 18 17
6 4 3 3 11 13 10 8 7 8 9 6 14 9 2 10 10 15 4 4 9 11 14 13 9 9 13 17 21 23 24 26 26 25 25 27 32 34 32 26 21 20 18 16
11 4 8 15 11 13 15 15 19 9 13 11 16 23 7 12 9 4 4 9 9 11 11 10 5 7 13 18 21 24 25 25 25 26 28 29 34 32 26 23 20 19 18 15
11 5 4 4 3 5 8 16 23 21 16 21 10 14 6 6 6 5 10 13 13 10 7 3 3 8 11 18 22 24 24 25 26 29 32 35 30 26 23 22 20 18 16 14
11 4 8 10 14 3 9 16 19 18 13 22 25 32 22 11 19 22 21 18 12 9 4 2 5 9 13 19 23 25 25 25 29 31 33 31 28 25 23 20 18 17 14 13
7 5 13 20 23 24 25 27 27 20 26 19 32 19 23 18 18 19 14 12 11 7 3 5 7 10 13 20 22 25 26 27 30 31 29 26 26 23 21 19 17 15 12 10
7 4 3 15 23 22 23 23 22 20 18 20 26 26 24 22 15 15 16 14 10 5 5 7 9 12 13 20 22 26 27 28 30 30 27 26 24 22 20 18 15 13 11 9
5 2 2 6 12 22 7 6 12 15 8 7 10 15 10 12 11 9 10 7 9 4 8 10 12 12 16 20 26 27 28 29 29 27 24 23 23 21 18 16 14 11 9 7
4 4 2 6 11 4 5 7 11 10 9 8 11 11 11 11 11 10 10 9 5 9 10 12 12 13 19 24 26 30 29 27 26 24 23 21 21 19 17 14 12 9 7 5
16 8 3 3 5 13 8 8 6 4 6 7 10 12 10 12 12 4 10 5 7 10 12 13 18 20 23 25 28 29 26 25 24 23 21 20 19 18 15 12 10 7 5 3
10 11 5 2 3 4 5 11 4 4 2 4 7 11 10 9 4 6 10 10 10 12 16 19 21 23 25 24 27 27 25 24 22 21 20 18 16 15 13 11 8 6 4 1
3 3 9 7 4 9 5 13 1 3 4 5 3 5 6 4 4 4 6 10 10 12 20 21 21 22 23 24 25 24 23 21 21 21 19 16 14 13 11 9 6 5 2 1
6 5 4 4 5 5 3 8 4 6 5 7 6 1 2 7 6 9 10 11 12 13 18 20 21 21 21 23 26 24 22 21 22 21 18 16 13 11 9 7 5 3 2 3
4 5 2 5 4 2 3 5 5 5 7 4 5 3 11 8 5 9 11 11 12 12 16 18 23 23 20 19 22 25 21 24 22 20 17 14 12 9 7 5 3 1 3 5
4 3 3 4 2 4 2 2 3 3 4 3 1 4 8 11 11 12 12 11 11 14 17 21 23 23 21 20 24 28 25 25 22 18 15 12 10 8 5 4 2 2 4 6
1 6 4 6 14 6 4 3 3 5 5 6 8 8 12 14 12 13 13 12 12 17 19 20 22 23 23 23 25 24 23 19 18 15 13 10 7 5 4 2 1 3 4 5
6 6 5 3 3 4 3 4 3 4 6 6 11 12 11 13 14 14 13 14 17 18 21 23 23 25 23 23 21 18 16 16 16 14 10 7 5 3 2 3 4 5 4 6

GFSCGP_925_spd_039.txt.gz
Wind_Speed
9 8 13 16 15 16 9 9 12 10 8 15 20 23 20 19 20 21 21 21 21 22 20 25 25 26 30 33 32 30 26 24 22 22 22 22 23 22 22 21 19 19 18 23
5 14 15 10 9 12 13 14 15 14 13 12 17 29 24 25 27 23 23 24 25 24 23 23 29 30 31 32 33 31 29 25 23 22 22 20 20 24 21 16 17 19 20 22
11 1 4 12 10 11 13 14 13 14 16 18 22 26 19 15 16 21 22 23 25 24 24 23 24 30 30 33 31 30 30 26 25 23 21 18 20 21 18 19 19 19 24 24
12 8 4 8 12 11 11 9 10 11 9 6 5 11 16 16 17 15 15 15 16 18 20 21 22 22 30 31 31 29 28 26 26 26 25 27 21 20 16 26 22 22 21 23
4 6 12 12 12 8 6 3 5 8 10 14 15 9 13 9 11 13 15 14 14 14 13 15 17 21 27 26 29 27 25 25 25 28 26 26 21 19 24 26 24 22 23 22
11 3 5 6 5 8 4 3 6 7 6 8 16 16 19 8 9 6 6 4 6 6 9 10 14 19 21 25 21 25 24 26 25 27 26 27 25 26 28 29 26 28 23 22
10 16 7 8 6 5 8 1 2 4 5 8 2 10 17 16 10 7 8 11 14 8 7 13 14 13 17 19 24 21 24 25 26 26 26 26 26 27 29 32 30 30 25 23
7 6 17 11 12 5 12 8 4 5 7 11 5 10 8 10 5 5 11 16 15 10 12 6 13 13 16 20 23 24 26 26 26 26 25 25 25 25 25 27 28 25 26 24
5 3 1 9 7 10 6 8 10 11 16 11 9 20 24 21 21 14 16 15 17 16 9 10 10 12 19 19 23 26 27 27 26 26 25 24 24 25 27 26 26 25 24 24
2 2 5 7 5 10 12 0 2 4 5 10 10 19 14 13 12 7 13 11 9 6 9 9 9 12 17 19 22 26 27 26 26 26 23 23 23 23 29 29 30 27 24 21
5 3 5 5 11 13 11 9 7 8 7 6 12 9 10 10 12 13 14 13 1 8 10 12 12 14 12 16 20 23 24 25 26 26 24 24 24 27 31 32 30 27 22 20
9 2 5 12 8 8 14 14 17 7 9 8 11 21 12 13 13 9 12 5 9 9 12 10 12 9 7 12 18 22 23 25 26 27 26 25 27 30 31 30 27 24 22 16
10 5 3 2 1 8 10 15 18 17 16 20 15 16 3 7 9 6 11 16 14 16 12 9 8 6 5 11 16 21 24 25 25 27 27 28 29 30 31 30 26 22 20 16
4 5 8 8 10 9 6 15 16 13 8 20 23 34 26 23 16 15 16 20 22 18 8 8 5 6 9 13 17 21 23 24 26 28 30 30 29 30 29 27 24 22 19 16
5 7 13 18 20 19 17 21 22 19 21 15 30 26 28 21 18 12 18 19 19 14 6 5 4 7 10 15 19 21 21 25 27 29 30 30 30 30 27 23 21 20 18 15
4 3 2 14 18 14 16 20 18 18 18 15 17 21 19 13 12 9 13 13 13 5 3 4 6 9 11 15 17 20 23 25 29 31 31 31 29 27 24 23 21 17 17 13
5 2 2 5 10 19 9 4 9 12 12 7 8 8 11 10 10 10 11 10 9 7 6 7 9 11 13 16 19 21 26 28 30 32 30 29 27 24 22 21 20 16 13 10
6 4 2 5 12 3 1 3 10 7 7 10 12 13 12 11 8 3 7 8 8 7 9 9 10 13 17 21 22 25 27 30 31 30 28 26 25 23 20 19 16 13 10 8
13 5 2 3 6 16 5 9 7 2 4 8 10 11 11 11 4 6 12 10 9 10 10 12 15 19 22 24 24 27 28 29 28 26 26 23 22 21 17 16 13 10 8 6
13 10 3 3 5 4 6 12 5 5 1 2 4 11 11 13 5 4 10 11 12 14 17 18 21 24 25 22 24 26 26 25 23 22 21 20 19 18 16 14 12 8 6 4
4 3 6 7 4 8 9 11 3 6 6 9 2 8 9 6 5 6 9 11 10 14 18 21 22 23 24 25 24 24 24 23 22 22 22 20 19 18 15 12 9 7 4 1
7 6 4 4 5 6 6 8 5 8 9 7 2 2 7 7 7 9 11 11 9 12 18 20 20 21 22 22 24 24 24 23 24 24 22 20 16 13 12 11 8 5 2 2
4 6 2 7 4 9 10 8 7 5 9 5 1 5 6 7 5 7 10 11 10 11 16 19 22 23 21 21 23 27 22 23 25 24 20 16 15 12 10 8 5 1 2 4
7 4 4 3 4 4 11 5 3 6 4 4 2 5 7 9 9 9 9 11 11 14 16 20 21 21 21 20 22 26 26 25 24 20 17 14 13 10 7 5 3 2 3 5
3 6 4 8 13 3 4 6 5 4 5 6 6 5 8 11 10 10 10 11 11 15 16 17 19 20 21 22 23 23 25 22 19 17 15 12 9 6 4 3 1 2 2 4
7 8 7 5 4 2 4 4 4 4 5 7 9 10 10 11 12 12 11 12 14 15 18 19 20 23 22 23 23 19 17 17 17 15 11 8 6 4 2 1 2 5 6 9

GFSCGP_925_spd_042.txt.gz
Wind_Speed
8 5 8 11 13 14 13 9 9 10 8 7 9 16 15 14 14 17 15 12 14 16 11 21 24 24 24 28 29 34 31 31 31 28 30 30 31 25 28 28 29 31 28 25
3 7 8 9 6 7 8 9 10 9 10 8 11 19 17 20 21 18 19 16 15 13 12 14 21 24 30 28 27 27 27 29 38 34 30 27 27 25 30 31 29 31 28 27
7 2 11 11 7 5 8 7 8 10 11 11 14 18 12 11 21 22 21 19 15 14 14 15 15 22 26 29 31 28 28 29 31 34 30 25 27 26 28 30 29 27 26 27
8 9 4 5 9 6 7 3 6 6 6 4 8 7 6 9 8 8 10 10 11 12 13 14 14 14 21 28 32 35 32 32 31 35 31 35 29 24 27 36 32 28 26 25
1 2 4 5 7 7 5 5 4 5 6 7 5 4 6 3 6 6 7 7 9 8 9 10 11 18 28 26 20 35 37 32 32 37 32 35 30 23 31 32 32 28 26 25
4 5 1 5 5 5 6 3 4 4 1 4 11 9 5 3 1 1 6 3 13 6 4 4 4 7 11 20 27 24 29 36 29 33 31 35 34 32 32 32 32 30 29 27
4 9 3 3 5 4 6 3 2 2 3 6 3 8 11 14 13 11 6 3 5 5 2 3 6 6 13 18 18 23 20 29 28 30 27 32 29 33 34 35 34 32 30 29
7 4 16 9 7 4 9 5 3 5 2 4 6 7 6 11 13 5 4 5 7 7 2 3 3 6 14 16 21 21 18 22 27 30 29 28 30 31 31 32 34 32 31 32
6 2 2 11 5 8 5 5 2 4 5 2 5 6 9 19 14 10 5 5 6 8 5 3 4 7 16 22 19 21 23 21 26 29 27 27 33 32 31 30 33 34 30 30
3 2 4 7 6 8 7 4 2 1 2 5 5 8 6 6 7 8 9 8 11 5 5 3 6 8 19 26 22 23 23 26 26 28 25 32 32 31 30 33 31 28 30 29
4 1 3 5 7 8 7 5 3 3 4 3 5 4 5 3 2 7 8 6 5 6 5 4 4 8 20 28 14 22 22 21 26 25 31 34 34 34 32 31 32 33 31 29
8 3 3 10 7 12 7 7 9 4 5 5 3 11 21 6 6 7 11 8 7 5 3 4 4 6 17 18 9 18 22 24 28 31 33 33 34 31 32 31 32 33 30 27
7 4 2 3 1 4 4 7 10 12 6 12 8 9 3 9 20 13 6 9 9 11 6 4 6 4 10 8 5 15 23 27 33 32 33 31 32 29 30 33 32 30 29 25
6 4 4 2 1 2 3 6 10 7 5 11 20 30 27 23 24 21 15 16 19 15 12 5 2 4 9 7 13 20 27 29 30 30 30 28 28 29 31 31 29 30 28 25
1 2 6 9 12 11 10 12 13 13 16 12 23 24 26 22 22 19 12 8 11 12 14 5 5 3 1 11 16 23 27 30 30 29 27 27 30 31 32 30 28 26 25 23
2 2 3 5 11 14 15 15 13 15 17 18 18 21 15 17 8 9 13 12 11 10 4 7 6 2 5 15 16 22 27 27 29 26 27 29 32 32 32 32 31 27 23 20
5 3 2 4 7 11 7 7 10 7 10 9 9 15 15 15 11 8 7 10 10 8 4 7 6 11 14 16 19 21 25 28 26 26 28 29 31 30 28 27 26 24 19 19
5 5 2 4 8 2 2 7 7 9 6 4 13 13 12 10 6 10 11 11 11 8 7 7 10 14 18 19 21 23 23 26 24 25 28 28 29 27 26 25 20 18 17 16
7 3 2 2 3 7 7 3 3 3 5 6 8 9 10 10 5 8 13 13 13 11 11 11 18 20 21 22 23 24 25 25 25 25 28 27 26 24 22 25 20 16 15 12
8 5 2 2 3 3 1 3 4 6 3 4 4 7 10 9 3 3 11 11 13 13 17 18 21 23 24 22 25 25 25 26 23 23 26 29 28 25 19 19 18 14 10 9
3 3 6 5 3 7 5 7 6 4 4 2 1 4 6 4 4 6 10 12 12 16 19 21 23 23 24 26 29 26 24 23 26 28 25 22 23 24 20 17 14 11 9 7
6 6 3 4 4 6 3 6 1 2 4 5 2 2 6 8 9 9 8 8 10 12 18 19 22 20 22 25 27 25 21 24 26 27 27 24 22 20 17 15 12 9 7 6
4 5 5 7 5 7 6 2 6 5 3 4 2 4 7 8 9 9 7 9 9 13 17 19 20 21 20 23 23 24 22 28 28 27 24 22 21 18 14 12 10 8 7 6
4 3 2 4 6 4 5 5 6 5 5 4 3 6 6 10 7 10 9 8 9 12 15 19 20 20 20 20 20 23 27 26 26 24 23 20 19 16 13 11 9 7 5 6
0 3 5 5 8 3 5 5 4 6 5 5 5 5 7 10 7 7 7 7 9 13 17 17 18 19 20 23 24 23 24 25 26 23 20 17 15 13 10 8 7 6 6 8
4 5 3 3 2 1 3 5 4 6 4 6 7 7 7 9 10 9 8 9 13 16 19 20 20 22 21 22 23 21 21 22 23 21 17 14 13 10 9 8 8 7 6 8

GFSCGP_925_spd_045.txt.gz
Wind_Speed
3 3 5 8 7 5 5 4 3 5 6 3 8 10 10 11 10 16 15 11 14 15 12 20 21 22 32 38 33 37 30 40 38 32 31 31 32 33 35 36 34 33 35 33
3 3 5 7 10 9 6 4 5 7 4 5 12 20 17 18 18 17 22 14 16 16 9 10 21 25 21 25 24 24 27 34 44 40 37 30 33 35 36 35 33 36 39 37
5 1 8 4 3 4 2 2 3 5 7 5 9 10 8 7 14 18 19 19 15 15 13 11 11 21 24 23 26 28 22 20 33 41 39 27 32 29 27 30 34 38 39 36
3 4 3 4 3 3 1 4 2 3 4 3 6 7 6 9 9 6 11 12 15 14 10 8 9 13 25 28 33 29 31 27 23 35 39 35 33 23 24 37 38 39 37 34
7 4 6 3 3 5 3 5 5 4 4 5 3 3 8 7 5 8 6 10 10 13 12 13 12 21 29 31 29 22 31 37 34 33 42 41 31 35 32 35 38 38 36 32
4 2 3 3 3 3 6 5 4 3 3 3 8 7 5 3 4 1 1 4 7 8 8 7 9 13 15 15 17 23 23 25 34 34 42 40 39 35 36 36 36 35 33 32
3 3 2 3 4 4 5 5 3 0 2 6 2 4 7 9 11 9 8 8 6 7 2 2 4 2 1 5 10 16 18 23 23 32 38 41 44 43 44 42 37 36 34 32
4 4 8 4 4 5 4 5 4 4 3 4 5 7 6 11 13 8 6 3 4 5 5 6 2 4 7 9 11 18 22 22 23 29 37 40 40 39 37 39 37 33 31 33
4 2 6 6 2 5 3 3 5 1 2 3 5 7 9 7 8 8 7 6 8 9 7 3 6 4 6 10 13 19 23 25 22 31 35 37 37 35 34 34 32 32 30 32
1 4 5 5 3 4 5 5 2 2 2 5 6 5 8 4 5 8 9 9 9 9 2 5 2 2 5 13 18 22 23 25 24 32 34 34 33 32 31 30 31 32 30 30
2 3 2 3 5 7 3 3 3 2 4 4 4 5 5 6 1 4 4 4 6 11 8 6 2 1 6 12 16 23 18 23 25 30 27 31 29 28 29 30 30 30 30 32
3 3 3 7 5 8 5 5 5 4 4 4 3 6 9 12 6 14 18 19 9 9 6 2 2 3 8 12 18 19 15 21 28 31 32 32 31 30 29 30 30 31 32 32
6 2 1 2 5 2 5 7 8 5 2 7 2 7 4 10 20 18 19 18 16 15 7 2 3 3 5 11 10 11 20 28 29 34 33 31 31 30 31 32 32 32 34 32
7 4 5 5 3 3 3 6 9 11 3 8 14 21 24 20 20 20 15 14 11 12 10 6 6 4 2 7 7 18 22 23 31 31 32 29 31 30 30 31 31 32 32 31
4 3 3 4 6 4 6 7 9 11 18 9 24 22 22 21 20 17 4 7 11 11 12 12 3 2 4 13 14 18 18 23 26 28 28 28 27 29 29 28 28 31 31 29
2 1 2 5 8 8 6 11 12 12 16 17 23 26 15 12 17 10 9 11 12 13 9 3 5 6 7 14 14 16 19 20 26 25 27 28 28 27 28 28 29 29 25 23
5 3 2 4 4 6 5 7 12 7 5 6 7 10 14 17 12 10 11 13 14 10 5 1 7 6 11 16 19 19 22 25 26 26 26 26 26 28 29 29 28 27 24 22
4 5 3 3 4 1 5 4 6 10 8 7 7 12 11 13 7 10 10 10 14 4 7 10 8 14 17 21 25 26 26 26 26 26 26 27 28 30 31 31 27 21 18 15
5 4 1 2 2 6 1 2 2 3 4 2 5 9 9 9 5 5 10 9 9 12 13 15 18 20 21 21 23 28 28 28 28 25 27 27 29 29 27 28 26 22 16 12
5 2 1 2 1 3 3 3 1 4 3 2 3 6 8 7 3 2 7 8 10 12 13 18 22 23 23 21 25 29 25 27 25 24 23 26 27 27 24 21 18 17 14 12
3 2 6 6 3 6 8 6 5 1 4 1 2 1 4 2 2 4 6 9 12 13 16 19 20 22 24 25 29 26 26 23 22 26 28 24 23 23 20 19 16 14 11 9
7 6 3 4 3 7 4 3 1 2 2 2 3 4 7 7 7 6 7 9 8 9 14 17 17 17 18 17 23 22 20 23 27 23 24 22 20 20 20 16 13 10 9 8
4 6 5 7 6 6 3 2 1 1 2 0 4 6 9 8 6 8 8 7 6 11 12 14 16 17 17 16 20 21 23 25 23 20 23 21 19 17 14 13 11 10 8 7
3 6 3 3 5 9 4 2 1 1 1 1 4 7 6 9 8 9 9 8 8 12 14 16 17 17 15 16 18 19 19 24 25 23 22 20 19 16 13 11 9 8 7 5
4 4 4 4 6 3 1 2 4 2 3 3 3 5 8 10 9 7 9 9 11 14 14 16 16 17 18 22 21 22 25 25 25 24 20 18 15 13 12 10 8 7 7 6
4 6 4 4 4 3 2 2 5 4 3 4 7 6 5 6 9 9 8 11 14 15 16 16 17 20 19 21 22 22 23 24 25 22 18 15 14 12 10 9 8 6 5 6

GFSCGP_925_spd_048.txt.gz
Wind_Speed
4 3 6 5 5 3 3 2 2 4 4 5 7 6 12 10 7 10 15 13 14 15 15 19 25 24 28 35 35 30 28 32 38 33 32 32 37 38 36 37 38 38 35 34
3 2 5 10 6 6 1 3 4 6 1 3 7 15 14 14 13 16 21 21 18 13 11 9 22 26 23 21 21 29 33 28 41 36 38 32 39 41 39 36 41 41 39 37
5 1 7 5 6 6 4 3 2 4 5 1 7 9 6 6 7 9 17 19 15 15 17 15 11 21 27 26 23 22 22 23 31 38 33 34 31 29 34 36 40 41 43 42
3 2 4 4 2 4 2 1 3 3 4 4 5 6 5 8 12 7 8 8 11 12 11 12 9 14 27 30 29 26 24 21 23 34 34 34 32 22 29 41 42 43 42 44
4 5 3 3 3 4 3 4 4 2 3 4 3 2 8 5 7 6 6 8 8 10 8 9 9 20 28 26 26 27 25 28 25 30 39 39 29 27 35 39 41 41 38 39
2 2 3 4 4 4 7 5 6 4 3 2 4 4 6 3 4 2 4 9 9 8 6 8 14 17 19 13 12 14 20 23 20 24 31 38 37 32 31 36 37 35 36 36
2 2 1 3 6 3 5 6 2 4 2 6 3 3 9 9 12 4 8 9 9 8 7 5 5 2 4 5 5 4 6 11 16 21 26 34 38 42 43 42 40 39 39 37
4 2 5 2 4 5 4 6 4 4 3 4 3 5 6 4 6 3 6 4 9 11 9 8 5 3 6 5 3 2 6 9 15 21 25 29 38 40 39 41 42 41 40 39
4 1 3 4 3 6 3 2 4 3 4 3 4 6 9 3 5 7 8 9 10 10 10 9 7 5 5 3 5 7 10 15 20 23 25 28 34 36 41 41 39 40 38 35
5 4 2 2 4 1 4 6 3 3 1 4 4 4 5 5 4 2 7 7 8 8 13 9 7 11 11 8 10 10 13 17 21 20 23 28 33 37 38 40 38 34 32 31
1 4 1 4 4 6 3 2 1 3 4 3 4 5 6 4 4 4 7 7 13 14 14 11 7 14 9 12 12 15 16 18 14 19 23 26 30 31 31 32 32 30 29 31
1 4 3 6 2 4 4 6 6 3 3 2 3 8 6 5 3 6 16 13 9 12 10 12 8 11 10 14 15 15 17 15 16 22 24 25 27 27 27 25 26 28 30 29
4 1 2 2 5 3 3 5 4 4 2 6 2 6 3 7 14 19 15 13 7 7 9 9 7 7 10 13 11 7 5 10 19 23 25 26 27 26 24 25 28 30 30 30
6 3 4 5 4 3 3 5 7 6 3 3 8 15 19 19 18 18 17 16 6 10 11 5 9 10 10 6 1 5 7 7 14 19 22 23 22 24 28 28 27 29 31 33
4 4 1 4 6 3 4 5 7 9 18 6 15 13 22 19 19 16 8 9 11 13 10 9 10 4 2 8 9 14 16 14 13 17 21 25 25 26 29 30 29 30 32 32
1 2 2 5 5 7 6 9 10 13 15 14 23 25 21 19 10 7 9 12 13 14 10 6 6 6 6 11 13 15 20 19 18 19 21 25 25 28 29 30 32 32 32 28
4 3 2 4 3 3 5 11 15 6 6 8 9 11 6 11 7 6 10 11 13 16 7 4 7 6 11 13 16 21 23 23 22 23 22 22 28 29 30 32 33 31 29 26
4 4 2 3 3 1 6 2 6 11 9 9 10 8 8 7 4 4 6 8 9 11 9 7 7 12 16 19 22 23 25 26 25 25 24 23 28 31 32 31 29 27 25 22
5 4 1 1 2 6 2 1 1 5 6 3 4 6 6 6 5 2 7 7 7 7 7 10 12 15 19 22 24 26 25 26 26 24 25 27 27 25 27 28 26 23 20 18
3 3 2 2 0 3 3 1 2 3 4 4 3 4 4 4 2 2 5 7 8 10 10 10 13 15 17 17 23 26 22 24 22 23 27 28 28 27 25 23 21 18 16 13
4 2 5 3 3 6 7 4 3 1 4 2 3 3 0 1 1 1 3 7 9 10 12 14 15 15 12 12 18 20 19 20 23 25 25 25 25 24 21 20 17 14 11 10
7 6 3 3 3 7 3 3 2 3 2 2 3 4 6 8 7 4 5 4 6 8 11 12 14 15 15 16 22 20 20 22 24 24 24 24 22 21 18 16 13 11 11 11
4 6 4 6 5 5 3 3 0 1 3 3 3 4 6 9 5 5 5 6 5 8 9 10 13 14 14 14 20 21 19 22 24 24 22 21 19 17 14 14 13 12 10 8
4 6 3 1 4 11 9 1 0 1 2 3 3 5 7 8 9 7 6 6 6 9 9 11 12 12 13 16 19 21 20 21 19 19 18 18 17 15 13 12 10 10 9 7
4 4 5 5 7 3 3 4 3 2 2 2 4 5 7 9 7 8 7 7 8 10 11 12 13 13 14 18 17 16 16 18 21 22 19 17 16 14 13 12 11 9 9 8
4 6 4 4 3 4 5 4 5 5 4 4 6 5 5 7 10 7 7 10 12 12 13 13 14 16 14 17 17 16 16 19 21 19 16 14 13 11 9 8 8 8 6 4

GFSCGP_925_spd_051.txt.gz
Wind_Speed
4 2 8 13 7 3 5 3 3 3 1 3 6 5 13 9 6 9 11 14 15 15 14 17 26 24 21 24 27 29 26 26 35 32 29 29 33 39 39 38 38 37 36 35
4 3 10 4 3 1 3 1 3 5 0 2 6 11 17 15 11 14 16 17 17 14 9 9 20 24 23 24 22 21 26 27 34 38 39 32 35 38 41 44 40 41 39 37
4 3 9 8 2 4 1 3 3 3 3 3 7 7 6 4 4 5 8 11 11 14 16 14 9 22 27 27 28 26 21 19 28 37 36 28 26 24 34 35 39 39 40 38
3 3 13 8 6 5 4 3 2 2 3 2 4 5 6 7 9 6 7 7 9 10 9 9 8 14 24 27 28 25 26 24 21 28 31 33 32 25 30 38 43 42 39 40
2 4 7 4 5 4 3 4 4 3 4 2 1 2 8 4 6 4 5 9 9 8 7 10 9 17 20 18 18 19 19 21 22 22 29 38 30 26 27 33 40 42 40 38
3 1 3 3 4 3 8 5 6 4 2 2 2 4 6 2 2 5 6 8 10 11 11 12 15 15 16 12 14 16 17 18 19 19 24 33 35 30 27 31 34 39 41 38
3 3 2 4 7 5 5 6 3 4 3 4 3 2 9 9 9 4 4 7 8 8 12 13 13 12 18 10 5 7 9 12 13 19 21 26 34 35 35 36 35 35 38 40
3 0 3 1 4 5 1 5 4 4 1 3 2 5 5 3 3 5 3 4 5 11 8 8 9 11 15 15 13 7 6 10 11 12 15 18 26 33 37 38 38 39 42 39
4 1 1 2 3 5 3 2 3 5 3 2 3 7 8 5 4 3 8 8 8 8 9 9 8 13 19 16 16 16 15 15 17 19 20 21 21 29 35 37 38 34 34 39
4 4 2 3 4 5 3 7 3 3 2 3 4 5 4 3 2 5 10 10 9 7 8 8 7 13 20 19 16 18 16 19 20 23 24 24 22 25 31 34 35 33 32 32
4 3 2 4 2 5 2 1 5 4 3 3 3 6 5 3 2 5 8 9 7 11 8 8 8 16 22 16 15 17 17 19 22 21 22 20 19 21 24 26 28 28 27 28
1 4 3 2 2 3 3 5 5 3 3 1 2 6 2 4 5 6 13 11 13 7 8 7 8 16 19 18 15 18 20 19 14 13 12 13 14 16 17 20 22 22 24 24
3 2 3 4 5 3 2 4 4 4 3 5 4 5 2 7 10 11 11 13 10 6 8 11 6 8 16 19 15 12 12 10 6 3 4 7 10 13 16 18 21 22 24 24
6 3 4 5 4 3 2 4 6 6 3 4 7 8 15 17 11 14 12 8 10 11 12 12 8 9 13 7 9 10 8 6 7 6 8 8 10 13 17 20 21 22 25 29
4 2 0 4 5 2 4 4 7 8 10 6 4 7 19 17 16 12 6 10 12 12 14 11 7 7 9 11 11 12 13 13 11 16 18 16 17 19 23 24 27 28 27 30
3 3 3 4 4 7 5 8 9 10 9 11 18 23 23 15 6 4 7 9 11 13 15 6 7 7 8 12 12 15 17 17 17 22 23 21 22 25 26 28 28 31 30 31
4 4 2 4 4 3 5 9 12 5 5 9 12 14 5 6 8 3 6 7 9 11 11 10 7 5 7 11 12 17 18 20 24 25 23 23 24 23 26 28 30 31 30 28
4 4 3 3 3 1 6 4 6 13 10 12 12 12 7 4 2 3 3 6 7 8 9 8 7 7 9 10 11 14 15 19 21 23 25 23 24 23 27 31 31 28 25 26
3 4 1 1 2 6 2 3 5 5 6 5 7 6 4 3 5 2 5 5 6 5 5 8 10 9 10 10 9 13 15 18 18 18 20 21 26 27 29 31 31 26 23 21
4 5 2 1 1 3 2 3 1 4 3 5 3 5 2 3 2 1 3 4 4 7 9 9 10 12 12 10 9 14 16 18 16 17 18 19 21 26 29 28 25 22 20 16
3 2 6 3 3 6 7 3 3 2 4 2 2 3 2 2 1 3 4 4 6 6 8 9 10 11 12 11 13 18 18 18 19 22 23 23 24 26 24 23 20 20 17 12
6 5 3 4 3 6 4 2 2 3 3 2 3 3 3 4 5 4 4 3 4 5 7 7 10 11 11 12 15 17 17 18 20 21 23 22 21 21 20 19 14 12 13 13
4 6 4 7 5 5 2 2 2 3 4 2 3 4 6 7 4 4 4 5 4 5 6 7 9 11 11 12 16 17 15 20 21 21 20 19 19 16 13 14 14 14 11 10
4 6 3 1 4 8 7 4 4 4 3 2 3 5 7 8 8 6 4 5 5 8 8 8 9 11 11 14 18 19 18 19 19 19 17 16 16 14 12 12 11 10 9 8
3 6 5 5 8 7 3 4 3 3 2 2 2 6 7 8 8 8 6 5 7 9 10 11 11 11 12 15 15 16 16 16 18 17 16 14 13 12 13 12 10 10 10 8
3 5 4 4 2 2 6 1 3 4 3 4 5 4 5 7 9 7 7 10 10 11 12 11 12 14 13 14 13 12 12 16 18 16 14 12 11 10 10 11 13 11 10 9

GFSCGP_925_spd_054.txt.gz
Wind_Speed
8 7 10 16 6 4 6 4 3 2 1 2 5 4 12 11 7 8 9 11 14 13 9 20 28 27 23 21 20 22 26 29 33 29 27 27 29 31 34 40 38 37 34 33
6 5 4 11 9 5 5 5 2 2 1 1 5 9 16 14 7 10 12 13 10 8 9 11 20 23 24 26 26 23 23 26 33 34 34 29 32 27 37 39 38 37 38 35
5 9 11 11 9 8 3 3 2 3 3 2 7 7 5 3 3 5 6 5 6 8 13 12 9 18 20 21 24 25 23 19 25 35 34 27 22 27 21 29 35 39 39 39
4 5 14 11 6 3 2 5 2 3 2 2 4 5 6 4 7 6 8 9 8 8 7 7 8 13 16 20 20 21 25 23 20 26 31 31 27 24 26 33 41 41 40 40
2 7 8 10 6 11 3 5 5 3 4 2 2 2 7 2 4 3 7 6 6 6 6 8 7 11 16 15 14 16 16 20 19 19 29 32 28 27 30 29 33 35 40 41
4 3 3 2 5 2 9 5 6 4 3 1 2 3 5 1 2 4 4 6 7 8 9 10 14 19 25 20 17 10 11 14 15 19 23 30 35 32 29 29 30 33 37 39
5 3 2 4 7 5 4 5 2 3 3 4 1 0 8 3 4 2 2 7 8 7 9 9 12 14 25 25 19 15 12 11 9 12 17 21 29 30 35 35 34 32 34 37
4 0 2 1 3 6 2 5 4 4 1 3 3 5 4 3 3 3 2 5 6 8 7 8 9 14 21 25 22 17 14 15 12 11 11 12 17 25 31 33 34 36 37 37
4 3 1 3 3 3 3 2 3 6 3 3 3 6 6 4 2 3 8 9 10 8 8 8 9 15 22 25 26 18 18 19 19 17 15 16 17 19 25 29 31 34 34 33
2 4 2 3 3 7 3 7 3 3 2 2 4 4 4 0 1 5 9 10 9 7 8 8 6 14 21 22 22 17 15 18 21 23 21 20 19 18 22 26 28 29 28 27
3 3 2 4 1 6 2 1 5 4 3 3 2 4 5 4 2 4 9 9 9 9 8 7 6 16 19 20 22 15 18 20 22 21 19 18 17 15 16 19 21 21 20 20
1 4 3 2 2 2 2 5 4 4 3 1 1 6 3 6 3 2 8 8 6 6 7 8 9 15 20 21 20 14 15 16 16 16 16 12 9 7 8 9 12 13 15 16
5 2 3 1 3 4 3 3 4 5 3 4 4 5 1 6 6 6 7 6 7 9 10 9 9 8 14 17 16 16 16 16 16 14 10 8 4 1 4 6 9 13 16 18
5 3 3 5 3 3 2 4 5 5 3 3 6 7 12 12 9 10 6 5 8 8 8 7 6 8 14 15 16 16 16 15 13 10 8 5 6 5 8 12 15 15 18 22
3 3 3 2 4 3 4 4 7 6 5 6 4 6 12 12 12 11 2 6 6 9 12 12 9 6 12 15 15 15 15 12 10 12 15 16 16 17 19 21 22 22 24 25
2 3 2 3 2 5 4 7 8 9 6 10 15 19 20 16 7 4 5 8 10 8 9 9 8 7 10 15 15 15 13 11 10 15 19 19 20 23 24 25 25 25 27 27
3 4 2 3 4 5 5 8 12 6 6 11 10 14 9 6 5 2 4 5 6 7 8 6 6 6 11 12 10 11 11 10 13 14 15 17 19 23 24 23 23 27 31 31
4 4 2 2 4 1 5 2 5 13 8 14 9 11 9 6 2 3 2 3 4 5 5 5 6 8 11 10 10 10 11 12 13 11 12 13 18 22 24 26 26 26 29 28
3 4 2 1 3 6 2 3 6 6 4 8 13 9 5 2 2 3 2 2 2 3 3 4 6 8 11 13 10 12 12 12 12 15 15 14 18 20 25 24 23 23 25 25
5 5 3 3 2 4 3 2 1 3 3 3 5 4 2 1 4 1 2 2 3 4 5 5 6 7 10 9 8 10 12 15 14 16 17 16 19 22 24 22 22 22 22 23
3 2 6 3 2 6 8 5 2 3 4 2 3 4 4 3 1 4 4 4 5 6 5 6 7 8 7 8 9 13 14 13 13 16 17 19 21 22 21 20 19 18 19 17
7 5 3 3 3 7 4 2 2 3 1 2 3 3 4 4 6 5 4 4 4 5 7 7 8 9 9 8 13 14 13 11 17 20 21 20 19 19 19 18 15 14 16 17
4 5 4 7 5 4 3 3 2 3 4 2 2 3 6 6 4 7 5 4 3 5 7 6 8 10 10 10 13 16 12 16 17 18 18 18 16 14 13 14 14 14 12 12
3 4 2 1 3 6 8 6 6 5 5 3 4 4 7 6 7 6 6 5 5 8 9 8 7 9 11 13 13 14 14 15 17 18 16 15 15 15 14 14 12 12 10 10
4 5 5 4 7 7 5 4 4 3 3 2 2 4 7 7 8 7 6 6 8 10 10 10 10 10 12 12 12 13 13 14 16 16 14 14 14 14 15 15 12 11 11 9
4 5 4 3 2 2 5 4 2 4 4 5 5 2 4 6 9 7 7 10 11 13 13 12 13 13 12 14 12 10 12 13 15 14 13 12 12 12 11 13 14 11 10 8

GFSCGP_925_spd_057.txt.gz
Wind_Speed
12 7 15 14 6 3 9 5 4 2 2 2 4 4 9 11 7 10 12 13 13 9 9 16 21 22 22 23 23 23 25 30 27 25 26 25 28 33 32 35 36 34 35 35
8 13 9 12 7 5 6 6 4 1 2 2 2 8 14 11 6 5 8 8 7 7 9 12 14 15 16 20 21 24 24 25 32 26 27 25 27 26 33 27 31 36 36 37
6 3 9 13 10 9 2 5 3 3 1 2 5 5 2 1 4 7 8 4 5 5 8 11 12 10 10 13 16 20 24 26 26 31 29 24 23 23 21 28 31 34 40 39
1 2 11 10 12 9 4 2 4 4 2 1 4 3 3 3 7 7 7 8 7 8 8 7 11 14 15 14 9 11 17 22 24 24 25 25 24 24 27 28 35 31 35 39
3 10 11 7 3 6 1 3 4 3 4 2 2 2 3 3 2 4 5 5 6 7 7 8 9 12 18 18 18 9 7 11 17 21 25 28 26 26 28 29 29 32 36 37
2 3 6 3 11 5 10 5 6 4 2 0 1 2 3 2 3 2 1 4 6 8 8 7 10 12 19 21 20 16 14 8 6 12 17 26 23 25 23 30 30 32 35 36
5 5 3 5 9 2 1 3 2 2 1 3 2 2 5 3 1 4 2 5 6 6 8 9 11 15 22 25 22 20 15 14 11 8 7 15 24 26 27 28 30 23 27 31
4 3 3 1 3 6 2 2 4 4 3 1 1 5 2 3 1 4 2 5 5 5 6 7 7 10 17 21 23 21 17 15 13 11 10 9 11 16 23 28 28 27 29 31
4 3 2 5 2 2 3 2 2 6 2 1 2 5 5 2 4 4 6 7 7 6 6 7 10 13 16 18 19 17 15 15 14 15 14 11 11 14 17 20 22 26 29 30
2 5 2 1 3 8 2 6 2 2 2 3 3 4 3 3 5 2 7 7 8 7 9 9 9 13 15 18 18 14 9 13 16 16 15 15 12 11 13 17 20 22 24 23
3 3 1 3 1 5 2 1 4 3 1 3 1 3 6 8 6 1 5 5 5 8 9 10 12 14 16 15 14 13 13 14 16 17 17 16 15 13 11 11 13 15 16 15
1 4 3 2 1 1 1 4 4 3 3 2 1 4 2 5 3 4 7 6 6 5 7 8 11 13 15 15 16 17 17 16 15 15 14 13 14 12 10 8 7 5 7 9
4 2 3 1 1 3 3 3 3 4 3 4 3 3 0 1 3 5 6 4 6 8 11 11 12 14 13 15 15 16 18 18 17 15 13 11 10 8 6 5 3 1 4 8
6 3 3 4 3 3 3 4 4 5 3 3 5 5 6 6 5 7 3 4 6 7 7 8 6 9 12 12 13 17 19 20 19 17 15 13 11 8 8 8 10 12 14 17
3 3 1 1 1 3 3 4 7 6 5 6 3 6 7 7 7 7 3 4 5 6 6 6 7 7 12 13 13 15 17 18 16 17 15 13 11 10 10 12 12 13 16 18
2 3 2 3 0 5 4 7 9 9 4 9 7 17 13 11 6 2 2 1 2 3 5 6 7 9 10 10 11 13 15 16 17 16 15 12 11 12 15 17 19 21 22 23
4 5 2 2 3 3 5 10 14 5 5 9 7 10 3 3 5 1 1 1 2 3 4 6 6 7 7 8 7 11 13 14 15 14 13 13 12 17 17 17 20 23 25 25
5 4 2 1 3 1 4 3 8 13 6 12 7 7 5 4 1 3 2 1 1 2 4 5 6 6 5 6 7 11 12 12 13 14 13 12 13 18 18 20 22 23 24 26
1 4 2 1 2 6 1 2 5 6 2 8 12 12 6 2 2 1 2 2 3 4 3 4 4 4 5 9 8 10 12 14 14 14 14 14 16 20 21 23 24 24 26 26
4 4 3 1 2 3 3 1 2 3 1 2 5 6 3 4 1 2 3 3 4 5 4 3 3 4 6 8 7 10 11 13 13 12 13 14 16 19 20 21 22 22 23 23
2 1 3 3 2 6 7 6 1 2 3 2 3 4 4 3 1 6 6 5 6 5 4 4 5 4 5 7 10 13 12 14 12 14 16 18 19 21 20 20 19 19 19 19
7 6 4 3 3 6 4 1 3 1 1 2 3 3 4 4 7 7 6 6 6 6 5 5 6 5 7 9 12 14 15 11 15 18 19 19 19 18 17 17 16 16 17 17
4 5 4 7 5 4 2 3 2 2 5 3 3 3 5 7 6 9 6 7 6 6 6 6 8 9 9 9 11 17 14 15 17 18 18 17 15 14 13 14 13 13 10 10
3 4 2 1 2 5 8 4 4 4 5 2 3 3 6 5 8 8 9 8 9 8 9 10 8 9 11 11 13 14 13 13 16 17 16 15 15 14 13 12 11 10 9 8
4 5 4 4 6 6 6 3 3 2 2 2 2 3 5 6 8 9 8 9 11 12 10 11 12 11 12 12 12 11 11 14 16 15 14 14 13 13 13 12 10 10 10 8
4 6 4 4 3 1 5 2 4 4 4 5 4 2 3 6 8 7 9 13 15 14 14 11 13 15 13 13 12 11 12 12 14 14 13 12 12 11 11 12 14 10 8 7

GFSCGP_925_spd_060.txt.gz
Wind_Speed
19 5 14 20 19 0 8 16 9 7 6 7 12 11 12 12 13 14 15 14 12 10 11 14 14 14 14 15 16 17 17 19 21 22 21 24 25 30 26 28 24 23 24 25
11 14 14 14 14 7 12 13 10 5 5 6 5 8 12 14 13 10 10 10 8 5 3 5 7 7 9 12 15 17 19 20 21 24 24 25 22 23 24 23 25 29 26 25
16 6 14 16 14 12 9 12 10 4 6 1 4 7 6 3 4 5 6 5 5 5 5 7 8 8 6 5 9 13 15 17 19 20 22 22 22 19 18 23 25 28 34 31
3 6 18 18 18 14 11 4 8 8 7 3 2 3 4 7 9 9 10 8 7 7 7 7 8 10 10 9 8 5 8 12 15 16 19 23 24 24 25 25 24 24 25 32
4 7 14 17 18 14 4 7 6 5 3 1 4 4 6 9 10 9 8 7 7 7 6 7 8 8 9 10 9 9 6 4 7 12 17 20 23 23 23 23 25 25 24 26
5 4 5 3 8 6 11 10 7 4 1 4 4 4 8 9 11 9 5 6 5 6 6 8 8 8 10 11 11 9 8 7 5 3 11 18 20 21 20 19 21 22 22 23
2 4 2 8 7 5 3 9 4 3 3 2 1 4 3 8 6 9 5 5 5 5 6 8 9 10 13 14 13 10 9 8 7 6 3 6 13 16 19 20 19 21 20 20
3 4 2 2 1 6 7 4 2 3 4 3 3 5 3 7 8 9 2 3 3 5 6 7 8 10 12 13 13 13 11 8 8 8 7 5 6 7 11 15 18 19 20 21
4 4 4 2 2 3 3 4 2 4 2 2 4 3 4 4 9 7 2 3 4 5 8 8 9 10 11 13 13 13 12 9 8 8 7 7 6 6 9 11 13 15 16 18
3 6 2 5 3 9 2 8 3 0 4 4 4 3 4 11 14 6 2 4 3 4 5 7 8 10 11 11 11 9 10 10 9 9 8 8 7 7 8 9 10 12 13 13
6 3 3 3 2 6 4 3 2 1 2 2 2 3 8 15 13 5 4 3 2 4 6 7 7 8 9 10 11 10 11 11 11 11 11 9 9 9 9 8 9 9 9 9
2 4 5 2 2 3 1 2 3 2 3 1 3 3 5 9 9 2 5 1 2 4 5 5 7 8 9 10 11 11 11 11 12 12 11 11 11 11 10 9 8 9 7 5
5 3 5 4 2 1 4 4 2 4 2 4 2 4 4 5 6 4 5 1 3 4 4 5 6 7 9 10 10 11 12 13 13 13 13 13 13 13 13 12 10 8 5 3
3 3 1 0 3 3 4 8 9 4 3 4 5 2 7 7 4 7 3 1 2 3 3 5 5 7 7 7 9 11 12 11 10 10 12 14 13 13 11 10 9 9 8 7
1 3 0 1 1 2 3 6 12 8 5 5 1 5 4 6 7 7 1 0 2 2 2 4 4 4 4 4 6 7 8 9 10 12 14 14 13 13 12 12 13 14 14 12
2 3 1 0 0 5 5 9 9 13 13 12 13 18 15 6 3 2 3 2 2 1 2 2 3 3 4 6 9 10 9 9 10 12 13 13 14 13 13 14 15 15 19 18
3 5 1 1 2 3 8 15 17 10 9 12 10 9 5 4 5 3 4 3 2 2 0 1 2 3 6 7 9 7 7 8 10 11 13 13 13 12 14 14 18 22 25 22
6 5 1 1 1 4 2 2 4 16 9 15 11 13 10 7 2 3 3 2 1 2 2 1 1 3 5 5 7 6 8 11 12 13 14 13 12 13 14 18 20 21 20 20
1 4 2 2 3 6 2 3 5 6 0 13 17 15 8 3 4 3 4 2 2 2 3 3 3 4 4 6 7 7 9 11 12 13 14 13 15 18 19 21 21 22 23 22
4 2 3 1 3 3 3 3 2 3 5 5 8 6 3 6 3 3 6 5 4 4 3 3 3 4 5 7 6 7 10 12 12 12 12 14 16 18 19 19 20 21 22 20
3 2 7 5 4 5 4 4 1 3 4 1 2 4 4 4 2 8 7 5 5 5 4 4 5 6 6 6 7 9 13 13 13 14 15 17 18 19 18 18 17 16 15 14
8 5 3 5 5 6 2 4 3 1 0 1 3 4 5 4 7 8 7 7 7 7 6 5 6 6 6 8 11 11 13 12 15 16 17 16 13 11 10 11 11 11 11 10
5 5 3 7 3 1 2 1 2 2 8 7 4 2 3 8 8 10 9 8 7 8 7 6 8 8 7 9 13 15 12 14 13 11 11 10 10 10 9 9 9 8 6 5
6 7 3 3 4 10 10 6 2 4 5 4 3 2 4 6 9 10 10 8 9 11 11 10 10 10 10 12 14 15 12 10 10 10 10 9 9 9 8 7 6 6 5 5
1 7 8 9 8 8 11 4 3 4 4 4 2 3 5 6 10 11 10 10 11 13 13 13 12 13 12 13 13 11 10 11 11 10 8 8 8 7 8 8 6 6 6 5
6 7 6 6 5 4 3 3 3 7 6 5 4 4 4 7 9 11 10 14 14 14 16 14 14 15 13 13 13 12 12 11 11 9 8 6 7 6 6 6 7 7 6 5

GFSCGP_925_spd_063.txt.gz
Wind_Speed
18 7 17 26 23 18 16 17 12 14 9 11 16 15 18 12 12 12 12 12 13 13 11 7 11 13 14 15 16 17 17 19 19 20 21 17 23 26 23 28 22 22 23 23
10 12 13 18 18 12 9 16 13 3 9 9 14 15 12 12 15 14 13 11 12 10 8 6 8 8 10 13 14 16 19 20 20 21 21 21 19 23 27 22 29 28 23 26
13 4 12 16 15 13 12 14 16 6 7 10 4 12 14 10 3 4 6 6 3 3 3 1 2 3 2 2 6 11 14 16 18 19 19 20 20 21 18 21 23 25 28 28
7 3 13 9 17 14 12 7 9 8 11 6 9 3 10 11 7 8 8 7 6 5 5 4 4 6 7 7 6 4 6 10 14 16 17 18 19 19 20 21 19 21 22 24
3 5 16 16 15 15 3 9 10 8 8 1 7 5 9 11 11 10 9 7 6 5 4 4 5 5 7 8 8 7 6 3 6 10 15 17 20 20 19 19 21 22 21 21
4 4 6 2 9 6 10 12 8 4 2 4 10 8 10 11 12 12 8 8 5 4 4 5 4 4 6 7 8 8 7 5 5 4 7 13 17 18 17 17 17 17 17 18
2 3 6 1 11 5 4 13 4 4 4 4 3 5 4 9 14 12 10 7 4 3 3 4 4 5 6 7 8 8 8 7 6 6 5 5 9 14 17 18 17 18 17 18
2 3 3 3 3 4 7 3 3 5 7 7 5 7 2 10 9 11 5 3 2 2 3 4 5 6 7 8 9 9 8 7 7 7 7 6 6 7 9 12 16 17 17 18
4 3 2 2 2 8 4 4 2 2 2 2 7 4 5 8 12 10 4 3 2 0 2 4 6 7 8 9 10 10 9 8 7 8 7 6 7 7 8 9 10 11 13 14
4 6 6 5 4 4 1 6 3 2 3 5 5 5 4 16 15 10 5 3 2 1 3 5 5 6 7 7 8 8 8 8 7 8 7 7 8 8 8 8 8 9 11 12
5 3 5 5 4 6 3 2 2 3 3 3 4 4 8 15 16 10 4 2 2 2 3 4 4 5 5 6 7 8 9 9 10 9 9 8 8 9 9 10 10 11 12 12
4 5 4 3 2 4 6 6 8 3 5 1 4 4 10 16 13 7 3 4 2 1 2 2 2 3 4 5 7 8 10 10 11 11 10 10 10 10 10 11 12 11 11 10
4 4 4 2 2 3 5 8 6 1 3 3 4 5 7 12 8 4 1 4 3 1 1 0 1 2 4 6 7 8 9 10 10 11 10 10 11 11 12 11 11 11 10 9
2 2 3 3 4 3 4 10 10 5 2 4 6 4 11 10 8 5 3 5 3 2 1 1 1 1 3 5 6 8 9 9 10 10 11 11 11 11 11 11 11 12 11 11
2 3 1 1 1 2 4 7 13 8 8 4 1 4 10 9 4 2 1 2 2 2 1 1 1 1 3 4 6 7 8 8 8 9 8 8 8 10 11 11 13 13 15 15
1 2 1 2 2 6 8 10 9 13 14 14 13 13 10 10 1 2 2 3 5 3 2 2 1 1 2 4 4 4 5 5 6 7 6 8 9 12 13 13 14 16 16 16
4 4 1 1 1 5 9 16 16 10 8 14 10 7 5 0 2 4 3 4 4 4 3 3 2 2 2 3 2 3 4 4 6 6 7 9 10 14 13 14 18 19 20 21
4 4 1 2 2 3 2 3 3 17 9 14 10 9 5 6 1 2 3 3 3 3 3 3 3 3 3 3 3 4 4 6 7 8 9 10 10 15 13 17 19 19 20 22
3 4 2 3 4 9 6 4 4 7 5 16 14 11 8 2 3 5 5 1 1 2 4 4 3 4 3 3 3 5 5 7 8 10 12 12 13 16 17 18 19 19 20 20
3 2 3 2 3 3 4 4 2 4 3 4 5 5 5 7 4 4 8 5 5 5 5 6 5 4 4 3 4 6 7 9 10 11 13 13 15 15 15 16 17 17 17 17
5 4 8 6 4 6 5 7 1 3 4 4 1 2 5 7 3 9 9 7 6 6 6 6 6 5 4 5 7 9 12 12 10 13 14 14 14 15 14 13 11 11 10 9
8 6 4 5 4 7 4 4 4 4 3 3 4 2 3 3 6 8 7 8 7 7 8 8 8 7 6 7 9 10 12 13 14 14 15 12 8 7 8 7 7 7 7 7
5 6 3 7 4 3 2 2 3 1 4 7 4 1 2 6 7 9 8 7 7 8 8 9 10 9 8 8 10 12 13 14 13 10 9 8 8 7 6 6 5 5 4 4
8 7 4 3 5 11 8 7 1 3 3 4 3 3 2 5 7 9 9 8 8 10 10 11 13 11 10 10 10 12 11 10 11 10 9 9 8 7 6 5 4 4 3 3
1 9 8 10 10 5 6 7 6 2 4 2 4 5 4 5 7 10 9 9 11 12 12 13 13 13 13 12 11 11 10 10 10 10 9 8 7 6 6 5 4 4 3 3
8 8 7 5 3 5 6 7 2 2 3 3 5 5 5 6 7 10 9 12 13 15 15 14 14 14 15 14 12 11 10 10 10 9 8 7 7 6 5 5 5 5 5 4

GFSCGP_925_spd_066.txt.gz
Wind_Speed
13 7 16 23 15 11 12 13 13 14 10 18 17 12 12 6 6 7 8 7 6 6 8 4 6 6 8 10 11 12 12 12 15 20 17 22 25 25 24 27 28 21 24 24
10 10 11 14 14 16 7 12 16 3 12 9 11 14 13 9 10 9 8 8 7 4 5 8 8 5 7 10 10 11 14 15 17 18 22 18 22 25 28 26 29 29 23 22
9 4 7 11 12 13 14 12 13 6 5 3 3 8 11 7 3 2 3 5 5 5 5 7 8 7 6 9 7 9 10 12 13 9 12 17 14 19 16 22 24 26 27 31
5 4 11 6 9 16 11 9 8 10 6 3 8 3 14 15 5 5 6 6 6 5 5 5 8 7 8 6 5 6 7 8 14 16 14 13 14 12 20 20 19 19 18 21
3 3 8 5 7 12 4 7 8 8 7 1 8 1 2 12 7 6 8 7 6 5 7 7 6 6 7 6 7 7 7 5 4 6 9 14 17 18 20 16 17 17 18 21
4 2 2 2 4 6 6 8 9 2 1 2 7 6 4 7 12 10 8 8 7 6 6 6 6 4 7 7 8 8 8 7 6 6 6 7 11 16 17 15 14 15 14 13
3 2 4 2 6 2 6 9 3 2 2 4 2 6 5 12 13 9 8 9 7 7 6 5 6 6 7 8 10 10 10 9 8 8 8 7 7 9 11 13 13 13 12 15
2 2 2 3 1 5 3 2 3 5 5 4 2 5 4 8 12 9 8 8 6 6 6 5 5 6 9 10 12 12 11 10 9 9 9 10 9 8 7 8 9 9 10 12
4 1 1 4 2 2 3 3 2 3 3 4 5 3 3 2 9 8 8 7 7 6 5 5 6 9 9 9 10 10 10 9 10 9 9 9 9 9 8 8 7 7 7 8
6 4 2 3 2 4 1 3 2 1 2 3 4 6 4 11 12 9 8 7 7 5 6 5 6 8 7 7 7 8 9 9 9 9 9 8 9 10 10 9 11 9 10 10
4 3 5 8 6 8 3 1 2 2 1 1 2 3 4 15 12 9 8 7 7 6 5 4 6 6 5 6 7 9 10 10 11 10 11 10 10 9 8 8 8 8 7 8
4 4 3 2 2 2 3 3 7 3 3 2 3 2 7 10 9 7 7 6 6 5 4 5 5 3 6 6 7 8 9 10 10 10 10 10 9 8 7 9 9 9 9 7
3 2 3 2 1 2 2 3 3 5 3 2 2 3 8 9 8 5 6 8 7 6 5 5 5 5 6 6 5 7 9 9 9 8 9 10 10 10 11 10 9 10 11 11
5 1 1 1 3 3 3 6 6 5 3 3 4 4 7 11 8 7 8 6 7 6 6 4 4 7 7 6 5 7 8 8 9 9 10 11 11 11 12 11 12 13 13 14
3 1 3 2 2 2 4 5 7 6 5 4 2 2 11 8 7 6 7 6 6 4 5 4 2 5 6 6 7 7 7 7 8 9 10 10 10 10 11 11 11 13 15 17
2 1 3 3 1 3 4 7 8 8 9 9 7 7 5 4 6 6 7 7 5 4 4 4 4 5 6 7 5 6 8 8 8 9 9 8 10 9 11 10 11 15 17 19
5 4 2 1 2 4 6 12 13 7 7 10 9 8 3 4 4 4 4 7 6 6 6 6 5 6 8 6 5 9 7 5 7 7 7 9 8 10 11 13 16 21 21 22
4 5 2 2 2 1 5 3 3 14 9 9 6 8 5 5 6 5 3 4 7 7 6 5 7 9 7 6 6 8 6 7 6 7 7 7 9 13 14 16 19 20 19 20
1 4 3 2 4 6 6 4 3 6 9 12 12 7 6 5 4 3 6 3 5 6 7 9 10 10 7 6 7 9 8 7 7 8 9 9 12 16 16 18 18 17 18 18
1 2 2 2 1 3 3 4 1 2 2 4 9 7 6 6 2 2 7 6 6 8 10 11 10 8 7 5 7 10 9 8 9 9 11 11 14 15 17 16 15 16 16 16
3 3 4 4 2 5 5 6 1 2 3 5 5 2 3 4 2 5 8 6 10 10 9 12 12 9 8 8 8 11 10 9 11 12 13 14 14 15 14 13 13 13 11 11
7 5 4 4 3 7 4 2 1 3 4 5 3 2 2 7 7 6 6 6 7 9 10 11 11 10 9 8 12 14 12 12 13 14 15 13 12 10 10 9 8 7 7 6
4 4 4 6 4 3 5 4 4 3 3 3 4 4 3 5 5 7 6 6 8 11 12 11 14 10 8 11 13 15 16 15 14 11 10 10 10 9 7 8 7 5 4 5
5 4 2 3 5 7 6 6 4 2 4 5 5 3 1 3 7 8 7 6 6 10 12 13 15 11 11 12 15 16 18 15 12 11 10 9 9 8 6 5 5 4 4 3
3 5 6 5 6 3 4 6 8 6 4 3 5 3 2 2 5 7 6 7 9 12 14 17 17 13 13 15 17 17 15 14 13 12 11 10 9 8 8 7 4 2 2 2
4 4 4 4 2 2 2 6 6 4 2 3 1 2 4 3 4 7 7 13 14 15 16 17 17 15 16 17 16 18 17 16 16 14 13 11 10 9 6 6 5 4 2 1

GFSCGP_925_spd_069.txt.gz
Wind_Speed
7 5 15 15 10 2 9 8 5 7 7 7 14 8 9 7 3 8 7 7 6 6 2 10 9 6 3 0 2 3 6 3 10 22 24 25 27 26 26 27 29 26 22 24
7 10 6 8 10 9 4 3 8 3 7 14 10 14 9 12 7 8 9 8 5 2 5 6 9 9 8 5 4 5 6 8 8 9 10 15 22 26 30 28 27 25 27 27
3 5 11 10 9 9 4 7 4 5 2 2 3 9 14 13 6 7 5 5 4 6 7 6 12 13 9 7 7 6 8 9 10 8 8 8 6 11 15 23 24 24 23 23
3 1 9 7 8 4 4 6 10 11 5 4 5 4 9 15 9 7 7 6 7 7 6 6 9 10 9 7 5 6 7 5 7 10 11 9 7 7 8 12 19 22 19 18
2 5 6 5 4 3 6 6 7 3 6 3 2 1 7 8 9 8 8 7 7 6 8 7 8 9 8 6 6 6 8 7 7 7 5 7 8 9 12 12 10 12 19 18
4 3 4 2 3 3 8 3 8 4 3 1 6 6 5 6 19 6 4 8 8 8 7 7 9 10 8 6 6 8 8 9 8 7 9 9 7 7 8 9 11 8 7 8
5 3 3 2 3 5 4 6 2 1 0 5 3 7 11 5 4 8 11 9 8 8 8 7 6 8 8 9 8 8 9 10 8 7 8 8 7 7 9 10 8 6 6 8
4 2 2 0 1 4 9 3 5 6 4 4 2 7 6 7 9 12 11 9 8 8 7 7 7 9 9 8 8 7 8 9 9 7 8 6 6 6 6 7 7 7 6 5
4 3 1 4 2 7 5 5 4 3 2 3 4 4 6 5 8 11 12 9 8 8 7 7 9 9 8 8 8 8 8 9 9 8 7 8 7 7 7 6 5 6 6 7
4 5 2 3 1 2 3 4 2 2 2 4 4 4 4 7 10 10 9 8 7 6 7 6 8 8 7 7 7 8 9 10 10 10 10 10 9 8 6 6 7 7 6 7
5 3 3 3 4 6 4 3 3 0 4 4 2 5 5 14 14 12 9 8 8 8 7 7 8 9 9 8 7 8 8 8 10 8 6 6 6 6 6 7 8 8 7 8
2 4 3 2 8 8 4 4 3 3 4 1 3 5 4 8 9 8 7 8 7 8 7 7 9 10 9 9 7 7 7 8 9 7 6 7 6 6 7 8 9 8 7 6
3 2 3 2 4 2 5 6 7 1 2 4 4 5 1 7 7 7 8 7 7 7 7 6 8 9 10 9 8 8 7 8 7 5 7 8 10 9 9 9 8 9 9 10
1 3 5 6 4 4 5 5 6 5 3 2 5 3 3 7 9 7 7 8 8 8 7 6 6 9 10 9 9 7 7 6 7 7 8 9 9 9 10 9 10 12 12 13
3 3 2 1 3 3 4 4 7 6 5 6 3 6 11 12 9 9 8 6 7 7 7 6 6 7 10 10 9 8 7 7 6 8 9 8 8 6 8 8 9 10 12 16
2 3 3 3 3 3 4 7 8 8 6 6 3 5 6 4 4 6 9 8 8 7 7 7 7 10 11 11 9 9 10 9 9 9 9 8 9 8 9 9 12 13 14 16
4 4 3 3 3 2 6 13 14 6 6 12 9 9 1 3 7 7 8 8 8 7 7 7 7 10 12 10 10 11 8 7 7 9 8 9 8 9 11 13 14 14 14 15
5 5 3 3 1 1 6 4 7 18 10 8 5 7 5 7 6 7 6 7 7 7 7 6 11 14 13 11 13 11 6 7 7 8 9 9 10 12 13 13 13 12 12 14
3 4 2 3 3 6 2 4 5 7 9 11 11 7 6 4 4 3 5 4 6 7 8 12 15 14 13 13 14 12 10 9 9 9 9 11 13 13 13 13 13 13 15 16
2 3 4 2 2 5 3 2 1 3 3 2 12 11 6 7 4 4 7 6 6 11 16 17 16 15 14 11 15 14 12 11 10 10 11 14 14 14 14 14 14 13 14 13
2 2 4 4 3 6 5 3 3 2 3 2 7 6 6 5 4 3 7 5 11 15 16 16 15 13 12 13 17 14 12 12 13 13 14 13 14 14 14 12 14 14 11 11
7 6 4 4 4 7 5 3 4 3 2 4 4 4 4 5 6 6 6 8 9 12 16 18 17 16 15 14 11 13 13 14 15 15 14 14 14 13 11 10 9 8 6 6
3 6 4 7 5 4 5 3 3 3 4 3 4 4 6 6 5 7 6 9 10 14 16 18 18 17 12 10 14 16 16 17 17 17 15 13 11 10 9 8 7 7 6 5
4 5 2 2 4 7 6 4 5 4 3 3 3 3 5 5 7 7 6 6 7 13 13 17 19 15 13 15 15 17 20 19 18 17 15 14 13 12 9 8 6 6 6 5
5 5 6 3 5 4 4 6 7 6 6 4 3 4 5 6 6 7 7 8 11 14 15 21 20 16 15 17 17 19 21 20 18 17 17 16 14 13 11 8 6 6 4 4
3 5 4 4 5 4 2 1 6 7 5 4 2 2 2 3 5 6 6 12 14 15 18 19 20 18 17 19 19 20 20 22 19 18 18 16 15 14 12 10 7 5 4 3

GFSCGP_925_spd_072.txt.gz
Wind_Speed
9 5 13 5 6 5 7 1 5 5 5 5 7 4 10 9 4 7 7 7 6 5 2 7 8 10 12 11 9 8 8 11 18 22 23 22 24 28 30 30 26 24 23 26
5 8 5 8 6 5 7 6 4 2 4 4 6 14 9 11 6 6 8 8 8 3 4 7 8 9 9 5 3 3 3 4 5 11 21 22 20 23 28 25 26 28 28 27
8 7 8 8 7 6 1 5 3 4 2 2 4 6 9 8 4 5 7 5 5 9 8 6 8 8 7 5 4 2 5 5 5 7 7 8 13 16 14 17 20 21 23 24
4 4 10 7 8 5 5 4 6 2 3 4 4 5 6 9 15 10 10 7 8 7 6 5 8 8 6 6 4 5 4 3 1 3 7 10 8 8 6 6 10 14 17 18
2 4 13 7 5 5 5 3 5 2 5 3 1 1 6 3 9 16 10 9 8 8 9 8 9 11 9 7 6 6 5 5 6 6 3 1 4 7 8 8 9 7 12 14
3 1 3 3 2 3 3 2 6 4 4 2 5 5 5 6 8 8 5 6 9 9 8 8 12 12 10 8 7 7 7 7 6 6 6 5 4 2 1 2 3 4 1 4
3 3 1 2 5 4 2 4 2 2 4 5 3 5 15 6 7 7 8 9 8 8 8 8 8 10 9 7 6 5 5 6 6 6 5 7 7 6 5 4 4 3 1 2
4 3 3 2 1 5 3 3 4 5 4 4 2 8 7 5 7 7 13 13 10 8 7 8 9 11 9 6 4 4 4 4 5 5 4 3 3 3 3 3 2 3 3 3
4 1 2 2 2 3 4 6 2 2 3 3 5 7 9 2 2 8 12 10 9 8 7 8 10 11 8 6 6 5 5 6 5 5 4 4 3 3 4 4 3 2 3 4
7 4 4 3 1 0 3 2 2 3 3 3 4 5 6 3 8 11 12 11 9 7 7 7 9 10 9 8 8 7 7 7 7 7 6 6 5 4 4 4 4 4 4 4
5 4 4 5 7 9 5 4 6 3 4 4 3 5 5 10 12 15 12 12 11 8 7 7 9 10 10 9 8 7 6 6 6 5 5 4 4 4 4 5 5 6 5 5
7 5 4 2 4 7 7 5 4 4 4 2 3 5 5 7 8 8 10 9 8 8 8 7 11 13 11 10 8 6 6 6 5 4 4 5 5 5 5 7 8 7 7 6
6 0 3 1 1 3 4 5 5 2 3 5 5 5 4 3 7 6 8 7 8 8 7 6 8 11 12 10 8 6 5 5 4 3 4 6 7 7 8 8 8 8 8 9
3 4 6 7 5 5 5 7 12 8 4 3 5 4 2 4 8 7 7 9 9 10 9 7 6 10 13 11 10 7 6 5 4 4 5 6 7 6 7 7 8 10 12 12
4 5 4 5 4 4 5 6 10 10 11 8 7 7 6 10 10 11 10 7 7 7 7 7 7 8 14 13 12 9 7 6 5 5 5 6 6 5 5 6 7 8 11 12
2 2 2 3 4 4 3 7 9 12 5 7 5 5 7 7 2 5 8 8 8 7 7 7 7 11 14 15 13 11 9 7 6 6 6 6 6 6 7 8 10 12 13 14
3 4 3 4 1 3 6 13 15 7 7 13 9 13 2 6 12 9 8 9 10 8 8 8 8 14 18 17 16 14 11 9 7 7 6 5 6 8 10 11 12 13 13 15
5 5 2 2 3 2 6 3 5 15 7 10 4 6 7 5 5 7 6 9 8 8 8 8 11 15 17 16 17 14 12 9 8 8 7 7 8 11 12 12 11 12 13 15
4 5 2 3 3 7 4 4 6 7 8 14 15 8 6 3 4 2 6 6 7 7 7 12 18 19 17 18 18 15 12 10 10 9 8 8 11 12 11 11 11 11 14 14
4 3 4 2 1 5 4 1 3 3 5 6 12 9 7 7 5 4 7 5 6 10 13 16 17 17 19 19 18 16 14 12 11 11 11 12 12 13 13 12 12 10 10 15
3 2 5 5 4 7 7 3 4 3 4 1 8 10 8 5 4 2 8 4 7 11 15 17 20 21 19 20 19 17 15 14 12 12 13 14 14 13 12 13 13 10 9 8
6 6 3 3 4 8 4 2 5 4 2 2 4 5 7 5 5 5 7 8 8 11 15 18 18 16 15 18 20 17 14 13 14 15 16 15 15 14 12 14 12 9 7 6
4 6 5 7 5 5 5 4 4 4 2 1 3 3 6 6 5 7 6 7 8 13 15 19 18 17 16 17 16 13 13 16 18 18 17 16 15 14 13 12 10 9 9 7
4 4 3 2 5 6 6 4 3 4 3 2 2 3 3 4 6 6 6 7 7 12 14 17 17 18 16 13 12 12 17 19 19 18 18 17 16 15 12 11 10 10 10 10
5 6 6 4 5 5 5 6 5 4 4 4 3 3 3 4 4 6 7 7 10 14 16 20 20 18 18 17 16 16 20 22 20 19 19 17 15 14 13 12 11 11 10 10
5 6 5 5 6 4 5 2 4 7 5 5 4 2 0 2 4 5 5 11 14 15 19 19 21 20 21 21 20 21 23 24 23 21 19 18 17 16 15 13 10 10 9 8

GFSCGP_925_spd_075.txt.gz
Wind_Speed
1 3 13 6 4 4 6 2 4 2 4 5 5 3 7 10 6 7 9 9 9 8 1 6 11 11 11 12 12 14 19 24 21 18 18 23 27 26 26 26 23 22 22 24
1 7 6 8 7 5 6 6 2 2 2 3 4 9 8 11 8 7 8 9 10 5 5 7 11 13 9 9 9 9 9 9 13 19 22 20 18 20 23 25 26 29 28 25
4 7 10 7 4 5 3 4 3 2 2 2 3 6 11 11 6 7 8 7 6 9 9 7 10 11 10 8 6 5 5 6 8 8 10 15 20 21 21 20 20 22 22 23
1 6 11 8 5 4 3 2 2 2 2 3 5 5 7 9 14 9 11 9 8 8 5 4 10 11 9 7 6 6 5 3 4 7 10 11 12 12 14 15 13 12 12 15
3 9 11 8 5 6 5 1 6 4 1 2 2 2 5 3 7 17 14 9 8 9 9 9 10 12 11 9 7 7 8 7 6 3 3 7 9 10 10 11 11 10 9 12
3 2 3 3 3 2 2 5 6 4 3 2 6 5 5 7 8 6 7 9 10 9 8 7 12 13 11 9 9 8 8 8 6 6 5 3 2 2 2 1 3 6 6 6
3 2 1 2 5 4 3 6 2 1 1 5 3 5 13 5 5 6 8 8 9 9 9 8 8 12 11 9 7 5 5 6 5 4 4 4 4 3 3 3 3 2 2 3
3 4 4 0 2 5 3 6 4 5 4 4 4 8 6 6 7 7 8 7 7 8 7 9 10 14 11 8 6 5 5 5 3 3 3 3 2 1 1 1 1 2 2 3
4 1 2 1 1 2 4 3 4 5 3 3 4 8 8 7 8 5 8 9 10 9 8 9 12 14 11 8 6 5 5 5 4 3 3 3 3 2 3 2 2 3 3 4
5 4 2 4 1 1 1 4 2 2 1 4 5 6 8 5 8 5 8 12 10 8 8 7 10 14 11 9 8 7 5 6 6 4 3 3 3 2 2 2 2 3 3 3
5 3 3 4 6 7 4 4 2 1 4 5 2 6 7 6 8 8 8 8 11 11 9 7 10 13 13 11 10 8 6 5 5 4 3 2 2 2 2 2 3 3 3 3
4 3 4 5 1 4 6 7 7 4 5 2 2 6 2 5 6 7 7 9 9 9 8 7 12 15 14 12 10 8 7 6 5 4 3 2 3 3 3 4 4 4 4 4
5 1 3 1 3 4 7 9 8 2 1 6 5 5 1 5 2 6 8 8 8 8 7 7 9 12 14 13 11 9 8 7 5 4 3 4 5 5 6 6 6 6 7 7
9 4 5 6 3 4 5 10 17 12 4 3 6 5 3 1 5 6 7 8 8 9 10 7 6 10 15 15 14 12 10 8 7 6 5 4 4 3 3 3 4 7 8 10
5 5 4 5 6 5 5 7 16 21 18 8 5 8 7 6 9 10 9 8 7 7 8 8 8 8 15 15 14 12 11 10 8 7 6 6 4 2 2 4 5 6 9 10
1 2 3 3 4 6 5 7 10 17 15 14 17 9 7 4 4 6 9 9 8 8 9 8 7 11 15 18 17 15 12 11 10 8 7 6 4 4 5 6 8 10 12 12
6 5 3 4 3 2 6 15 14 7 9 11 9 18 2 5 8 10 8 9 10 10 9 9 10 13 18 20 19 17 14 12 11 9 8 6 6 7 8 9 10 10 12 13
6 6 3 2 2 2 7 3 7 16 16 13 12 5 8 8 6 6 8 10 9 8 8 7 11 15 18 19 18 16 14 13 11 9 8 7 8 9 10 10 11 11 11 11
5 5 3 3 3 7 6 2 5 6 6 15 17 15 8 4 2 4 6 6 7 8 6 12 17 17 18 20 19 17 15 12 11 10 10 10 11 13 12 11 11 12 12 13
3 2 4 3 2 5 4 3 4 3 5 4 11 11 8 6 5 4 6 5 5 7 11 13 14 16 19 19 20 18 16 14 12 12 12 11 13 13 13 12 12 14 13 13
3 2 7 5 3 7 7 5 4 2 5 4 3 7 7 5 4 3 6 4 7 10 13 15 18 21 21 20 20 18 16 15 13 13 13 13 14 14 13 14 13 12 13 10
6 7 4 3 4 8 5 3 5 5 3 3 4 4 6 5 4 3 5 6 7 10 14 16 18 16 17 19 20 18 16 12 12 14 15 15 15 14 15 14 13 11 10 9
3 6 5 7 6 4 4 5 3 3 2 2 1 1 6 6 4 5 4 5 5 10 13 16 17 16 15 17 20 18 16 14 15 16 17 17 17 16 15 16 13 11 10 9
3 4 4 3 5 8 6 4 5 5 3 1 2 3 4 3 4 5 5 5 5 10 12 15 15 14 15 17 18 18 16 16 18 20 19 19 18 16 14 13 12 12 12 11
5 8 6 4 5 3 5 7 5 4 3 2 3 3 4 6 5 5 5 6 9 11 13 17 17 16 18 19 18 16 16 21 21 20 20 20 19 16 15 14 13 13 12 12
5 6 5 5 7 5 5 2 4 6 5 5 4 3 2 2 2 3 4 8 12 13 15 17 18 19 20 20 19 18 19 22 23 20 22 22 20 19 17 16 14 13 12 11

GFSCGP_925_spd_078.txt.gz
Wind_Speed
6 4 10 4 3 5 6 5 6 3 4 9 12 8 14 13 8 16 20 14 10 8 6 8 8 10 11 10 14 18 17 19 18 19 19 20 22 23 25 25 23 20 20 21
4 6 7 7 3 5 6 5 2 1 2 6 8 10 9 16 15 20 21 20 9 6 3 5 8 10 10 10 9 10 12 16 20 20 19 17 15 21 27 25 25 25 25 22
1 4 8 6 4 5 2 6 3 2 2 1 4 6 8 8 7 11 14 11 6 9 8 6 10 13 12 11 11 9 9 9 9 9 12 15 17 17 16 17 16 15 16 19
1 2 11 7 4 5 2 3 5 2 3 3 1 4 6 12 13 10 17 15 11 9 6 5 8 10 11 10 9 8 8 7 7 9 10 10 10 11 11 12 12 10 11 12
2 6 9 5 4 3 2 2 4 3 3 3 2 2 4 3 8 20 16 9 9 9 9 9 12 13 12 11 9 8 6 5 3 4 6 9 11 11 11 9 9 8 8 8
2 1 3 3 3 3 4 5 6 4 2 2 7 6 4 6 7 5 6 10 12 11 9 8 14 14 13 12 12 11 9 7 5 4 3 2 3 4 6 5 6 8 8 7
4 3 1 2 6 3 4 3 1 2 1 5 3 5 11 4 7 7 8 8 9 7 9 11 11 16 16 14 13 11 9 9 6 4 4 3 3 2 2 1 0 1 2 4
3 4 4 1 2 5 4 6 4 5 4 4 1 7 5 5 6 8 8 6 6 8 8 10 12 18 18 15 12 11 9 7 5 4 3 3 2 1 1 1 1 1 2 3
3 2 2 1 2 1 4 3 4 4 2 3 4 7 8 7 9 8 8 5 7 9 11 10 12 18 16 14 11 10 9 7 6 5 4 3 3 2 1 1 1 2 3 3
4 4 1 2 1 3 1 5 2 2 2 4 5 5 6 6 7 5 8 8 6 6 6 7 10 17 14 13 12 11 9 8 7 5 4 4 3 2 1 1 2 3 3 4
5 3 2 6 5 6 3 3 1 3 4 4 3 5 6 5 7 8 8 7 7 7 9 7 9 14 14 13 12 12 10 9 8 5 4 3 2 1 1 2 2 3 3 3
6 4 4 4 1 2 4 3 5 3 4 1 3 9 3 6 8 7 7 6 7 7 7 7 12 15 15 14 13 11 10 9 8 6 4 3 3 2 2 2 2 3 3 3
6 1 3 1 1 0 5 6 8 3 2 7 3 6 0 4 6 4 7 7 7 7 8 7 9 12 16 15 15 12 10 9 8 7 5 5 4 4 4 4 4 4 4 4
5 3 5 7 5 5 6 9 13 12 7 8 15 9 6 5 5 5 5 6 7 9 9 7 6 10 16 17 15 14 12 10 9 8 7 6 5 3 2 1 2 3 6 7
5 5 5 5 4 4 6 9 14 19 18 12 1 14 13 13 6 6 7 7 7 7 9 10 9 9 16 17 16 14 12 11 10 9 8 8 6 4 2 3 3 4 6 7
3 2 2 3 2 6 5 8 12 19 21 22 23 27 14 9 5 5 9 9 11 10 10 9 8 12 17 21 20 18 15 14 12 10 9 8 6 5 5 5 6 8 10 11
7 5 3 4 3 4 6 15 16 8 8 19 19 26 3 6 10 8 8 10 12 11 11 10 12 15 19 24 22 20 17 15 13 12 11 9 7 7 8 9 9 10 11 13
5 6 3 2 2 3 7 2 5 13 15 14 13 13 9 10 8 6 8 10 10 8 8 8 11 17 21 22 21 19 18 17 15 13 12 10 9 9 10 11 11 12 12 13
6 4 3 3 3 6 9 2 5 7 6 11 19 20 14 4 2 5 7 8 11 9 6 11 17 18 19 21 22 21 19 17 15 14 12 11 11 12 12 12 13 13 12 13
3 2 5 3 4 5 5 2 4 3 5 2 5 11 7 6 7 6 4 6 7 10 12 13 15 16 19 21 22 22 20 18 16 14 13 12 12 14 15 14 14 14 15 14
4 3 7 5 4 6 8 6 4 2 5 2 3 6 6 6 6 3 4 4 6 8 11 13 16 19 20 21 22 21 19 18 14 12 13 13 13 14 14 14 15 16 16 13
8 7 4 3 4 7 6 4 6 5 3 2 3 3 5 4 4 2 4 5 5 7 11 14 15 14 16 20 21 19 18 14 13 12 13 14 14 15 16 16 16 17 14 12
4 6 5 7 6 3 6 5 4 3 3 3 2 0 5 5 3 3 4 6 5 10 10 10 12 13 14 17 19 19 16 15 15 14 15 15 16 17 17 18 17 15 14 11
3 3 3 3 5 7 7 5 5 4 4 2 1 2 4 5 6 5 5 5 5 9 12 13 14 14 15 17 18 16 16 15 15 16 17 18 19 19 18 17 17 16 15 13
4 3 6 3 6 5 6 7 5 6 4 3 2 1 2 5 4 4 4 5 7 11 12 16 17 16 18 18 17 17 17 16 17 19 19 20 20 19 19 19 19 18 15 14
4 6 5 6 7 5 6 3 4 7 6 6 5 3 2 2 3 2 2 5 8 10 12 14 16 16 16 16 18 19 18 16 19 19 20 22 22 21 19 19 18 17 15 14

GFSCGP_925_spd_081.txt.gz
Wind_Speed
1 2 10 4 3 3 6 5 5 2 7 8 12 11 7 10 3 5 10 13 15 14 15 9 6 10 11 15 18 18 17 16 17 18 19 20 22 23 24 24 23 22 20 19
3 5 5 5 4 6 5 7 3 1 2 13 7 14 10 11 9 7 13 16 16 10 6 9 6 8 11 11 14 17 18 19 20 19 18 17 15 17 21 19 19 21 22 23
1 5 11 4 4 7 2 5 4 4 2 2 4 10 8 9 9 11 10 17 16 12 9 8 10 10 9 11 10 12 14 16 18 19 18 16 15 14 13 13 14 15 16 17
2 2 11 6 3 4 3 3 5 5 3 3 2 4 6 14 18 17 16 16 17 9 4 5 9 12 12 10 10 10 11 11 11 11 12 12 13 12 11 11 12 12 12 13
3 6 7 6 6 3 3 3 5 3 3 2 0 2 5 5 18 17 16 17 19 9 10 8 13 16 13 11 10 10 10 9 7 6 7 8 9 9 10 9 8 8 8 8
2 0 2 2 3 2 7 5 6 3 2 2 5 5 3 5 10 7 14 19 20 17 14 12 14 15 14 14 13 12 10 8 6 4 3 3 4 5 5 5 5 6 7 8
2 2 2 2 5 3 2 4 2 1 1 4 2 3 10 9 7 6 9 10 13 15 10 11 13 18 19 18 16 14 12 10 8 6 5 4 3 2 2 1 1 1 2 3
2 2 4 1 2 5 3 4 4 6 4 3 1 5 5 6 7 6 6 4 2 5 6 11 14 19 23 22 18 15 13 11 9 7 6 5 4 3 2 1 2 2 3 4
3 2 1 2 2 1 4 4 3 4 1 1 3 4 9 6 10 6 7 4 7 6 8 11 14 17 19 19 18 16 14 11 9 8 7 6 5 4 3 2 2 3 4 5
5 3 1 2 2 3 1 5 2 1 2 4 2 3 5 5 1 6 7 7 6 4 7 8 13 15 16 15 14 13 12 12 11 9 7 6 5 4 3 3 3 3 3 4
5 4 3 5 5 7 3 3 1 2 3 3 1 4 5 5 2 6 10 8 6 6 8 9 11 15 16 15 15 13 12 11 10 8 8 7 5 4 3 3 2 2 2 2
5 3 5 4 2 1 2 5 5 3 4 0 1 7 3 5 4 3 9 9 2 6 9 10 13 15 15 15 15 14 13 11 10 9 8 7 6 5 4 2 2 1 1 2
7 3 4 3 1 1 5 6 6 3 3 6 3 3 2 1 5 2 3 5 4 7 7 9 11 13 15 16 15 14 13 12 10 9 8 7 6 6 5 3 3 3 3 2
7 3 5 7 4 5 5 7 10 9 5 6 17 11 17 15 8 5 4 5 6 7 10 10 9 13 17 18 17 16 14 12 12 10 9 8 7 5 4 2 1 1 3 4
7 4 4 5 4 4 5 7 13 15 17 11 4 19 17 19 15 5 6 4 7 10 9 11 10 11 15 18 18 16 14 15 13 12 11 9 7 6 5 5 4 3 4 3
2 2 2 4 4 6 4 7 9 18 20 20 23 25 19 15 6 8 9 6 9 10 11 12 11 13 16 21 22 20 19 17 16 14 13 11 8 7 6 6 6 7 8 8
7 5 3 3 0 1 4 14 18 10 8 18 17 24 9 11 9 14 15 9 14 14 14 12 13 18 20 26 27 25 22 19 17 15 13 12 10 8 7 8 9 10 10 11
5 5 2 2 1 4 6 2 8 15 16 15 11 18 12 13 14 10 8 8 11 10 11 10 12 16 23 25 24 22 21 20 18 16 14 13 11 9 9 10 11 12 12 12
6 3 3 3 3 5 8 2 5 7 8 12 19 18 16 7 4 13 8 9 10 11 11 16 21 22 23 24 25 24 23 21 18 16 15 14 11 11 13 14 14 14 14 13
4 5 3 3 4 5 5 2 4 3 5 2 5 7 7 4 4 6 6 6 8 8 13 15 17 18 21 23 24 25 23 21 20 19 18 15 14 15 16 15 16 14 13 14
5 3 8 4 4 6 7 5 5 2 4 2 2 5 4 5 6 2 3 1 3 5 10 14 18 20 21 23 24 24 23 23 20 17 16 15 15 15 16 16 17 16 16 16
8 7 3 4 3 8 7 5 7 5 2 3 3 3 3 5 4 2 2 3 4 7 10 14 18 16 18 21 23 22 22 19 17 17 16 16 16 16 17 17 17 18 18 16
2 4 4 7 6 2 6 4 6 4 3 3 3 1 2 4 3 2 2 3 3 7 10 12 16 16 16 19 20 21 19 18 19 18 17 17 18 18 18 19 20 19 19 17
2 4 2 1 5 6 6 4 4 6 5 3 2 1 4 4 3 2 4 4 4 9 11 13 15 15 15 18 18 16 16 19 20 18 17 19 20 20 19 19 20 19 21 19
3 4 2 5 6 5 5 7 6 5 6 4 2 2 3 5 3 4 4 4 5 9 11 14 15 15 15 17 17 16 17 19 19 17 18 20 21 20 21 20 22 22 20 18
5 5 3 4 4 3 5 2 4 7 7 7 5 3 2 3 5 3 2 3 7 9 10 12 12 13 14 16 17 18 19 21 19 19 20 22 22 22 21 21 20 21 18 17

GFSCGP_925_spd_084.txt.gz
Wind_Speed
4 3 11 16 10 1 11 10 12 8 7 8 15 15 14 10 8 10 11 15 16 12 11 11 11 8 7 12 16 17 17 17 16 16 15 14 14 14 14 13 13 12 12 13
2 4 8 6 8 7 10 11 9 5 6 8 9 15 15 13 11 12 13 16 21 16 12 12 10 8 8 10 10 14 15 16 18 15 15 12 11 11 10 9 11 12 13 13
3 3 6 8 8 10 9 14 9 3 5 11 7 14 16 15 15 13 16 12 17 20 15 12 13 11 7 8 8 10 10 11 13 13 11 10 9 9 7 7 8 9 13 14
1 1 13 11 11 11 11 5 7 8 11 6 8 4 6 14 17 18 17 17 13 14 14 13 12 11 9 8 7 8 12 13 15 16 12 12 11 11 7 6 8 9 12 13
2 5 15 13 11 8 3 5 9 4 7 3 8 5 9 7 15 16 18 20 19 13 13 13 14 11 10 10 10 9 10 11 12 11 10 8 7 6 7 7 6 7 8 9
1 1 8 7 3 3 10 8 7 4 5 8 13 11 8 7 10 14 17 19 18 15 15 16 19 14 13 12 12 12 11 10 11 10 9 8 7 5 5 5 4 5 6 8
1 3 3 3 10 7 9 12 4 5 6 7 1 10 14 8 9 8 7 11 16 14 18 18 12 17 18 19 16 14 12 10 9 8 7 6 5 4 4 3 3 3 3 4
5 6 8 6 8 7 14 13 4 6 5 3 3 7 3 7 7 9 12 8 3 8 11 13 10 13 14 15 16 15 14 10 8 7 7 6 6 4 4 4 3 3 2 4
5 2 2 2 3 3 8 6 1 1 1 3 4 4 11 12 10 7 6 7 10 11 8 9 9 15 17 17 16 15 13 11 8 7 6 5 5 4 4 4 4 4 5 5
4 4 4 3 2 1 4 8 4 2 4 5 4 4 5 6 5 2 4 4 6 7 8 8 10 15 16 16 15 13 11 10 9 8 6 5 5 4 4 4 4 4 5 6
7 3 5 5 6 6 4 5 4 3 4 3 2 3 1 1 4 7 8 5 5 4 6 7 10 15 16 15 13 13 11 10 9 7 7 6 5 4 3 3 4 4 5 6
7 2 5 9 2 6 11 12 14 6 6 4 5 6 3 2 5 6 7 4 2 2 4 8 14 18 18 16 15 12 11 11 9 8 7 5 5 4 3 3 4 4 4 5
9 5 5 4 3 3 7 13 13 14 2 8 7 3 0 2 4 2 5 8 4 4 7 9 13 15 16 15 15 15 14 12 10 8 7 6 5 4 4 3 2 1 1 2
11 6 7 7 3 6 9 16 18 13 7 12 16 15 9 11 12 9 10 10 3 3 7 10 12 14 15 16 15 15 13 12 11 11 9 8 7 6 5 4 3 2 1 1
6 6 8 6 3 5 5 13 17 17 17 15 13 19 21 23 22 21 14 7 6 8 10 13 13 12 16 16 15 14 14 14 13 12 11 10 9 7 7 5 4 3 4 4
7 4 5 2 6 7 8 11 12 19 23 23 25 26 20 20 18 19 18 16 12 11 12 15 15 16 18 19 18 17 16 15 14 12 11 11 10 8 6 5 5 5 5 5
8 6 5 3 5 3 6 15 18 14 14 18 20 23 15 16 15 15 14 14 14 15 17 17 18 20 21 21 20 19 17 15 14 13 12 11 9 8 7 6 7 7 7 6
3 7 4 2 5 6 1 3 8 13 19 17 19 22 20 17 17 15 15 17 16 12 12 15 17 21 21 18 18 16 16 16 14 13 12 12 12 10 8 9 9 9 9 9
12 5 3 4 7 6 12 5 6 7 9 14 21 19 18 15 11 19 16 15 16 15 9 13 20 21 18 18 17 18 17 17 16 15 14 13 12 12 11 12 13 13 13 12
6 8 6 3 4 6 1 4 6 5 5 4 7 8 9 3 6 7 7 8 14 15 8 9 14 17 18 18 19 19 19 18 18 17 15 14 13 13 13 16 15 15 14 12
3 3 8 6 5 5 6 6 8 5 1 4 6 6 6 6 7 7 9 6 3 3 6 8 13 15 15 17 19 18 17 18 16 14 13 13 13 12 14 15 17 16 15 12
6 5 4 6 4 10 7 7 6 2 2 2 3 3 5 7 6 6 4 3 1 4 6 8 11 11 12 15 17 16 16 15 15 15 14 13 12 13 15 17 17 17 15 13
4 3 2 6 4 2 10 4 8 3 1 2 3 2 3 3 3 2 2 0 2 4 7 7 9 11 10 12 13 13 13 15 15 14 13 12 12 14 17 19 18 17 14 13
2 2 3 2 4 8 6 8 6 6 9 4 4 2 3 3 2 2 0 1 2 4 6 7 9 9 9 10 10 9 13 14 14 14 13 12 13 17 18 19 20 18 16 16
3 3 2 7 10 9 10 11 10 8 8 7 3 2 2 2 1 1 1 2 2 4 5 6 7 7 9 11 12 12 13 15 14 13 13 13 15 18 20 20 21 22 16 17
8 8 5 3 6 8 7 9 6 7 7 7 5 3 3 1 2 1 2 1 2 4 5 5 6 6 7 10 12 13 14 16 16 15 14 14 16 19 20 19 18 20 16 18

GFSCGP_925_spd_087.txt.gz
Wind_Speed
4 4 9 14 14 6 14 16 15 14 8 11 16 16 18 15 12 13 15 15 18 19 15 11 5 3 6 9 13 14 17 17 15 16 15 15 14 13 13 13 12 11 11 11
1 7 6 12 10 5 9 12 8 5 7 8 12 17 18 18 18 15 16 15 15 18 18 13 10 3 7 9 12 15 16 15 16 15 16 15 14 14 14 13 12 12 12 12
3 2 3 7 9 10 9 12 12 7 11 11 11 15 17 19 18 17 16 15 12 18 21 17 13 8 8 11 12 14 15 15 16 15 13 14 10 10 6 8 8 8 8 9
2 7 7 10 13 11 10 8 5 6 5 9 16 6 18 18 19 19 18 16 15 13 17 18 14 11 10 10 11 10 11 14 15 20 16 13 10 11 10 7 6 5 7 7
3 7 14 12 11 9 2 9 5 5 9 8 9 6 14 11 14 18 17 17 16 12 15 12 14 13 12 13 12 11 9 10 11 11 11 10 11 9 8 7 7 6 7 9
1 7 9 7 6 4 6 7 8 6 8 6 15 11 10 12 13 13 15 16 16 15 15 15 17 14 13 12 12 14 13 9 8 8 8 7 8 7 6 8 6 6 6 7
2 5 3 4 9 7 9 12 5 5 5 8 1 10 16 5 5 7 5 8 13 14 15 17 15 15 15 15 14 14 15 13 9 8 7 6 7 7 6 6 5 4 5 4
6 3 10 12 11 7 13 14 5 9 9 10 5 8 9 8 11 12 7 6 2 8 9 14 14 12 16 16 16 16 17 14 12 10 10 8 7 6 5 5 4 4 3 3
7 6 5 5 5 3 13 10 9 4 1 4 6 10 12 14 8 6 6 6 8 9 7 11 7 6 12 16 17 16 16 15 13 11 10 8 6 5 5 4 4 3 3 4
6 2 8 4 4 7 5 5 5 3 4 8 7 7 8 7 8 4 1 2 3 4 7 7 5 8 17 15 17 16 17 17 13 11 10 8 7 6 4 3 2 2 2 3
5 1 6 5 10 17 9 5 7 3 10 4 6 3 5 3 9 5 6 5 4 3 4 6 9 14 13 16 17 16 14 14 13 11 9 8 6 6 5 3 1 2 3 3
9 4 4 10 7 13 15 17 14 8 7 7 8 5 5 4 2 3 4 5 5 3 2 2 5 10 13 15 16 18 17 15 13 11 11 9 8 6 5 3 2 2 2 4
11 5 4 5 4 7 8 12 16 16 10 7 8 4 4 1 5 4 4 4 5 3 3 5 6 9 13 15 16 15 15 15 14 12 11 9 8 6 5 4 3 2 2 2
7 8 11 9 3 9 11 17 19 15 6 12 15 15 10 5 6 8 9 9 9 5 3 6 9 10 14 17 17 15 14 13 13 12 11 9 7 6 6 5 4 2 1 0
3 6 10 12 6 6 7 14 20 18 17 13 13 18 17 17 17 16 14 14 9 8 7 7 9 10 15 16 15 14 14 13 12 11 10 9 8 7 6 5 4 3 2 1
5 3 6 5 7 9 8 8 14 19 18 20 22 24 20 19 18 18 17 14 13 11 12 10 11 12 16 17 17 16 16 16 14 12 10 9 9 8 7 5 5 4 3 4
4 3 5 2 7 4 6 18 17 17 19 17 19 21 17 17 16 14 14 14 14 13 12 14 13 16 19 20 19 18 16 15 14 12 11 10 10 9 8 7 6 5 5 5
4 8 4 2 6 5 1 3 17 19 18 18 18 18 18 15 15 14 15 16 16 15 12 11 12 18 21 20 19 17 16 15 14 13 12 11 11 10 9 8 8 7 8 8
12 4 3 4 9 7 7 6 6 8 9 13 16 17 15 10 10 15 16 13 17 16 13 12 12 18 21 21 20 19 18 17 16 15 15 14 13 12 11 11 10 11 12 12
12 9 4 3 4 4 5 5 2 3 8 4 3 4 4 2 5 2 5 6 8 11 14 8 8 13 20 21 21 20 19 17 17 16 15 14 13 12 12 11 12 14 13 11
3 5 9 9 6 5 3 9 4 3 2 4 2 2 4 6 6 9 8 7 6 7 9 5 6 11 16 18 20 19 18 17 14 14 14 13 12 12 13 12 14 14 13 12
5 4 4 7 3 8 10 8 5 3 3 1 3 4 5 6 6 5 5 5 4 3 2 4 9 10 11 14 16 14 13 13 14 13 12 12 11 12 13 13 14 15 14 12
3 3 2 5 2 5 8 5 4 7 5 2 3 2 4 5 4 3 5 5 5 3 3 4 8 9 8 10 10 11 11 13 13 13 13 12 11 11 12 15 16 17 16 13
3 2 3 7 2 5 5 7 8 6 7 4 4 5 3 3 4 3 3 3 3 3 4 5 7 8 8 8 8 7 11 12 13 13 12 12 12 12 12 15 17 18 17 14
8 2 3 8 15 12 8 6 10 10 8 7 6 5 4 3 1 2 4 4 3 4 4 3 4 6 7 7 7 7 10 12 12 12 12 12 12 14 14 17 19 20 19 17
7 8 9 6 5 8 10 11 15 10 8 7 6 4 1 1 2 3 4 4 3 3 3 3 3 3 5 6 6 7 10 11 12 12 14 12 12 12 15 17 16 15 17 15

GFSCGP_925_spd_090.txt.gz
Wind_Speed
4 2 5 8 11 5 7 9 11 14 14 12 17 12 11 10 8 7 8 9 9 9 14 24 17 14 14 16 17 20 21 20 19 22 22 22 21 18 16 15 12 11 11 12
4 4 8 9 9 8 3 9 11 11 10 12 8 11 12 11 10 11 10 9 9 8 8 18 19 17 17 18 16 21 22 22 21 24 23 22 23 19 20 17 15 16 13 12
4 0 8 8 7 7 7 11 6 5 7 4 3 7 11 13 12 9 10 8 7 8 4 10 19 22 19 19 18 17 21 20 23 21 20 17 18 15 17 15 14 12 10 10
4 4 6 5 7 7 6 2 7 5 3 3 8 4 8 17 13 12 9 9 9 9 9 8 13 21 20 18 20 19 15 19 21 23 21 16 16 17 13 12 11 11 13 14
1 4 5 8 7 6 2 6 7 3 5 6 3 3 7 2 15 15 13 10 10 10 10 8 14 21 21 15 18 20 17 16 16 19 20 18 14 10 14 17 17 11 9 9
1 5 4 5 9 2 5 1 3 3 1 1 7 6 5 5 6 5 8 12 12 10 10 7 19 21 18 17 16 15 16 18 17 15 18 14 13 13 12 11 12 9 8 9
1 3 2 2 2 2 6 5 2 1 2 5 4 6 9 7 4 2 4 4 4 10 10 9 9 14 19 17 15 16 17 16 16 16 16 18 15 13 11 10 8 10 8 5
5 4 8 8 5 4 6 6 3 4 4 4 8 6 5 6 5 6 6 4 4 6 3 10 10 18 24 23 18 17 18 16 15 17 17 16 14 12 11 9 10 10 8 7
6 5 4 2 6 2 6 5 4 2 6 1 5 6 7 8 5 2 2 1 5 4 2 3 7 10 24 26 22 19 17 16 15 14 15 16 14 12 12 10 8 7 7 7
1 3 6 4 2 3 2 2 2 1 2 3 4 6 5 1 7 7 4 4 2 3 2 4 6 5 16 21 20 18 15 18 16 15 13 15 15 11 9 9 10 8 5 5
7 5 3 5 7 7 5 2 4 1 4 2 1 2 5 6 9 8 8 6 6 5 1 2 6 7 12 19 23 22 20 17 18 16 13 10 10 11 13 10 6 6 6 5
6 3 5 8 5 8 8 9 6 3 4 3 3 5 2 8 8 6 8 6 6 4 3 1 7 11 9 18 21 24 22 17 17 19 19 14 13 12 9 8 7 5 4 4
8 5 1 5 2 5 7 9 13 7 5 4 4 4 4 6 4 4 5 5 7 7 6 3 3 6 10 12 14 17 21 23 22 19 18 16 14 12 9 8 6 5 4 3
2 3 7 12 5 5 5 12 15 10 5 6 10 3 6 3 4 6 6 8 2 6 7 6 5 7 13 14 15 17 18 21 21 17 16 15 13 12 11 8 7 5 5 2
6 4 6 13 7 5 3 9 16 18 14 10 7 15 13 11 10 4 7 9 5 6 5 7 8 7 17 22 22 21 19 20 19 19 17 16 14 13 11 9 8 6 5 5
6 2 4 10 3 3 4 11 12 19 18 17 13 18 10 11 13 14 9 8 6 3 6 7 9 10 15 20 23 24 24 22 20 19 18 17 15 15 12 10 8 7 5 4
2 4 6 1 7 4 4 13 15 11 14 15 16 19 12 12 9 7 7 7 7 6 6 7 8 11 18 23 24 24 24 22 20 19 18 17 15 14 12 11 10 8 5 4
1 2 1 3 7 4 4 3 19 16 13 14 13 9 10 8 6 7 5 4 6 7 7 6 6 18 24 24 27 26 25 25 23 20 20 18 17 15 15 12 9 8 6 5
8 1 3 3 4 2 2 2 5 8 8 9 10 9 7 5 2 6 6 4 4 7 8 10 13 13 25 27 28 29 28 27 24 22 21 19 18 17 16 12 11 10 9 10
12 7 4 3 2 1 3 1 3 4 3 4 5 4 4 5 0 3 4 5 6 9 13 12 5 5 18 26 29 29 27 25 24 22 21 19 19 18 17 14 13 13 11 11
3 3 7 5 3 5 6 6 2 1 2 3 3 3 1 2 3 1 5 5 6 7 10 7 3 2 9 25 28 24 22 22 20 19 18 18 17 17 15 12 14 11 12 12
5 4 4 4 3 4 3 3 2 1 2 2 2 1 2 2 3 2 3 4 5 5 7 7 5 9 15 23 25 20 20 18 18 19 19 17 17 17 14 14 12 13 14 14
2 2 3 3 1 3 4 3 5 5 2 3 3 2 3 3 2 1 3 4 4 5 4 8 11 12 11 12 14 15 15 18 18 18 17 17 16 13 13 13 15 15 16 16
2 3 3 5 3 4 9 5 9 8 5 4 4 4 2 1 2 4 4 3 4 5 6 8 9 9 9 9 8 11 15 16 18 17 17 16 14 13 12 13 15 16 18 17
3 5 3 5 10 9 6 9 10 10 8 4 3 4 3 2 4 4 3 4 5 7 7 7 9 11 11 11 11 12 13 15 15 14 15 16 14 14 14 14 16 18 18 19
3 3 3 4 5 4 6 14 11 10 7 8 5 2 3 2 5 5 5 6 6 7 7 7 7 9 9 8 9 9 11 12 13 14 16 17 15 13 14 14 15 14 15 15

GFSCGP_925_spd_093.txt.gz
Wind_Speed
4 5 1 4 4 3 5 9 5 12 12 10 17 13 11 5 1 9 9 8 7 9 11 25 26 27 20 26 26 30 29 29 27 28 31 27 27 24 22 13 18 20 17 16
4 1 2 7 7 6 2 6 6 1 15 5 2 6 8 13 6 7 9 8 8 6 8 13 26 26 27 25 28 32 30 28 28 27 29 29 28 25 23 25 20 16 17 15
3 2 9 7 6 4 2 4 4 5 4 3 5 6 8 13 7 8 9 8 10 10 8 8 15 27 28 29 26 31 31 30 30 27 26 27 23 26 23 21 20 17 14 12
1 3 4 6 1 3 2 2 7 9 6 4 7 4 5 14 10 13 13 12 11 10 6 11 12 19 26 33 32 28 31 31 31 29 29 26 24 23 25 23 20 19 17 11
3 4 3 2 3 1 1 3 6 4 3 3 3 2 6 3 7 15 11 11 11 11 9 13 16 27 29 27 27 28 23 23 29 30 29 27 24 23 21 21 25 23 21 19
2 2 3 3 3 4 5 3 4 4 3 1 5 5 4 4 6 5 7 14 13 11 11 9 25 29 27 20 20 21 19 17 19 23 29 28 26 23 21 21 22 20 16 14
5 4 5 1 2 5 2 4 1 3 1 5 4 5 9 7 7 6 10 7 6 8 9 8 10 16 23 21 20 19 19 18 16 14 16 18 19 22 22 21 20 17 12 10
5 5 7 5 5 5 5 6 4 5 4 4 4 6 5 10 5 3 6 8 7 7 6 8 12 21 26 24 22 20 20 20 18 14 14 13 18 19 13 18 19 15 15 12
5 5 2 4 3 6 5 3 3 4 3 3 4 5 8 7 5 4 6 5 6 7 5 7 8 18 25 26 25 23 19 16 15 16 15 14 16 19 22 19 15 14 12 11
4 3 4 4 3 3 2 1 2 2 3 3 4 3 5 2 7 4 7 6 6 6 6 6 5 12 24 27 26 21 20 20 18 18 16 14 15 16 17 16 16 16 13 10
6 4 1 3 7 9 3 1 1 3 4 4 2 4 4 5 9 9 7 6 5 6 6 2 3 6 12 18 19 20 20 23 23 19 16 11 15 15 14 13 12 10 9 7
3 3 4 7 3 2 3 5 4 4 4 4 3 4 4 8 7 7 7 6 5 4 5 5 3 4 8 16 19 21 24 26 25 24 17 15 14 15 18 14 9 4 5 6
4 3 3 3 1 4 5 5 4 2 2 4 5 5 3 4 6 6 7 5 5 5 5 5 6 6 7 13 19 21 24 25 23 23 25 24 17 15 13 13 12 9 8 9
7 2 1 3 2 3 4 10 12 8 3 2 5 2 4 5 6 5 6 6 8 7 7 6 6 8 11 14 17 19 21 23 23 21 18 20 20 17 13 12 11 12 11 9
3 3 5 8 11 6 3 6 13 13 9 9 6 13 13 8 4 4 5 6 3 6 7 8 8 7 16 17 18 18 22 22 23 21 19 18 17 17 15 12 12 11 8 6
3 1 5 5 10 8 8 12 13 17 16 14 8 9 5 7 6 5 5 7 8 8 9 10 10 10 16 22 22 21 22 25 23 21 20 20 20 19 15 14 13 10 8 8
1 2 2 4 1 8 4 13 14 11 15 15 15 21 7 13 7 7 6 4 5 5 6 7 8 13 20 27 29 29 26 24 23 23 23 23 21 19 17 14 13 11 8 7
3 2 0 4 2 0 5 2 16 18 13 16 14 7 11 12 9 8 4 4 6 5 6 7 7 15 24 29 32 31 29 28 25 24 24 23 22 20 18 16 13 11 9 8
4 1 2 1 2 6 4 3 3 7 8 5 7 10 8 3 3 1 2 2 1 3 5 8 14 14 24 30 33 33 30 29 27 26 25 25 23 21 19 17 14 11 8 8
5 1 1 3 1 2 3 3 3 4 3 5 5 5 5 3 1 4 3 4 4 7 9 11 16 10 19 29 34 32 31 30 28 27 25 23 22 21 20 16 14 11 11 10
3 3 5 5 3 5 4 3 2 2 3 3 3 3 2 1 4 3 3 4 5 6 10 10 7 3 7 26 32 27 28 29 28 23 22 22 20 19 18 15 12 12 11 11
6 4 3 3 2 5 6 4 2 3 4 1 1 2 2 1 1 1 2 3 5 6 8 7 6 8 3 22 32 28 27 26 22 21 22 21 19 18 17 15 12 12 12 14
0 1 1 3 3 1 10 12 6 5 3 4 3 2 2 1 0 2 1 3 3 5 5 6 8 12 14 13 24 25 20 20 21 21 21 19 18 16 15 13 12 13 15 16
2 1 2 3 2 2 1 8 9 6 5 7 2 3 2 2 3 4 3 3 3 4 4 4 6 8 10 9 9 12 16 18 19 20 19 18 18 17 15 14 14 15 16 17
4 3 2 4 7 7 4 6 7 11 10 11 9 3 2 3 4 5 3 4 4 4 7 5 6 7 8 8 9 10 12 14 15 16 17 19 18 17 15 15 15 17 18 19
3 4 3 4 1 3 5 7 6 10 12 11 9 5 2 3 5 5 5 6 7 6 6 8 7 7 6 6 7 8 9 12 14 15 17 19 19 17 15 16 14 14 16 15

GFSCGP_925_spd_096.txt.gz
Wind_Speed
5 5 2 1 1 2 6 9 8 5 11 8 8 5 8 10 12 11 9 8 8 9 12 18 22 28 26 25 27 30 29 29 27 26 25 23 24 22 20 20 22 20 21 19
6 1 4 6 4 2 2 6 5 3 8 4 5 7 12 12 12 12 10 11 10 6 8 13 19 22 31 31 30 31 32 32 32 33 29 27 28 25 23 22 20 25 26 24
5 2 5 4 4 2 3 5 5 3 7 2 3 4 11 13 16 11 9 8 9 12 10 9 16 24 31 31 33 33 33 33 32 33 31 28 25 27 24 25 21 20 22 22
1 2 3 4 2 2 1 2 7 9 8 4 6 4 4 7 13 13 12 10 10 9 6 7 15 21 29 31 32 35 36 35 33 34 32 31 26 25 29 29 26 26 22 22
2 2 4 1 2 3 2 2 4 4 4 4 5 1 6 2 8 16 10 11 12 12 9 10 13 26 34 31 30 27 30 32 31 32 33 31 29 29 30 30 28 25 25 23
1 1 3 3 3 3 3 5 7 6 3 1 6 7 4 5 7 4 7 14 15 14 10 9 22 27 28 27 26 23 22 28 28 31 31 30 30 28 27 24 25 27 25 21
4 3 2 3 1 3 2 3 3 2 3 3 4 4 8 6 8 7 8 10 12 10 9 9 10 12 20 26 26 24 24 23 21 23 29 30 28 27 27 26 26 26 23 17
3 5 8 6 6 6 5 8 3 5 3 4 5 6 6 10 8 8 8 4 7 9 8 8 9 17 24 27 27 25 21 20 19 16 16 17 21 24 23 22 22 19 17 14
4 5 2 3 3 7 4 3 4 4 3 3 3 6 8 6 3 2 5 4 3 1 3 9 10 20 25 28 27 26 23 20 17 13 12 12 13 16 18 19 19 18 16 11
3 3 3 4 3 1 3 5 3 2 5 4 4 4 5 3 7 4 4 5 3 2 4 2 6 13 19 25 26 22 20 19 17 14 13 13 14 14 14 13 15 13 13 14
4 2 1 2 6 8 3 2 2 3 3 4 1 5 5 7 7 10 8 7 6 4 3 3 3 8 15 16 18 18 18 18 18 18 18 17 16 16 15 14 13 14 13 11
3 3 6 10 0 3 4 6 7 4 5 2 3 5 4 1 6 6 6 5 4 4 3 5 4 6 7 12 16 20 20 21 22 22 21 21 20 19 17 17 10 7 11 13
4 3 3 2 3 2 5 5 4 5 3 6 4 4 1 1 5 5 8 6 5 5 4 3 3 4 7 10 14 18 21 23 23 22 21 20 20 21 20 14 13 12 12 12
6 3 4 1 3 3 4 6 9 7 4 4 5 3 4 5 6 5 4 3 2 3 3 3 3 5 9 11 15 17 20 23 23 23 21 21 20 19 18 15 14 16 16 13
1 4 2 8 10 7 5 6 11 11 8 8 5 7 7 6 5 3 4 4 4 6 6 7 7 7 13 13 15 17 19 22 23 22 21 21 19 17 14 15 17 15 13 11
3 2 1 5 3 10 14 10 7 11 10 15 7 13 3 4 4 2 3 5 6 7 9 10 9 8 13 19 21 21 22 23 23 23 23 21 21 20 20 18 16 14 12 7
1 1 2 4 5 5 8 15 14 9 9 14 15 18 2 7 8 6 7 8 7 8 8 8 9 11 20 24 24 25 24 23 24 24 23 23 22 21 20 18 16 13 11 11
2 1 0 3 2 3 4 4 12 14 10 13 10 4 11 13 11 7 4 4 5 5 5 6 6 12 20 25 24 23 23 26 27 25 24 23 23 22 19 17 16 14 13 11
2 2 2 1 2 5 3 1 4 6 5 7 12 12 11 6 2 3 2 2 1 3 5 8 12 14 15 20 26 26 25 27 28 26 25 24 22 20 19 19 17 14 11 11
3 1 1 2 3 3 1 8 5 3 3 5 4 7 5 6 3 4 3 1 3 5 8 11 12 15 14 18 24 27 27 29 30 28 26 24 23 22 22 20 17 15 12 10
2 2 3 3 3 5 7 11 6 1 4 6 3 3 4 3 4 3 1 1 3 5 9 10 11 9 10 13 25 26 27 30 30 26 23 22 23 22 20 19 17 14 11 11
5 4 3 3 2 5 9 5 5 6 8 6 3 2 2 3 2 2 3 3 5 6 8 8 6 7 7 9 24 24 28 28 23 21 22 22 21 20 19 19 16 14 11 12
2 3 1 5 3 3 2 2 5 7 6 7 7 4 1 1 1 2 2 3 3 5 6 5 6 8 6 5 18 21 22 19 19 20 21 20 19 18 19 19 16 12 12 14
3 1 2 2 2 3 2 1 4 7 7 10 8 8 3 3 3 3 3 2 2 3 5 6 5 7 11 8 6 12 15 18 20 20 19 19 19 18 17 17 15 14 15 16
4 2 2 4 4 2 3 4 1 5 8 11 13 8 8 3 2 3 3 2 2 3 5 7 8 8 9 8 10 9 11 14 16 16 17 17 17 17 16 15 15 16 16 16
3 4 3 4 2 2 5 7 11 6 3 6 10 14 10 2 4 2 3 3 3 5 5 8 8 9 8 9 8 6 6 9 12 14 14 15 16 16 15 15 14 13 14 14

GFSCGP_925_spd_099.txt.gz
Wind_Speed
5 6 4 3 4 2 5 6 10 8 8 3 4 5 16 9 7 8 8 7 6 8 7 14 14 16 21 27 28 27 26 28 28 27 24 23 23 21 19 26 25 26 23 24
6 3 2 5 3 3 5 6 3 6 14 5 10 8 10 12 10 6 6 9 8 5 7 8 13 16 20 23 27 26 27 29 29 29 29 27 26 22 21 21 22 25 27 26
3 4 5 5 3 3 2 2 1 4 10 2 8 4 7 9 14 10 10 8 7 12 11 8 12 20 22 24 26 26 29 32 31 30 29 25 20 20 22 25 24 24 27 27
0 4 2 2 2 1 1 3 5 8 7 3 3 3 4 10 12 14 15 10 10 9 7 7 9 16 23 27 29 29 27 29 33 31 31 30 24 20 29 31 29 25 24 25
4 1 1 2 2 1 3 4 5 6 4 5 2 1 6 1 11 17 16 10 10 10 9 10 10 21 28 28 28 28 27 25 24 26 28 29 28 29 28 26 31 30 25 22
3 3 3 3 2 1 1 5 7 5 3 2 6 5 4 5 8 6 8 11 11 11 10 9 18 21 21 28 27 26 24 24 24 26 24 27 29 27 25 24 22 23 22 22
5 3 3 3 1 3 3 5 2 1 3 4 3 4 7 4 6 7 9 10 10 12 11 9 8 10 19 21 26 24 23 24 24 25 23 24 26 26 26 26 23 22 22 17
3 5 6 4 5 5 4 6 4 6 3 2 2 6 6 6 5 7 8 8 7 9 8 8 9 15 20 23 27 25 24 24 22 20 21 22 22 24 23 22 21 19 21 18
4 5 2 2 1 4 4 3 6 3 1 3 4 6 8 9 7 3 6 5 4 3 7 9 10 18 23 22 24 25 24 21 18 17 15 15 14 17 18 18 16 16 18 17
3 3 2 3 2 1 4 6 4 0 4 4 3 4 5 3 6 2 4 6 3 3 6 4 3 11 20 23 21 18 20 19 16 14 13 13 12 13 13 14 15 16 16 14
3 1 3 0 5 7 2 2 2 4 2 4 2 5 6 7 5 8 8 4 1 4 4 4 3 2 8 12 15 15 16 16 16 15 13 12 12 13 14 14 16 16 14 12
3 3 4 8 3 1 2 2 4 3 4 1 3 5 4 5 7 6 5 3 1 2 2 2 3 4 6 8 9 11 12 14 14 15 14 14 14 15 17 18 18 17 18 15
1 1 2 7 2 1 3 4 7 3 2 5 4 5 3 5 4 4 7 5 3 3 3 0 1 2 2 4 9 13 15 16 16 17 18 17 17 17 17 17 18 17 14 9
3 3 5 5 1 2 6 3 10 11 3 5 9 3 3 2 2 3 1 3 3 2 1 2 3 3 4 5 8 11 14 15 17 19 19 19 19 18 17 16 14 13 11 9
2 6 6 9 9 8 8 8 9 11 11 8 4 8 6 6 5 5 4 0 1 4 5 6 6 6 7 7 8 10 14 17 19 21 21 20 18 17 16 16 12 10 9 7
3 2 2 5 7 7 12 9 10 12 6 13 5 6 5 1 3 3 5 4 4 6 7 8 7 6 9 11 11 12 16 20 22 24 22 20 19 19 18 15 13 11 10 7
2 3 2 4 4 2 3 8 11 9 10 7 10 10 3 2 7 6 7 6 8 8 8 8 8 8 15 16 16 18 19 19 22 22 22 21 21 19 18 16 14 13 10 8
2 1 1 3 4 2 5 0 7 12 5 11 6 6 10 13 13 12 5 5 8 8 7 6 5 8 11 14 17 20 18 20 23 24 23 21 21 20 18 17 16 13 10 9
3 2 2 2 3 5 1 5 3 4 1 1 8 13 10 6 2 4 5 5 4 2 3 7 9 11 13 14 16 18 19 20 22 23 23 22 22 21 20 19 16 14 12 11
1 1 1 2 2 2 1 7 7 2 0 8 11 7 5 6 3 5 5 3 2 2 4 8 11 14 15 18 15 18 22 23 26 27 26 23 22 22 22 20 18 16 13 9
2 2 2 2 3 6 4 9 7 2 3 13 10 7 2 1 4 1 3 2 1 2 5 6 8 10 13 12 11 19 22 27 28 25 24 22 23 23 21 20 18 14 10 7
6 5 3 3 2 6 5 4 3 3 4 5 9 9 8 5 1 1 3 2 1 3 5 6 6 8 10 8 11 18 23 22 21 21 21 21 21 21 20 19 16 13 11 8
3 4 2 6 4 1 2 3 2 1 2 6 9 13 11 8 3 0 1 1 1 3 4 5 6 9 12 6 5 11 12 13 17 18 20 20 20 20 19 18 17 15 12 10
2 1 2 2 0 2 1 2 1 3 3 6 7 9 11 8 7 1 2 1 2 3 4 5 5 9 13 12 4 2 9 13 17 18 18 18 19 18 16 15 15 14 13 13
4 1 3 5 4 3 1 2 4 7 5 4 9 6 9 12 8 2 1 2 2 4 4 7 8 9 10 11 12 9 9 12 15 14 15 16 16 16 15 14 14 15 14 14
4 5 4 4 1 1 5 4 5 7 8 5 4 9 10 8 8 3 3 3 2 3 4 8 8 10 10 11 12 10 8 7 10 11 12 13 13 13 13 14 13 12 13 12

GFSCGP_925_spd_102.txt.gz
Wind_Speed
5 6 4 4 1 2 2 4 4 4 5 7 7 8 8 7 8 8 6 5 5 6 1 8 13 25 31 36 33 34 34 28 29 19 22 26 26 27 26 26 26 26 25 24
6 3 1 5 4 2 3 5 4 8 12 7 10 6 9 5 5 5 6 7 6 4 5 4 8 20 28 33 37 39 37 38 40 38 28 26 33 32 29 23 26 28 28 28
5 3 3 1 1 3 1 4 4 4 8 1 7 3 6 6 5 11 9 8 5 8 8 6 8 15 21 24 28 31 32 36 38 36 34 33 28 28 25 25 23 25 28 32
2 1 1 0 2 2 1 3 2 7 4 0 3 1 5 10 9 13 14 9 9 8 6 6 8 13 18 22 24 24 28 29 30 30 32 31 28 25 29 30 27 26 26 28
2 2 1 2 2 2 2 2 5 4 3 2 2 0 4 9 10 21 17 10 8 9 9 9 9 20 23 20 20 21 22 21 22 24 25 26 27 22 24 22 19 21 23 23
3 2 3 2 2 2 4 5 7 5 2 2 6 4 3 5 13 12 17 11 9 9 9 9 17 21 20 18 20 19 20 22 21 20 22 23 24 24 21 19 16 16 20 20
7 3 2 2 1 2 3 4 1 0 2 3 3 4 7 4 5 6 9 10 10 8 7 8 9 11 19 20 21 23 20 19 18 17 18 19 19 18 18 17 16 16 16 19
1 7 2 1 4 4 3 5 4 5 3 2 1 6 6 5 5 6 8 7 4 5 7 9 10 18 24 23 21 20 22 20 18 18 18 17 16 15 15 16 16 16 17 17
3 5 2 2 2 1 2 2 3 6 2 2 4 6 8 8 9 6 7 4 4 4 5 8 7 14 21 20 19 21 22 19 16 15 14 14 14 15 15 14 15 14 13 16
2 3 1 5 2 2 3 5 3 2 3 4 3 4 5 4 5 3 5 3 3 4 5 5 1 5 6 11 15 15 16 16 14 14 14 13 11 11 11 11 12 13 17 20
3 2 5 3 4 6 2 2 1 3 3 4 1 5 5 5 5 5 7 1 4 4 4 5 6 7 3 5 8 11 12 14 14 13 12 11 10 10 9 9 10 14 19 19
3 3 4 7 2 1 2 3 4 3 3 2 3 5 2 5 7 6 2 5 2 3 3 4 6 6 5 7 8 11 13 14 13 12 10 10 10 11 12 12 14 16 17 16
3 2 3 9 0 3 3 4 7 1 2 5 4 5 2 3 7 6 5 4 3 3 4 4 5 5 5 3 6 9 11 12 12 13 13 13 12 13 14 15 16 16 17 15
2 3 5 5 5 2 3 3 5 7 2 3 8 2 3 6 5 4 5 4 3 3 3 3 3 2 2 2 3 5 7 9 12 14 15 15 15 15 16 17 17 16 14 12
3 1 1 9 10 8 6 9 6 6 4 4 1 8 7 3 3 2 1 4 4 3 4 4 4 4 4 2 1 2 5 8 11 15 16 16 16 16 16 16 15 14 11 8
4 1 2 4 7 9 10 8 11 13 8 10 8 6 5 5 0 3 3 1 2 3 4 6 6 5 6 7 7 6 7 10 13 16 17 17 17 17 17 17 16 11 10 10
3 1 3 4 5 2 3 6 8 3 4 4 9 3 4 11 5 3 4 6 6 6 6 6 6 6 9 10 10 12 10 11 14 16 18 19 19 18 18 17 14 13 12 10
3 2 1 3 5 1 5 5 2 6 5 4 7 8 7 12 17 13 4 5 8 7 7 5 4 5 8 6 7 11 12 15 17 18 20 20 19 19 18 17 15 14 13 10
2 2 2 2 2 5 3 5 4 2 3 7 6 9 12 13 4 5 3 5 4 3 1 2 5 9 11 12 11 9 11 16 19 21 22 22 22 20 19 19 18 15 13 10
1 1 2 2 1 2 1 6 3 4 2 9 9 11 10 3 2 4 4 1 2 5 5 8 11 13 14 14 12 13 13 17 22 23 24 23 22 22 23 21 19 16 12 10
2 1 3 1 2 6 4 9 4 2 2 8 9 8 9 5 4 5 3 3 3 4 7 8 9 10 12 12 10 12 14 20 22 20 20 22 23 23 22 21 19 16 12 9
6 5 3 3 2 5 3 4 2 0 3 2 5 8 9 10 10 4 2 2 3 5 7 7 9 10 12 10 8 9 12 12 14 17 20 22 21 21 20 19 18 14 12 10
2 5 3 7 5 3 1 2 3 3 2 3 3 4 6 9 7 10 4 2 3 4 6 8 7 9 12 9 2 4 6 9 13 17 19 20 19 18 19 19 17 16 14 12
3 2 3 1 1 0 2 1 2 4 3 5 5 5 4 7 10 10 4 1 1 4 6 7 5 7 11 12 6 1 5 9 15 18 18 18 19 19 18 17 17 17 16 13
4 3 3 4 4 3 1 2 2 5 6 6 7 5 5 6 8 7 4 2 2 3 5 6 6 7 9 11 12 9 6 8 13 15 16 17 17 18 17 16 16 16 13 12
5 6 4 4 3 2 4 5 7 8 10 7 7 6 5 5 7 6 4 1 1 5 5 4 5 7 9 12 13 12 9 8 11 13 13 14 15 14 14 13 12 11 10 10

GFSCGP_925_spd_105.txt.gz
Wind_Speed
2 3 3 3 2 3 4 9 4 3 5 8 7 11 7 6 3 5 4 3 2 3 1 11 16 27 27 19 19 19 19 16 14 20 20 18 19 20 23 25 24 26 26 24
5 2 2 4 3 3 3 7 3 1 8 8 5 14 8 3 3 2 2 2 2 3 3 5 15 21 27 26 26 24 32 35 25 20 14 15 15 19 25 26 26 29 27 26
3 1 3 1 2 4 1 4 5 5 7 0 2 7 5 1 2 4 4 3 3 6 7 7 9 18 23 29 32 32 32 29 27 24 23 14 14 22 21 24 27 30 32 32
1 4 2 2 0 3 2 1 4 8 8 1 2 2 4 4 6 3 6 5 7 6 4 5 8 12 19 29 34 39 37 32 27 38 29 31 25 20 22 21 16 36 24 27
2 3 2 1 2 1 3 2 6 4 2 3 3 1 5 5 5 8 11 8 9 8 8 8 7 16 20 20 23 28 29 34 39 37 33 38 41 36 37 28 35 37 22 24
2 3 2 2 2 2 4 5 6 4 2 1 5 5 4 6 5 5 4 11 9 9 8 8 13 9 13 14 18 19 19 24 34 33 31 32 35 31 29 27 26 26 23 21
5 1 4 2 2 2 1 3 1 2 2 3 3 4 6 5 4 6 7 6 6 6 9 7 8 8 12 17 16 18 20 22 23 23 23 24 23 22 19 17 16 16 14 15
3 5 1 2 2 2 4 3 4 5 4 2 2 6 5 6 5 6 6 5 4 8 6 5 8 13 17 18 18 19 20 21 20 19 20 20 17 16 15 14 13 14 14 14
2 4 1 3 2 3 1 4 2 5 2 1 3 4 10 5 7 6 5 4 4 3 3 7 9 14 18 22 22 19 18 18 16 18 16 15 14 15 15 13 12 13 13 14
2 3 0 3 1 2 3 1 2 2 4 3 3 4 5 5 6 5 3 3 4 5 4 1 3 9 15 20 19 14 14 16 17 16 15 14 12 12 11 11 12 14 14 16
3 1 5 2 1 3 1 2 1 1 2 3 2 4 4 4 4 6 4 3 2 5 3 3 3 3 7 7 10 12 13 17 17 17 14 12 11 10 10 10 11 13 16 21
2 2 4 6 2 2 3 1 2 3 4 1 2 4 2 4 6 4 4 5 3 3 4 3 5 9 9 8 10 12 13 13 13 13 12 12 11 11 11 11 13 14 18 20
3 2 3 9 3 3 3 1 3 6 3 4 5 3 3 5 6 7 3 4 4 4 4 4 5 6 9 10 10 11 11 12 13 13 13 13 12 11 12 13 15 18 20 20
1 2 5 6 5 2 4 3 1 2 3 3 2 3 2 6 6 6 5 3 5 4 4 3 5 4 9 8 7 9 11 12 13 14 13 13 14 15 16 18 19 20 20 21
4 2 2 4 6 4 11 13 8 1 2 3 1 3 8 7 6 2 3 3 6 6 7 5 4 4 6 6 6 5 7 10 12 14 15 16 17 18 20 20 21 20 19 18
5 1 2 4 4 5 5 9 8 8 7 10 9 8 8 5 5 6 3 4 3 5 7 5 3 3 4 2 2 4 5 8 11 14 15 16 18 21 22 22 21 20 18 15
2 2 3 4 6 4 3 4 3 2 2 3 3 2 5 9 5 5 5 5 6 6 6 6 5 3 3 4 5 4 4 7 12 15 18 20 20 21 23 23 23 20 17 15
3 3 1 3 5 4 4 2 1 6 5 9 6 8 8 10 10 7 5 7 8 5 4 4 3 3 2 1 3 3 6 10 12 15 18 21 23 22 21 20 20 18 17 16
2 3 2 1 2 4 2 3 3 2 1 6 7 10 11 11 4 3 4 3 4 2 3 3 5 7 6 6 5 7 7 11 15 18 21 24 24 22 22 23 21 19 19 18
2 3 3 2 1 2 2 3 0 3 1 5 7 9 12 9 4 3 8 4 3 5 5 5 7 8 10 9 7 8 11 12 19 22 22 21 23 25 26 24 23 21 19 18
1 1 3 0 2 6 5 6 2 1 1 2 4 6 8 5 3 10 9 5 4 4 5 6 7 7 9 11 9 11 12 17 18 17 18 21 23 24 22 23 22 20 18 16
6 5 3 3 1 5 2 2 0 1 0 2 3 4 7 7 9 10 10 6 5 6 8 9 8 10 11 12 9 9 12 13 12 14 18 21 22 21 21 22 20 19 17 15
2 5 4 7 5 3 2 2 2 2 0 2 4 5 5 7 7 10 9 7 4 6 7 9 7 8 12 13 8 6 6 6 10 16 19 20 20 20 21 22 22 20 17 15
3 3 3 1 2 4 2 1 3 2 3 4 4 6 5 6 6 10 9 7 4 4 5 6 6 7 10 12 9 5 1 5 10 16 19 21 22 20 20 21 21 20 19 16
4 5 4 5 5 2 1 3 2 5 5 6 6 5 7 5 6 5 9 7 4 4 4 5 6 7 9 11 13 10 6 5 9 13 16 18 19 20 19 18 19 19 17 15
5 6 5 5 4 3 2 0 3 3 4 7 7 6 6 6 6 4 9 5 3 2 3 5 6 8 9 11 13 13 9 6 9 12 12 14 16 16 16 16 13 13 11 11

GFSCGP_925_spd_108.txt.gz
Wind_Speed
1 4 4 5 6 8 4 6 8 2 6 1 2 10 15 1 5 5 8 7 9 7 5 22 19 20 24 30 25 21 23 22 21 20 17 13 14 13 12 12 13 15 16 17
4 4 2 6 6 3 3 5 5 2 0 4 1 12 13 3 5 6 9 8 10 11 10 10 17 23 18 24 23 21 18 21 24 17 17 11 11 8 9 9 11 12 14 15
5 1 5 6 3 2 1 2 4 1 3 7 6 6 3 4 6 6 6 9 8 10 15 16 21 23 10 21 25 24 23 21 21 19 17 12 6 5 4 8 9 13 15 16
4 3 3 5 5 5 2 2 4 6 7 2 1 1 10 9 9 9 12 12 12 11 10 13 17 20 25 31 20 26 20 14 23 20 12 6 5 11 9 16 13 14 18 19
1 2 2 5 4 5 3 3 3 6 2 3 4 5 8 10 7 11 13 12 12 13 12 10 9 19 23 33 40 29 32 28 16 11 13 23 18 26 26 20 17 16 15 16
4 2 3 4 5 2 2 4 5 4 3 4 4 5 5 8 14 15 11 9 12 13 12 11 12 9 13 18 29 29 29 31 36 36 36 32 30 29 25 25 25 21 23 23
2 3 3 2 5 3 6 6 3 4 3 3 2 5 7 3 4 4 6 11 10 10 11 12 13 13 14 20 19 17 20 24 35 39 42 39 35 36 38 35 29 30 29 31
3 1 2 2 2 3 8 4 3 5 4 2 2 4 1 6 2 4 5 7 7 9 11 9 8 10 14 15 16 18 19 17 18 25 32 31 34 33 33 33 35 32 34 32
3 1 2 3 4 2 1 6 3 1 1 3 2 4 9 5 2 2 4 5 6 7 11 9 6 11 16 15 18 19 18 18 18 18 19 21 23 23 27 27 26 25 24 22
1 4 1 2 2 2 3 2 2 3 5 5 3 4 5 10 10 7 6 2 3 2 5 4 5 11 12 10 13 16 18 18 17 16 15 15 14 15 15 13 15 16 17 18
1 2 1 3 2 5 1 3 3 2 4 2 3 3 5 7 8 8 5 4 3 3 4 2 3 4 4 10 14 14 14 15 16 15 14 14 14 15 14 12 15 15 15 16
2 2 3 5 3 4 1 3 5 4 3 0 6 4 8 9 8 6 3 5 5 4 4 4 4 5 2 5 11 13 12 14 13 13 13 13 13 13 12 12 13 14 16 18
2 1 3 1 3 6 4 4 2 4 3 4 3 4 6 11 12 10 7 6 4 5 5 5 7 7 8 5 6 9 11 12 12 13 14 14 14 13 12 13 16 17 19 21
1 2 2 5 4 3 5 5 4 4 2 5 3 1 2 12 11 9 8 7 7 7 7 7 7 7 8 9 6 7 9 10 11 11 12 13 14 13 14 15 16 18 20 21
2 1 2 6 6 8 9 9 7 5 6 3 4 7 10 9 11 8 5 5 6 9 9 6 5 5 6 7 7 7 6 8 10 11 11 11 11 12 14 16 17 18 18 18
3 1 0 2 5 4 4 6 8 10 10 10 10 12 11 14 8 8 5 4 6 9 11 7 5 4 3 3 2 2 4 6 8 9 10 11 13 14 14 14 16 17 18 17
2 2 2 2 7 2 2 4 2 0 0 4 4 5 9 12 9 8 9 7 10 10 9 7 4 3 5 4 2 2 2 3 4 5 9 12 12 14 15 15 16 17 19 19
3 2 0 2 4 1 2 4 2 5 4 2 5 8 11 12 13 11 9 9 10 8 7 4 3 3 4 4 3 2 6 8 10 10 10 11 12 12 14 16 16 15 16 15
2 0 1 2 2 3 3 2 2 2 3 1 3 7 11 13 2 9 11 10 7 7 5 5 5 4 3 2 2 3 5 7 10 13 17 18 19 18 17 16 16 18 18 19
1 2 2 1 1 1 4 2 1 3 4 2 2 5 8 11 2 5 15 11 7 8 8 8 7 6 5 5 5 5 7 9 14 14 15 18 19 21 22 21 21 20 22 19
2 2 3 3 3 4 4 1 4 3 4 5 1 2 5 3 4 10 12 9 6 7 9 10 8 7 8 9 8 8 8 12 11 11 14 17 19 20 20 24 22 20 19 19
5 6 3 3 3 2 5 4 4 3 2 1 2 3 5 6 8 9 10 11 7 5 5 6 5 4 7 9 9 10 10 10 10 10 12 15 16 18 19 20 19 18 18 16
4 3 2 5 1 2 3 1 1 2 1 1 3 5 6 8 9 9 11 12 9 7 5 5 4 3 5 7 6 9 7 6 5 8 10 13 15 15 18 19 20 18 16 14
5 5 3 2 4 9 6 4 4 3 2 2 5 8 8 8 8 10 8 9 9 7 7 7 8 8 9 10 9 7 7 3 3 7 11 13 15 16 15 15 20 17 17 15
0 8 6 5 6 2 7 7 5 3 4 5 7 8 10 10 9 9 8 9 9 6 4 4 6 6 8 10 10 10 8 3 2 4 6 9 9 13 15 14 17 19 19 15
8 7 6 3 6 1 3 6 1 3 4 6 6 8 8 8 10 9 9 9 7 5 1 1 2 3 6 8 9 11 10 5 4 6 8 9 11 12 14 16 13 16 13 13

GFSCGP_925_spd_111.txt.gz
Wind_Speed
6 6 8 4 8 13 11 12 13 2 5 5 9 7 7 12 7 10 11 11 15 15 16 19 19 20 19 17 13 27 31 28 25 24 21 19 19 17 14 14 15 16 15 14
5 9 5 7 12 10 9 9 6 3 1 4 7 10 11 8 9 9 11 13 15 12 15 15 16 12 14 17 16 6 23 30 27 25 22 18 18 16 14 14 13 12 12 13
10 7 7 7 12 9 5 10 3 9 3 8 9 15 10 8 9 7 8 10 17 17 16 9 11 13 8 11 11 9 5 20 21 22 21 20 17 15 12 13 13 14 13 14
9 5 6 9 11 8 14 4 7 5 7 3 2 4 13 12 14 13 12 12 12 14 14 15 12 20 30 24 13 14 16 16 16 19 22 28 17 15 11 10 8 10 10 13
3 7 8 10 8 7 6 9 9 9 9 8 4 5 9 12 13 15 14 12 12 10 8 17 19 22 25 28 31 31 29 22 20 21 17 16 15 14 14 14 8 6 6 10
10 4 5 8 11 9 11 10 7 6 4 4 3 2 9 8 12 13 15 16 15 14 12 10 15 19 23 21 23 27 30 28 26 22 22 19 18 20 16 13 9 11 17 17
5 3 4 5 9 8 9 9 3 3 3 2 5 4 6 6 4 5 10 11 13 15 14 13 11 10 14 19 27 28 32 35 36 37 34 27 25 23 18 15 15 12 25 29
5 0 6 8 6 7 10 9 5 4 2 1 3 2 4 3 6 5 2 2 6 8 11 12 12 13 16 19 19 26 28 28 29 31 36 34 28 21 13 22 19 31 37 27
5 2 3 4 8 6 4 4 8 6 3 3 4 4 9 13 7 1 2 2 1 3 6 8 11 15 18 20 21 23 23 31 36 40 39 43 39 31 31 37 38 37 31 31
5 5 2 5 7 1 4 1 2 1 3 4 5 1 8 12 10 7 5 3 6 3 2 6 5 5 9 13 17 21 22 21 20 21 22 26 29 30 34 31 30 31 29 30
6 2 3 6 6 9 4 3 4 1 4 3 2 6 8 10 9 8 5 7 8 8 5 4 4 6 6 6 8 11 15 17 17 18 16 18 16 20 22 25 22 24 24 24
6 5 5 9 6 5 6 5 4 3 4 2 3 4 9 12 11 7 8 7 7 8 7 7 7 6 5 7 9 10 13 15 15 16 16 15 16 19 21 18 21 20 20 21
7 1 4 4 3 8 4 5 6 1 2 3 4 3 12 15 15 12 9 10 10 10 10 10 9 7 4 5 8 12 10 10 13 16 16 15 15 16 17 16 17 18 19 19
3 1 2 5 6 4 7 8 7 5 2 6 4 3 12 15 16 13 10 10 11 11 11 10 9 8 8 7 9 9 9 10 10 11 14 15 15 15 15 14 15 17 17 18
1 0 3 5 5 5 8 8 8 1 5 2 6 10 11 12 11 11 9 9 10 12 12 11 9 8 11 11 9 9 9 11 11 12 10 9 10 11 12 13 13 14 16 17
3 1 1 1 5 4 1 4 5 6 8 8 9 9 8 10 10 8 7 6 8 11 12 10 9 9 9 10 8 7 7 7 8 9 10 9 9 8 10 13 14 15 16 18
1 2 2 3 4 2 2 2 0 2 2 3 6 6 12 12 11 9 10 9 7 9 10 9 9 9 10 11 8 7 5 6 6 8 9 10 11 11 12 12 15 16 17 18
3 1 1 2 3 1 3 1 1 1 0 4 7 8 9 10 9 7 9 10 9 9 9 10 9 11 11 10 9 6 3 2 3 5 8 11 14 16 17 18 17 17 17 17
2 2 1 3 3 1 4 4 3 3 5 4 4 7 9 11 5 11 13 11 9 10 8 9 8 9 11 11 11 8 4 2 4 6 8 10 12 14 16 17 19 19 19 18
1 1 2 2 2 2 5 5 1 2 7 9 4 4 9 11 3 6 14 12 10 11 11 10 9 8 5 6 9 10 11 10 9 7 7 10 13 15 16 17 18 18 19 19
2 2 4 3 3 3 5 5 4 3 3 7 5 2 4 4 2 8 9 11 11 8 11 11 11 9 7 7 7 7 8 10 12 11 8 10 12 15 16 18 19 18 17 17
4 4 3 2 3 3 10 6 4 4 2 3 3 4 6 6 6 6 8 9 8 8 11 11 9 9 9 10 9 9 8 7 8 9 10 10 11 13 17 18 18 16 14 14
4 3 2 4 1 3 10 3 3 1 2 2 2 2 4 7 7 7 7 9 9 7 8 8 8 8 9 10 10 11 9 9 7 7 10 12 12 12 14 17 17 15 13 13
5 5 4 3 4 9 8 5 4 3 2 2 3 5 7 9 9 9 8 7 8 7 5 6 7 6 6 8 9 10 10 8 5 5 7 9 12 12 11 10 14 14 14 15
2 9 7 8 9 2 7 7 5 4 3 5 5 8 9 9 11 11 9 8 8 9 5 4 5 4 5 7 7 9 10 8 3 2 5 8 10 14 14 12 14 15 16 16
8 10 6 3 4 2 4 5 4 4 5 5 5 7 8 8 9 9 9 10 7 7 5 4 4 5 6 7 9 11 12 10 5 1 3 6 8 10 14 13 13 16 16 18

GFSCGP_925_spd_114.txt.gz
Wind_Speed
7 5 7 12 13 10 14 14 15 11 9 5 13 14 5 7 6 13 15 14 14 13 4 10 10 10 8 8 5 16 14 26 28 33 30 30 29 28 28 28 26 25 22 21
5 8 7 8 9 13 14 17 12 4 9 3 10 12 2 9 10 10 9 7 12 18 12 7 12 12 14 12 17 8 24 31 31 33 31 29 28 29 26 28 25 24 22 19
8 9 8 8 9 12 13 12 10 9 1 7 9 9 6 9 11 10 5 5 9 16 16 10 7 12 12 11 10 10 6 31 32 31 28 23 23 21 21 21 22 22 21 21
6 6 8 8 10 8 10 4 14 11 9 3 7 5 3 7 9 6 6 6 11 14 14 12 11 13 15 14 10 10 7 12 19 34 31 32 27 23 25 25 22 19 17 16
6 4 8 10 7 9 6 12 13 10 8 7 4 2 10 5 8 7 7 7 5 11 14 13 9 20 15 14 17 10 10 9 9 22 30 33 26 25 26 22 20 20 18 16
9 5 1 5 12 10 12 12 12 8 2 1 5 3 6 4 4 6 8 9 7 7 9 11 9 18 20 15 16 17 19 23 8 5 12 19 21 19 24 26 25 22 17 14
5 1 2 3 10 9 5 6 3 2 1 3 3 2 4 8 3 4 14 4 10 7 5 4 11 12 23 29 25 19 29 25 20 14 17 19 13 14 19 27 25 20 20 20
2 3 7 8 7 7 9 3 2 2 3 2 4 5 6 8 9 8 6 5 4 8 8 7 6 7 17 23 23 22 26 37 34 21 24 21 18 20 23 19 17 20 20 17
6 4 2 3 5 5 6 4 3 4 3 1 5 6 9 14 15 9 9 4 8 8 5 8 8 13 18 19 22 27 25 24 24 31 36 32 32 24 24 21 17 19 21 21
5 4 5 6 4 3 5 5 4 3 5 3 8 7 6 12 10 11 13 10 8 9 9 7 5 5 15 16 19 18 27 27 30 32 36 38 31 32 32 28 34 29 19 19
7 3 6 4 6 7 5 4 3 2 1 3 2 2 7 8 8 8 9 9 9 8 7 7 7 9 7 5 14 20 23 24 28 29 34 33 30 34 34 34 34 31 32 36
6 3 3 6 7 7 9 6 3 2 4 2 2 1 10 8 8 9 8 8 6 6 7 6 5 6 4 2 4 9 8 12 9 16 22 20 21 20 22 21 22 28 31 30
6 3 3 3 3 8 5 7 7 2 2 3 1 0 10 9 10 9 9 9 8 8 8 7 7 6 7 5 1 5 7 11 9 7 8 6 11 14 16 19 22 23 21 20
5 2 3 2 4 3 2 7 7 4 2 4 5 5 10 10 8 9 9 9 9 8 8 7 5 6 11 12 12 8 9 9 13 15 12 9 5 8 13 13 13 14 16 16
3 2 4 5 3 4 3 4 4 3 4 2 6 6 9 10 10 8 8 8 9 9 10 9 8 7 14 16 14 12 11 7 8 12 13 5 3 7 12 13 13 13 12 14
5 1 3 3 3 5 2 2 2 3 5 1 5 1 9 9 9 9 10 12 8 10 11 10 10 9 14 16 12 11 9 8 7 9 12 16 15 14 12 13 16 17 16 17
2 2 1 0 1 3 4 2 1 2 2 2 2 4 8 6 8 10 9 9 11 11 10 11 10 9 16 16 14 13 8 7 7 9 11 13 15 15 14 15 16 18 19 19
2 2 1 3 2 4 3 2 1 4 0 2 2 4 6 7 9 10 10 10 9 9 9 8 10 14 14 13 14 10 6 5 4 6 8 10 12 13 14 16 17 18 19 20
3 2 1 1 2 1 5 4 3 2 5 6 3 3 4 9 8 7 7 8 8 7 8 10 13 12 11 14 14 13 12 7 2 1 4 7 10 13 15 17 18 18 19 19
3 2 2 3 1 1 3 4 4 3 4 6 5 2 4 7 2 2 6 6 7 11 12 14 18 14 14 15 15 13 10 9 8 6 6 9 10 13 15 16 17 19 21 21
1 2 2 3 2 5 7 7 4 1 4 7 6 2 2 3 2 2 4 5 6 7 9 11 11 11 12 14 16 15 13 10 9 8 7 8 12 15 16 17 20 20 20 20
5 5 3 1 1 6 7 4 4 3 2 6 5 4 4 5 5 3 3 4 6 6 8 9 10 11 11 12 13 12 11 13 13 11 9 9 12 15 17 20 21 20 21 21
3 4 2 5 5 1 8 4 5 3 1 4 3 4 1 4 5 5 3 3 4 8 4 6 8 9 8 12 14 14 15 14 14 12 8 8 11 15 20 22 21 19 20 23
5 3 3 3 4 6 7 3 3 4 2 6 4 2 3 5 6 6 6 5 1 7 3 5 6 7 9 11 12 14 16 14 12 10 8 5 7 11 13 17 20 22 23 22
3 6 6 5 7 2 7 6 7 7 5 3 2 1 4 4 5 5 6 6 5 4 6 4 4 4 5 7 8 11 13 14 13 10 4 3 5 9 12 14 17 20 21 23
6 7 5 5 7 6 1 8 6 7 6 3 2 2 4 4 5 7 5 10 6 2 5 3 2 2 4 5 6 10 11 11 10 7 5 2 2 6 8 11 11 15 12 17

GFSCGP_925_spd_117.txt.gz
Wind_Speed
5 2 6 7 9 15 14 12 15 16 9 5 17 19 19 14 7 4 8 7 10 13 9 20 14 9 12 11 17 24 18 20 30 34 35 35 32 36 34 33 30 31 31 30
3 7 10 10 8 10 8 11 12 7 6 5 9 16 16 7 5 5 8 7 9 11 14 12 15 16 16 14 10 10 21 23 29 32 35 34 36 35 36 35 33 31 31 31
3 6 5 6 7 9 6 5 7 14 10 9 6 8 8 1 4 5 9 2 14 15 16 13 12 15 15 17 16 14 21 27 35 39 34 33 33 33 32 32 33 32 31 31
5 4 7 7 8 9 5 3 12 14 10 4 4 4 8 15 4 6 7 6 11 11 9 9 11 12 19 19 15 8 18 32 33 36 29 30 29 28 28 33 34 35 33 30
7 4 3 4 5 7 7 7 11 8 9 4 4 3 9 7 12 13 5 4 5 14 18 12 9 14 17 19 14 9 16 32 31 35 31 30 31 32 32 34 35 33 32 30
7 4 3 2 8 8 12 9 10 3 1 2 4 3 9 14 9 13 11 8 1 7 13 8 12 14 18 20 20 12 16 23 25 28 31 36 35 28 30 31 30 28 28 27
6 3 3 3 6 6 14 5 3 3 3 4 4 10 8 17 9 9 13 15 5 5 11 8 5 7 11 19 18 18 21 21 17 25 33 28 33 30 32 35 34 30 26 24
4 7 6 6 3 4 5 3 3 4 1 3 8 5 6 13 10 6 14 15 8 4 5 5 6 11 16 14 15 18 19 16 20 16 29 26 20 25 28 25 23 25 29 27
5 4 5 5 2 3 7 3 1 3 1 3 4 8 6 18 17 13 13 14 12 12 5 4 5 4 11 21 22 22 21 21 22 25 19 15 14 13 18 19 19 20 21 22
4 2 5 4 8 8 4 4 4 4 4 4 3 4 7 13 11 12 13 11 9 10 10 10 7 4 9 15 12 19 22 30 27 28 31 23 24 24 25 23 21 21 21 22
5 3 6 6 5 5 6 5 4 4 3 4 1 4 12 11 9 8 9 8 8 10 9 7 6 9 6 1 13 18 20 22 26 26 25 27 29 31 30 28 29 32 28 23
3 3 2 1 4 4 4 5 3 3 4 3 2 3 8 13 9 8 10 10 9 7 7 7 7 11 13 10 6 7 13 18 26 29 30 32 35 35 32 34 33 34 35 29
4 3 3 7 7 7 5 6 4 2 2 2 1 1 7 9 13 11 9 9 10 11 10 8 10 8 14 16 11 12 8 8 15 25 25 22 17 26 29 29 31 37 31 29
3 3 5 5 6 3 4 6 6 4 4 2 2 3 7 9 10 11 13 11 8 9 12 12 11 9 16 20 19 16 14 11 7 9 12 13 10 7 8 11 15 14 14 14
4 3 3 2 3 2 4 3 4 3 4 4 3 1 5 7 6 7 8 11 12 12 12 10 10 9 16 18 18 16 13 10 8 8 14 14 12 7 7 6 7 10 12 13
4 0 2 4 2 4 2 5 4 3 3 2 2 3 4 6 7 9 10 9 9 10 10 10 8 9 13 18 17 14 12 9 5 5 5 6 8 11 8 7 6 9 11 13
3 3 3 3 2 4 5 4 3 1 2 4 2 3 3 3 6 6 7 7 8 7 7 8 8 9 14 18 17 14 11 9 7 5 4 4 5 4 4 8 9 9 11 12
3 2 2 3 4 4 5 2 2 3 3 4 3 3 4 5 3 5 5 4 6 6 6 7 11 14 12 14 15 13 12 9 6 4 2 1 1 4 7 7 10 13 14 15
3 2 2 3 2 4 1 4 4 4 4 7 6 5 2 3 2 2 3 4 4 5 6 7 11 11 13 17 15 11 12 10 7 5 4 3 4 6 8 11 13 14 16 17
2 3 3 1 2 4 4 4 4 4 3 6 6 6 3 3 3 2 4 3 5 7 8 10 11 10 12 15 14 12 12 10 10 8 7 7 8 10 14 16 16 17 18 18
2 2 3 2 2 6 4 6 4 2 5 6 7 6 4 2 1 3 5 6 6 8 8 9 10 10 11 13 14 14 12 14 13 12 10 7 10 13 14 15 17 18 17 17
5 4 3 1 1 6 7 5 6 4 3 7 7 6 5 5 3 2 2 4 7 8 8 9 9 9 10 13 14 14 15 15 15 14 13 11 9 12 15 17 18 18 18 19
2 6 3 8 5 5 7 4 4 4 5 5 6 4 5 4 2 3 3 5 5 8 7 8 8 7 7 11 12 14 17 18 15 13 11 11 9 9 12 16 17 17 18 19
3 4 3 2 3 7 9 5 6 5 5 5 5 5 3 2 2 3 4 6 6 7 7 7 7 7 8 9 9 12 14 16 15 15 12 7 5 7 9 13 16 18 20 21
5 6 5 6 8 5 7 8 8 7 7 6 5 4 4 2 3 3 4 5 9 8 6 7 7 6 7 9 9 11 13 14 14 11 11 9 7 7 9 11 14 17 20 22
6 7 5 7 8 4 5 7 10 9 7 7 6 5 3 3 4 5 6 9 8 8 6 7 6 6 6 7 9 11 11 11 11 11 9 9 9 7 6 10 10 12 15 15